     2              OBSERVATION DATA    G (GPS)             RINEX VERSION / TYPE
TRRINEXO V2.3.1 LH UCLA / SCEC 08-FEB-94 15:50              PGM / RUN BY / DATE
                                                            COMMENT
PROJECT NAME: NORTHRIDGE EARTHQUAKE                         COMMENT
ARCHIVED BY: SOUTHERN CALIFORNIA EARTHQUAKE CENTER (SCEC)   COMMENT
ANTENNA DELTA H: DIRECT HEIGHT TO PRE-AMP BASE (DHPAB)      COMMENT
ANTENNA SPECIFICATION: L1 = DHPAB + .0692                   COMMENT
NOTE: MAGNITUDE 5.1 AFTERSHOCK DURING SESSION               COMMENT
PROBLEM: NONE                                               COMMENT
FOR FURTHER INFORMATION CONTACT: DAVE JACKSON               COMMENT
UCLA / GEOLOGY BLDG., 595 CIRCLE DR E. RM 3806              COMMENT
BIT 2 OF LLI (+4) FLAGS DATA COLLECTED UNDER "AS" CONDITION COMMENT
MEAS ANT HT=0.9360 m (SLANT HT OUT EDGE, TOP GROUND PLANE)  COMMENT
CHATSWORTH RE62 1933 REFERENCE MARK NO 1                    MARKER NAME
D. POTTER UCLA                                              OBSERVER / AGENCY
930 TRIMBLE 4000 SST 4.81                                   REC # / TYPE / VERS
0 TRIMBLE 4000 SST                                          ANT # / TYPE
 -2529753.0000 -4632035.0000  3570415.0000                  APPROX POSITION XYZ
        0.8415        0.0000        0.0000                  ANTENNA: DELTA H/E/N
     1     2                                                WAVELENGTH FACT L1/2
     3    C1    L1    L2                                    # / TYPES OF OBSERV
    30                                                      INTERVAL
  1994     1    19    17    29    0.000000                  TIME OF FIRST OBS
                                                            END OF HEADER
 94  1 19 17 29  0.0000000  0  5 25  1 14 15 21
  20802458.773          -0.68617
  22226229.156          -0.89317
  23992213.047          -0.50515
  21007428.508          -0.75517
  22828764.664          -0.48816
 94  1 19 17 29 30.0000000  0  5 25  1 14 15 21
  20787986.414      -76043.044 7        -0.26319
  22231442.609       27394.963 7        -0.30017
  23967672.852     -128963.486 5        -0.05213
  20991705.211      -82630.896 7        -0.05518
  22834256.578       28838.827 6        -0.40215
 94  1 19 17 30  0.0000000  0  5 25  1 14 15 21
  20773592.203     -151701.876 7    -58955.194 9
  22236643.000       54723.216 7     21294.395 7
  23943101.945     -258082.821 5   -100612.498 5
  20976056.305     -164847.352 7    -64064.817 8
  22839760.570       57770.777 6     22543.880 5
 94  1 19 17 30 30.0000000  0  5 25  1 14 15 21
  20759275.727     -226939.105 7   -117581.600 9
  22241839.672       82035.573 7     42576.710 7
  23918505.359     -387332.853 5   -201326.776 4
  20960498.094     -246610.004 7   -127775.967 8
  22845295.563       86842.542 6     45197.130 6
 94  1 19 17 30 59.9990000  0  5 25  1 14 15 21
  20745042.222     -301723.569 7   -175855.195 9
  22247038.144      109349.203 7     63860.012 7
  23893894.894     -516670.744 5   -302109.528 4
  20945034.526     -327886.952 7   -191108.649 8
  22850856.776      116073.076 6     67974.088 5
 94  1 19 17 31 29.9990000  0  5 25  1 14 15 21
  20730897.644     -376050.953 7   -233772.639 9
  22252238.745      136677.367 7     85154.638 7
  23869264.925     -646104.111 5   -402966.662 5
  20929661.190     -408676.177 7   -254061.284 8
  22856447.448      145456.441 6     90870.132 6
 94  1 19 17 31 59.9990000  0  5 25  1 14 15 21
  20716844.854     -449907.473 7   -291323.169 9
  22257443.112      164028.624 7    106467.259 7
  23844614.487     -775643.583 5   -503906.468 4
  20914383.433     -488958.364 7   -316618.829 8
  22862071.323      175002.273 6    113892.780 5
 94  1 19 17 32 29.9990000  0  5 25  1 14 15 21
  20702881.565     -523289.181 7   -348503.712 9
  22262651.034      191392.093 7    127789.409 7
  23819939.378     -905291.761 5   -604930.997 5
  20899200.019     -568729.811 7   -378778.393 8
  22867719.800      204692.053 6    137027.583 5
 94  1 19 17 32 59.9990000  0  5 25  1 14 15 21
  20689006.034     -596207.432 7   -405323.124 9
  22267857.987      218755.162 7    149111.235 7
  23795250.987    -1035054.562 5   -706044.834 5
  20884114.870     -647993.459 7   -440542.267 8
  22873395.948      234515.562 6    160266.591 5
 94  1 19 17 33 29.9990000  0  5 25  1 14 15 21
  20675217.925     -668662.775 7   -461781.827 9
  22273065.331      246120.156 7    170434.563 7
  23770534.097    -1164935.318 5   -807250.572 5
  20869130.347     -726740.533 7   -501903.625 8
  22879099.558      264491.659 6    183624.493 5
 94  1 19 17 33 59.9990000  0  6 25  1 14 15 21 29
  20661520.862     -740643.338 7   -517870.575 9
  22278276.706      273499.326 7    191768.928 7
  23745797.370    -1294925.379 5   -908541.501 4
  20854247.511     -804956.127 7   -562850.844 8
  22884835.339      294641.049 5    207117.428 5
  24602206.253          -0.58214
 94  1 19 17 34 29.9990000  0  6 25  1 14 15 21 29
  20647919.605     -812122.548 7   -573568.655 9
  22283496.854      300938.845 7    213150.324 7
  23721050.347    -1424976.185 5  -1009879.757 3
  20839469.933     -882611.564 7   -623361.576 8
  22890611.425      325004.131 5    230776.892 5
  24578885.331     -122515.966 4        -0.40613
 94  1 19 17 34 59.9990000  0  6 25  1 14 15 21 29
  20634420.198     -883063.849 7   -628847.577 9
  22288736.667      328475.702 7    234607.571 7
  23696297.058    -1555047.475 5  -1111233.982 5
  20824805.128     -959677.107 7   -683412.658 8
  22896441.667      355624.748 6    254637.020 5
  24555599.253     -244921.112 3    -95380.929 2
 94  1 19 17 35 29.9990000  0  6 25  1 14 15 21 29
  20621032.878     -953413.344 7   -683665.371 9
  22294004.839      356148.637 7    256170.855 7
  23671555.862    -1685092.705 5  -1212567.890 5
  20810258.308    -1036114.827 7   -742974.519 8
  22902323.722      386532.927 5    278721.232 5
  24532338.073     -367149.967 3   -190624.076 2
 94  1 19 17 35 59.9990000  0  6 25  1 14 15 21 29
  20607762.706    -1023149.685 7   -738005.378 9
  22299295.112      383963.225 7    277844.530 7
  23646813.667    -1815096.724 5  -1313869.704 5
  20795834.034    -1111919.562 7   -802043.153 8
  22908258.433      417715.933 5    303019.586 5
  24509115.956     -489189.861 3   -285719.990 2
 94  1 19 17 36 29.9990000  0  6 25  1 14 15 21 29
  20594608.284    -1092274.810 7   -791869.106 9
  22304611.667      411902.996 7    299615.741 7
  23622079.862    -1945056.943 5  -1415137.408 5
  20781528.159    -1187097.532 7   -860623.398 8
  22914242.909      449158.305 5    327520.036 5
  24485927.839     -611022.173 3   -380654.216 1
 94  1 19 17 36 59.9990000  0  6 25  1 14 15 21 29
  20581572.917    -1160770.772 7   -845242.580 9
  22309949.190      439941.546 7    321463.917 7
  23597358.190    -2074971.727 5  -1516369.687 5
  20767344.714    -1261643.069 7   -918710.842 8
  22920269.815      480844.339 5    352210.355 5
  24462790.503     -732631.780 3   -475414.905 1
 94  1 19 17 37 29.9990000  0  6 25  1 14 15 21 29
  20568656.097    -1228649.273 7   -898134.919 9
  22315300.479      468069.490 7    343381.755 7
  23572645.378    -2204842.287 5  -1617567.517 5
  20753280.440    -1335556.186 7   -976305.485 8
  22926347.854      512764.939 5    377083.458 5
  24439689.526     -854032.312 4   -570012.788 1
 94  1 19 17 37 59.9990000  0  6 25  1 14 15 21 29
  20555849.284    -1295944.114 7   -950572.457 9
  22320668.823      496273.925 7    365359.197 7
  23547937.409    -2334688.486 5  -1718746.359 5
  20739334.183    -1408850.500 7  -1033417.948 8
  22932462.776      544919.790 5    402139.087 5
  24416619.151     -975264.465 3   -664479.361 2
 94  1 19 17 38 29.9990000  0  6 25  1 14 15 21 29
  20543145.831    -1362693.472 7  -1002584.942 9
  22326045.972      524532.569 7    387378.872 7
  23523227.112    -2464537.810 5  -1819927.615 4
  20725500.565    -1481547.838 7  -1090065.233 8
  22938625.190      577298.465 5    427369.124 5
  24393574.698    -1096357.868 3   -758837.817 2
 94  1 19 17 38 59.9990000  0  6 25  1 14 15 21 29
  20530547.987    -1428905.235 7  -1054178.523 9
  22331433.206      552845.273 6    409440.684 6
  23498519.784    -2594390.061 5  -1921111.169 4
  20711780.003    -1553648.007 7  -1146247.197 8
  22944831.925      609903.446 6    452775.494 5
  24370556.620    -1217332.812 3   -853103.982 3
 94  1 19 17 39 29.9990000  0  6 25  1 14 15 21 29
  20518045.964    -1494621.232 7  -1105385.786 9
  22336829.745      581204.283 7    431538.567 7
  23473801.753    -2724281.865 5  -2022325.548 5
  20698164.479    -1625180.459 7  -1201986.775 8
  22951073.683      642721.970 5    478348.258 5
  24347551.612    -1338231.669 3   -947310.812 4
 94  1 19 17 39 59.9990000  0  6 25  1 14 15 21 29
  20505634.276    -1559837.187 7  -1156203.413 9
  22342234.511      609607.224 7    453670.697 7
  23449071.769    -2854228.469 5  -2123582.632 5
  20684659.854    -1696153.373 7  -1257290.354 8
  22957359.167      675750.914 5    504085.000 5
  24324554.909    -1459064.756 3  -1041466.401 4
 94  1 19 17 40 29.9990000  0  6 25  1 14 15 21 29
  20493318.815    -1624533.764 7  -1206616.329 9
  22347648.315      638051.802 7    475835.258 7
  23424335.651    -2984221.478 5  -2224875.861 5
  20671264.761    -1766562.189 7  -1312154.377 8
  22963689.229      708986.201 5    529982.531 5
  24301574.964    -1579817.210 3  -1135559.147 4
 94  1 19 17 40 59.9990000  0  6 25  1 14 15 21 29
  20481107.714    -1688714.940 7  -1256627.627 9
  22353066.667      666523.721 7    498021.126 7
  23399587.620    -3114270.341 5  -2326212.600 5
  20657970.097    -1836415.792 7  -1366585.763 8
  22970047.175      742422.005 5    556036.294 5
  24278610.034    -1700502.583 4  -1229599.617 2
 94  1 19 17 41 29.9990000  0  6 25  1 14 15 21 29
  20468991.206    -1752393.936 7  -1306247.622 9
  22358487.198      695003.810 6    520213.361 7
  23374826.128    -3244390.419 5  -2427604.838 5
  20644779.292    -1905721.092 7  -1420589.898 8
  22976448.815      776052.737 5    582241.957 5
  24255658.011    -1821117.735 4  -1323585.397 1
 94  1 19 17 41 59.9990000  0  6 25  1 14 15 21 29
  20456965.987    -1815575.337 7  -1355479.876 9
  22363901.433      723465.619 7    542391.354 7
  23350053.448    -3374577.485 5  -2529049.278 5
  20631699.065    -1974483.487 7  -1474170.991 8
  22982882.854      809857.158 5    608582.944 5
  24232716.644    -1941655.893 3  -1417511.148 2
 94  1 19 17 42 29.9990000  0  6 25  1 14 15 21 29
  20445041.769    -1878260.450 7  -1404325.415 9
  22369312.542      751894.554 6    564543.728 7
  23325267.690    -3504830.999 5  -2630545.484 5
  20618712.479    -2042703.530 7  -1527329.475 8
  22989341.339      843826.356 5    635052.336 5
  24209796.315    -2062112.914 3  -1511373.653 3
 94  1 19 17 42 59.9990000  0  6 25  1 14 15 21 29
  20433206.354    -1940430.283 7  -1452769.434 9
  22374720.011      780311.765 7    586686.971 7
  23300469.862    -3635133.111 5  -2732079.555 5
  20605841.940    -2110354.738 7  -1580044.707 8
  22995846.386      877981.660 5    661666.760 5
  24186896.261    -2182462.368 4  -1605152.348 3
 94  1 19 17 43 29.9990000  0  6 25  1 14 15 21 29
  20421480.862    -2002067.111 7  -1500798.126 9
  22380129.972      808741.684 7    608840.121 6
  23275670.589    -3765467.104 5  -2833638.476 5
  20593077.862    -2177420.876 7  -1632304.046 8
  23002384.972      912323.987 5    688426.907 5
  24164023.058    -2302679.673 4  -1698828.035 3
 94  1 19 17 43 59.9990000  0  6 25  1 14 15 21 29
  20409855.183    -2063149.270 7  -1548394.609 9
  22385546.175      837196.705 7    631012.832 6
  23250862.808    -3895830.261 5  -2935220.131 5
  20580428.667    -2243900.594 7  -1684106.431 8
  23008949.847      946847.550 5    715328.278 5
  24141166.276    -2422767.697 3  -1792403.021 4
 94  1 19 17 44 29.9990000  0  6 25  1 14 15 21 29
  20398336.995    -2123690.740 7  -1595569.771 9
  22390965.714      865680.169 7    653207.703 6
  23226049.269    -4026223.111 5  -3036824.909 5
  20567886.761    -2309798.020 7  -1735455.081 8
  23015558.175      981556.065 5    742373.752 5
  24118335.581    -2542731.396 3  -1885881.130 4
 94  1 19 17 44 59.9990000  0  6 25  1 14 15 21 29
  20386912.261    -2183706.869 7  -1642335.579 9
  22396390.659      894191.995 7    675424.678 7
  23201230.128    -4156644.560 5  -3138451.982 4
  20555460.823    -2375119.163 7  -1786354.678 8
  23022195.386     1016446.160 5    769560.734 5
  24095541.331    -2662573.638 4  -1979264.570 4
 94  1 19 17 45 29.9990000  0  6 25  1 14 15 21 29
  20375594.558    -2243205.690 7  -1688698.292 9
  22401819.644      922722.936 6    697656.542 7
  23176409.331    -4287084.099 5  -3240093.155 5
  20543132.972    -2439870.826 7  -1836810.529 8
  23028868.925     1051521.653 5    796892.181 5
  24072751.409    -2782312.720 4  -2072567.624 2
 94  1 19 17 45 59.9990000  0  6 25  1 14 15 21 29
  20364363.839    -2302204.703 7  -1734671.536 9
  22407249.862      951256.027 7    719890.086 7
  23151584.128    -4417546.529 5  -3341752.167 5
  20530922.917    -2504063.199 7  -1886830.570 8
  23035578.683     1086780.736 5    824366.671 5
  24049974.425    -2901972.027 3  -2165808.545 4
 94  1 19 17 46 29.9990000  0  6 25  1 14 15 21 29
  20353233.276    -2360697.604 7  -1780250.412 9
  22412683.558      979811.561 6    742141.113 7
  23126755.292    -4548017.448 5  -3443417.812 5
  20518816.448    -2567674.489 7  -1936397.815 8
  23042324.253     1122239.384 5    851996.665 5
  24027223.370    -3021538.834 4  -2258977.390 2
 94  1 19 17 46 59.9990000  0  6 25  1 14 15 21 29
  20342201.542    -2418679.621 7  -1825431.196 9
  22418123.159     1008394.518 6    764413.511 6
  23101926.292    -4678511.128 5  -3545101.169 5
  20506819.104    -2630703.281 7  -1985511.174 8
  23049111.456     1157890.680 5    879776.778 5
  24004490.292    -3141030.573 5  -2352087.746 3
 94  1 19 17 47 29.9990000  0  6 25  1 14 15 21 29
  20331263.878    -2476151.227 7  -1870214.263 9
  22423566.550     1037003.459 6    786706.154 6
  23077087.925    -4809030.841 5  -3646804.820 5
  20494940.065    -2693146.161 7  -2034167.967 8
  23055931.503     1193723.725 5    907698.512 4
  23981764.261    -3260444.505 4  -2445137.456 4
 94  1 19 17 47 59.9990000  0  6 25  1 14 15 21 29
  20320426.026    -2533102.919 7  -1914592.202 9
  22429020.479     1065659.345 6    809035.379 6
  23052241.433    -4939588.322 5  -3748537.900 5
  20483172.612    -2754995.540 7  -2082362.297 8
  23062781.894     1229732.734 5    935757.343 5
  23959056.792    -3379758.340 3  -2538109.189 2
 94  1 19 17 48 29.9980000  0  6 25  1 14 15 21 29
  20309686.272    -2589532.519 7  -1958563.312 9
  22434479.670     1094347.405 6    831389.682 6
  23027390.670    -5070183.327 5  -3850300.231 5
  20471517.412    -2816254.163 7  -2130096.292 8
  23069666.967     1265908.380 5    963946.042 5
  23936374.404    -3498953.427 4  -2630988.363 3
 94  1 19 17 48 59.9980000  0  6 25  1 14 15 21 29
  20299051.561    -2645425.338 7  -2002116.161 9
  22439943.553     1123071.336 6    853771.936 6
  23002535.326    -5200792.157 5  -3952073.296 5
  20459972.170    -2876912.712 7  -2177362.699 8
  23076589.928     1302284.045 5    992290.603 5
  23913722.982    -3618011.350 4  -2723760.647 3
 94  1 19 17 49 29.9980000  0  6 25  1 14 15 21 29
  20288520.326    -2700766.164 7  -2045238.889 9
  22445416.146     1151828.730 6    876180.255 6
  22977683.006    -5331403.786 6  -4053848.568 5
  20448542.631    -2936970.243 7  -2224160.783 8
  23083550.459     1338869.705 5   1020798.781 5
  23891094.037    -3736912.989 5  -2816411.143 4
 94  1 19 17 49 59.9980000  0  6 25  1 14 15 21 29
  20278096.029    -2755549.691 7  -2087927.351 9
  22450896.146     1180622.679 6    898617.056 6
  22952828.076    -5462015.508 5  -4155623.912 5
  20437227.842    -2996421.572 7  -2270486.497 9
  23090556.068     1375684.660 5   1049485.623 4
  23868495.092    -3855666.445 4  -2908946.237 3
 94  1 19 17 50 29.9980000  0  6 25  1 14 15 21 29
  20267773.811    -2809796.535 7  -2130197.629 9
  22456373.607     1209417.176 6    921054.286 6
  22927973.420    -5592633.742 5  -4257404.316 5
  20426027.951    -3055280.715 7  -2316350.772 8
  23097595.990     1412712.517 5   1078338.368 5
  23845919.123    -3974302.148 4  -3001389.525 2
 94  1 19 17 50 59.9980000  0  6 25  1 14 15 21 29
  20257551.131    -2863506.220 7  -2172049.324 9
  22461858.389     1238221.232 6    943498.965 6
  22903112.115    -5723265.672 5  -4359195.402 5
  20414941.451    -3113545.465 7  -2361751.881 9
  23104684.443     1449948.009 5   1107352.901 5
  23823364.537    -4092835.805 5  -3093753.320 2
 94  1 19 17 51 29.9980000  0  6 25  1 14 15 21 29
  20247437.678    -2916660.215 7  -2213468.025 9
  22467341.428     1267053.503 6    965965.624 6
  22878255.264    -5853898.743 6  -4460987.365 5
  20403973.678    -3171193.961 7  -2406672.804 8
  23111809.451     1487390.209 5   1136528.501 5
  23800830.029    -4211255.391 5  -3186028.216 3
 94  1 19 17 51 59.9980000  0  6 25  1 14 15 21 29
  20237423.076    -2969275.357 7  -2254466.834 9
  22472831.654     1295888.993 6    988434.790 6
  22853395.467    -5984530.023 5  -4562777.939 5
  20393119.139    -3228234.882 7  -2451120.271 9
  23118975.529     1525017.697 5   1165848.489 4
  23778315.139    -4329567.263 5  -3278219.179 4
 94  1 19 17 52 29.9980000  0  6 25  1 14 15 21 29
  20227518.584    -3021334.971 7  -2295032.764 9
  22478319.998     1324731.625 6   1010909.512 6
  22828540.100    -6115143.081 5  -4664554.302 5
  20382378.920    -3284665.256 7  -2495091.996 9
  23126167.100     1562829.452 5   1195312.043 5
  23755827.850    -4447754.223 5  -3370312.770 5
 94  1 19 17 52 59.9980000  0  6 25  1 14 15 21 29
  20217722.123    -3072826.231 7  -2335155.819 9
  22483813.990     1353602.808 6   1033406.494 6
  22803695.139    -6245717.228 6  -4766300.355 5
  20371754.631    -3340476.473 7  -2538581.257 9
  23133400.725     1600839.857 5   1224930.406 5
  23733361.826    -4565798.661 5  -3462295.331 4
 94  1 19 17 53 29.9980000  0  6 25  1 14 15 21 29
  20208029.342    -3123759.962 7  -2374844.442 9
  22489313.037     1382490.806 6   1055916.572 6
  22778855.029    -6376253.710 6  -4868017.055 5
  20361249.139    -3395678.736 7  -2581596.011 8
  23140669.717     1639047.877 5   1254702.737 5
  23710924.475    -4683708.661 5  -3554173.144 4
 94  1 19 17 53 59.9980000  0  6 25  1 14 15 21 29
  20198442.732    -3174127.277 7  -2414091.696 9
  22494814.123     1411406.076 6   1078447.912 6
  22754019.178    -6506749.254 5  -4969701.857 5
  20350866.803    -3450264.928 7  -2624130.711 8
  23147984.428     1677471.355 5   1284642.964 4
  23688515.115    -4801470.822 5  -3645935.777 4
 94  1 19 17 54 29.9980000  0  6 25  1 14 15 21 29
  20188964.045    -3223946.477 7  -2452911.845 9
  22500321.381     1440351.963 6   1101003.099 6
  22729190.842    -6637224.584 6  -5071370.927 5
  20340594.803    -3504239.804 7  -2666189.061 9
  23155337.459     1716113.771 5   1314753.791 5
  23666128.631    -4919101.302 4  -3737595.805 4
 94  1 19 17 54 59.9980000  0  6 25  1 14 15 21 29
  20179589.037    -3273219.794 7  -2491306.637 9
  22505838.725     1469339.524 6   1123590.743 6
  22704369.748    -6767676.706 6  -5173021.886 5
  20330438.865    -3557589.703 7  -2707760.411 9
  23162737.381     1754982.720 5   1345041.129 4
  23643771.795    -5036592.467 4  -3829147.261 5
 94  1 19 17 55 29.9980000  0  6 25  1 14 15 21 29
  20170314.521    -3321939.280 7  -2529269.872 9
  22511361.936     1498365.709 6   1146208.487 6
  22679545.006    -6898120.278 6  -5274666.197 5
  20320413.787    -3610305.047 7  -2748837.311 9
  23170173.764     1794086.651 5   1375511.551 5
  23621442.123    -5153939.508 5  -3920586.390 5
 94  1 19 17 55 59.9980000  0  6 25  1 14 15 21 29
  20161146.592    -3370133.729 7  -2566823.982 9
  22516891.857     1527412.877 6   1168842.589 6
  22654723.670    -7028567.805 6  -5376313.582 5
  20310495.381    -3662400.831 7  -2789431.437 9
  23177656.256     1833401.857 5   1406146.622 4
  23599136.248    -5271159.581 5  -4011926.602 4
 94  1 19 17 56 29.9980000  0  6 25  1 14 15 21 29
  20152072.131    -3417801.084 7  -2603967.374 9
  22522423.717     1556495.611 6   1191504.404 6
  22629899.357    -7159004.571 5  -5477952.585 5
  20300704.850    -3713875.056 7  -2829541.228 9
  23185179.850     1872929.668 5   1436947.371 5
  23576850.803    -5388266.394 4  -4103178.597 3
 94  1 19 17 56 59.9980000  0  6 25  1 14 15 21 29
  20143109.904    -3464919.161 7  -2640682.753 9
  22527964.037     1585612.285 6   1214192.676 6
  22605084.217    -7289416.253 6  -5579572.044 6
  20291022.240    -3764727.854 7  -2869166.794 9
  23192739.537     1912661.055 5   1467906.727 4
  23554587.756    -5505256.949 5  -4194339.978 4
 94  1 19 17 57 29.9980000  0  6 25  1 14 15 21 29
  20134251.100    -3511458.114 7  -2676946.877 9
  22533514.764     1614776.147 6   1236917.707 6
  22580277.787    -7419776.969 6  -5681151.780 5
  20281471.162    -3814941.087 7  -2908294.004 9
  23200350.295     1952622.211 5   1499045.117 4
  23532351.584    -5622112.577 5  -4285396.245 3
 94  1 19 17 57 59.9980000  0  6 25  1 14 15 21 29
  20125505.826    -3557417.879 7  -2712759.683 9
  22539074.451     1643988.516 6   1259680.529 6
  22555484.021    -7550070.123 6  -5782678.883 5
  20272032.607    -3864527.118 7  -2946932.477 9
  23207989.287     1992799.370 5   1530351.815 4
  23510136.725    -5738839.858 5  -4376352.507 4
 94  1 19 17 58 29.9980000  0  6 25  1 14 15 21 29
  20116877.897    -3602768.323 7  -2748097.694 9
  22544640.912     1673245.529 6   1282478.146 6
  22530702.584    -7680295.730 6  -5884153.349 6
  20262717.068    -3913478.837 7  -2985076.694 9
  23215679.178     2033197.263 5   1561830.519 4
  23487954.584    -5855419.246 5  -4467193.534 4
 94  1 19 17 58 59.9980000  0  6 25  1 14 15 21 29
  20108361.334    -3647510.584 7  -2782961.794 9
  22550212.967     1702528.554 6   1305296.028 6
  22505932.904    -7810458.581 6  -5985578.912 5
  20253529.170    -3961787.479 7  -3022719.814 9
  23223409.522     2073822.845 5   1593486.648 3
  23465804.568    -5971824.246 5  -4557898.650 5
 94  1 19 17 59 29.9980000  0  6 25  1 14 15 21 29
  20099958.732    -3691664.372 7  -2817367.356 9
  22555789.764     1731835.920 6   1328132.872 6
  22481174.420    -7940566.464 6  -6086961.649 6
  20244457.092    -4009453.461 7  -3059862.141 9
  23231186.600     2114670.858 5   1625316.072 4
  23443686.779    -6088055.491 5  -4648468.400 4
 94  1 19 17 59 59.9980000  0  6 25  1 14 15 21 29
  20091668.381    -3735247.559 7  -2851328.286 9
  22561373.365     1761176.766 6   1350995.811 6
  22456424.451    -8070627.702 6  -6188308.041 6
  20235504.467    -4056476.198 7  -3096503.254 9
  23238997.115     2155727.316 5   1657307.900 4
  23421597.928    -6204127.579 5  -4738914.130 5
 94  1 19 18  0 29.9980000  0  6 25  1 14 15 21 29
  20083477.990    -3778283.323 7  -2884862.654 9
  22566959.834     1790533.989 6   1373871.514 6
  22431680.443    -8200662.011 6  -6289633.431 6
  20226679.959    -4102854.918 7  -3132642.540 9
  23246845.975     2196991.521 5   1689461.612 3
  23399538.787    -6320045.506 5  -4829239.730 4
 94  1 19 18  0 59.9980000  0  6 25  1 14 15 21 29
  20075390.232    -3820782.493 7  -2917978.901 9
  22572554.350     1819932.009 6   1396778.994 6
  22406942.889    -8330658.678 6  -6390929.521 5
  20217978.857    -4148585.644 7  -3168276.891 9
  23254741.178     2238469.849 5   1721782.185 3
  23377507.748    -6435820.854 5  -4919454.276 4
 94  1 19 18  1 29.9980000  0  6 25  1 14 15 21 29
  20067408.232    -3862730.122 7  -2950665.375 9
  22578161.092     1849393.378 6   1419735.845 6
  22382214.365    -8460603.804 6  -6492185.433 6
  20209400.115    -4193665.234 7  -3203403.862 9
  23262673.975     2280161.124 5   1754268.704 4
  23355502.662    -6551461.967 5  -5009564.245 3
 94  1 19 18  1 59.9980000  0  6 25  1 14 15 21 29
  20059530.904    -3904128.706 7  -2982924.019 9
  22583776.756     1878900.719 6   1442728.515 6
  22357496.748    -8590498.943 6  -6593402.402 6
  20200944.967    -4238100.823 7  -3238029.016 9
  23270650.272     2322068.496 5   1786923.596 4
  23333521.701    -6666967.321 5  -5099568.397 5
 94  1 19 18  2 29.9980000  0  6 25  1 14 15 21 29
  20051762.584    -3944948.018 7  -3014731.289 9
  22589400.975     1908456.095 6   1465758.609 6
  22332794.811    -8720316.390 6  -6694558.822 5
  20192612.607    -4281879.843 7  -3272142.559 9
  23278671.006     2364219.338 5   1819768.200 4
  23311573.826    -6782306.902 5  -5189443.351 5
 94  1 19 18  2 59.9980000  0  6 25  1 14 15 21 29
  20044108.482    -3985178.130 7  -3046079.443 9
  22595034.248     1938060.685 6   1488827.059 6
  22308103.857    -8850051.448 6  -6795651.069 6
  20184404.506    -4325009.351 7  -3305749.994 9
  23286735.834     2406605.330 5   1852796.031 3
  23289654.459    -6897488.943 5  -5279195.562 4
 94  1 19 18  3 29.9980000  0  6 25  1 14 15 21 29
  20036565.756    -4024809.480 7  -3076961.023 9
  22600676.670     1967701.753 6   1511923.930 6
  22283436.365    -8979686.780 6  -6896665.580 6
  20176323.967    -4367481.089 7  -3338844.874 9
  23294846.990     2449235.571 5   1886014.199 3
  23267772.436    -7012490.667 5  -5368807.285 5
 94  1 19 18  3 59.9980000  0  6 25  1 14 15 21 29
  20029138.186    -4063830.492 7  -3107367.017 9
  22606323.271     1997385.797 6   1535054.290 6
  22258787.756    -9109214.016 6  -6997595.889 6
  20168372.217    -4409284.786 7  -3371419.209 9
  23303010.717     2492112.289 5   1919424.397 3
  23245925.037    -7127292.224 5  -5458263.060 4
 94  1 19 18  4 29.9980000  0  6 25  1 14 15 21 29
  20021831.420    -4102226.738 7  -3137286.188 9
  22611985.881     2027133.790 6   1558234.462 6
  22234161.350    -9238629.567 6  -7098439.162 6
  20160545.498    -4450417.664 7  -3403470.823 9
  23311215.459     2535231.450 5   1953023.527 4
  23224113.764    -7241897.380 5  -5547565.786 4
 94  1 19 18  4 59.9980000  0  6 25  1 14 15 21 29
  20014641.842    -4140020.880 7  -3166736.186 9
  22617655.303     2056930.911 6   1581452.922 6
  22209551.295    -9367957.966 6  -7199214.529 6
  20152838.623    -4490893.738 7  -3435010.645 9
  23319453.428     2578562.901 4   1986788.103 2
  23202343.811    -7356330.487 5  -5636734.419 5
 94  1 19 18  5 29.9970000  0  6 25  1 14 15 21 29
  20007565.915    -4177208.159 7  -3195713.292 9
  22623335.384     2086779.943 6   1604711.826 6
  22184958.165    -9497190.388 6  -7299915.095 6
  20145263.001    -4530701.875 7  -3466029.994 9
  23327746.462     2622114.008 5   2020723.839 3
  23180600.493    -7470574.892 5  -5725756.005 5
 94  1 19 18  5 59.9970000  0  6 25  1 14 15 21 29
  20000600.673    -4213790.706 7  -3224219.182 9
  22629026.392     2116688.771 6   1628017.324 6
  22160379.915    -9626348.634 6  -7400557.901 6
  20137819.040    -4569847.603 7  -3496533.188 9
  23336078.157     2665881.514 5   2054828.184 4
  23158889.970    -7584655.554 5  -5814650.017 5
 94  1 19 18  6 29.9970000  0  6 25  1 14 15 21 29
  19993756.103    -4249777.602 7  -3252260.932 9
  22634727.821     2146654.222 6   1651366.947 6
  22135821.993    -9755416.192 6  -7501129.993 6
  20130493.431    -4608319.825 7  -3526511.568 9
  23344451.517     2709894.358 5   2089123.688 3
  23137214.407    -7698571.044 5  -5903415.333 5
 94  1 19 18  6 59.9970000  0  6 25  1 14 15 21 29
  19987013.556    -4285200.326 7  -3279863.071 9
  22640439.892     2176667.294 6   1674753.678 6
  22111277.790    -9884389.464 6  -7601628.643 6
  20123302.392    -4646122.293 7  -3555968.061 9
  23352875.001     2754151.157 4   2123609.317 4
  23115571.845    -7812317.625 5  -5992049.026 5
 94  1 19 18  7 29.9970000  0  6 25  1 14 15 21 29
  19980379.946    -4320069.446 7  -3307033.827 9
  22646159.368     2206724.536 6   1698174.823 6
  22086753.759   -10013260.755 6  -7702047.816 6
  20116233.845    -4683264.715 7  -3584910.233 9
  23361343.751     2798650.148 5   2158283.664 2
  23093956.353    -7925887.468 5  -6080544.994 5
 94  1 19 18  7 59.9970000  0  6 25  1 14 15 21 29
  19973849.532    -4354372.777 7  -3333763.709 9
  22651890.759     2236842.467 6   1721643.258 5
  22062255.564   -10141999.878 6  -7802364.000 6
  20109297.173    -4719735.111 7  -3613328.751 9
  23369861.649     2843410.158 5   2193161.392 3
  23072380.978    -8039271.325 5  -6168896.032 5
 94  1 19 18  8 29.9970000  0  6 25  1 14 15 21 29
  19967429.173    -4388133.337 7  -3360070.649 9
  22657628.782     2266991.867 6   1745136.207 6
  22037781.767   -10270617.868 6  -7902585.802 6
  20102474.392    -4755556.351 7  -3641241.428 9
  23378429.306     2888414.971 5   2228229.870 2
  23050840.462    -8152478.278 5  -6257109.218 5
 94  1 19 18  8 59.9970000  0  6 25  1 14 15 21 29
  19961111.415    -4421324.879 7  -3385934.206 9
  22663375.196     2297188.590 6   1768666.026 6
  22013327.642   -10399116.997 6  -8002714.975 6
  20095785.149    -4790722.220 7  -3668643.430 8
  23387032.985     2933655.490 5   2263482.001 2
  23029332.438    -8265500.913 5  -6345178.805 4
 94  1 19 18  9 29.9970000  0  6 25  1 14 15 21 29
  19954907.462    -4453913.875 7  -3411328.237 9
  22669130.134     2327435.033 6   1792234.593 6
  21988896.353   -10527505.306 6  -8102757.815 6
  20089222.564    -4825226.711 7  -3695530.067 9
  23395692.673     2979136.248 5   2298921.381 4
  23007857.985    -8378339.151 5  -6433104.728 5
 94  1 19 18  9 59.9970000  0  6 25  1 14 15 21 29
  19948819.673    -4485909.369 7  -3436259.808 9
  22674895.532     2357728.573 6   1815839.861 6
  21964480.157   -10655811.206 6  -8202736.412 6
  20082780.313    -4859075.318 7  -3721905.629 9
  23404388.743     3024851.329 4   2334543.299 3
  22986415.407    -8491012.746 5  -6520902.326 5
 94  1 19 18 10 29.9970000  0  6 25  1 14 15 21 29
  19942844.860    -4517316.510 7  -3460732.915 9
  22680666.798     2388065.211 6   1839478.701 6
  21940075.353   -10784060.306 6  -8302670.784 6
  20076459.946    -4892270.010 7  -3747771.644 9
  23413130.267     3070786.097 5   2370336.443 4
  22965011.751    -8603516.773 5  -6608567.789 5
 94  1 19 18 10 59.9970000  0  6 25  1 14 15 21 29
  19936980.509    -4548135.679 7  -3484747.868 9
  22686453.134     2418458.614 6   1863161.776 6
  21915682.735   -10912251.880 6  -8402560.307 6
  20070266.118    -4924810.997 7  -3773128.285 9
  23421913.368     3116932.966 5   2406294.872 2
  22943630.204    -8715852.575 5  -6696102.179 5
 94  1 19 18 11 29.9970000  0  6 25  1 14 15 21 29
  19931225.876    -4578377.316 7  -3508312.785 9
  22692244.251     2448899.314 6   1886881.714 6
  21891302.439   -11040369.191 6  -8502391.966 6
  20064197.321    -4956700.192 7  -3797977.037 9
  23430729.438     3163294.364 4   2442420.416 3
  22922287.024    -8828019.403 5  -6783504.896 5
 94  1 19 18 11 59.9970000  0  6 25  1 14 15 21 29
  19925579.657    -4608051.374 7  -3531435.443 9
  22698045.907     2479382.187 6   1910634.507 6
  21866940.313   -11168397.199 6  -8602154.036 6
  20058253.314    -4987936.349 7  -3822316.918 9
  23439598.649     3209864.521 4   2478708.685 2
  22900973.915    -8940023.672 5  -6870780.944 5
 94  1 19 18 12 29.9970000  0  6 25  1 14 15 21 29
  19920042.845    -4637152.342 7  -3554111.537 9
  22703850.657     2509895.185 6   1934410.781 6
  21842598.681   -11296312.885 6  -8701828.580 6
  20052432.063    -5018527.995 7  -3846154.585 9
  23448492.392     3256634.036 4   2515152.293 2
  22879688.657    -9051866.219 5  -6957930.994 5
 94  1 19 18 12 59.9970000  0  6 25  1 14 15 21 29
  19914616.251    -4665661.502 7  -3576326.486 9
  22709668.821     2540458.249 6   1958226.075 6
  21818285.110   -11424074.784 6  -8801383.300 6
  20046738.439    -5048457.608 7  -3869476.382 9
  23457431.345     3303625.139 4   2551768.542 1
  22858439.024    -9163543.144 5  -7044951.985 5
 94  1 19 18 13 29.9970000  0  6 25  1 14 15 21 29
  19909295.978    -4693610.629 7  -3598105.034 9
  22715485.204     2571028.747 6   1982047.145 5
  21793996.485   -11551714.467 6  -8900842.784 6
  20041165.610    -5077749.576 7  -3892301.315 9
  23466412.399     3350806.580 4   2588533.108 2
  22837213.063    -9275090.241 5  -7131871.786 5
 94  1 19 18 13 59.9970000  0  6 25  1 14 15 21 29
  19904081.446    -4721007.049 7  -3619452.914 9
  22721305.610     2601613.913 6   2005879.652 5
  21769728.829   -11679235.395 6  -9000209.719 6
  20035715.235    -5106408.231 7  -3914632.759 8
  23475430.790     3398169.950 4   2625439.445 2
  22816011.446    -9386506.858 5  -7218689.938 5
 94  1 19 18 14 29.9970000  0  6 25  1 14 15 21 29
  19898972.282    -4747858.224 7  -3640375.921 9
  22727125.431     2632202.776 6   2029715.051 5
  21745487.970   -11806634.540 6  -9099481.759 6
  20030381.399    -5134436.596 7  -3936473.068 9
  23484476.431     3445725.058 4   2662495.189 1
  22794834.759    -9497785.191 5  -7305400.343 5
 94  1 19 18 14 59.9970000  0  6 25  1 14 15 21 29
  19893965.485    -4774185.381 7  -3660890.599 9
  22732947.782     2662787.704 6   2053547.381 5
  21721261.501   -11933935.774 6  -9198677.507 6
  20025161.564    -5161838.624 7  -3957825.318 9
  23493565.821     3493468.679 4   2699697.829 2
  22773687.079    -9608929.172 5  -7392006.049 5
 94  1 19 18 15 29.9970000  0  6 25  1 14 15 21 29
  19889054.931    -4799975.944 7  -3680987.161 9
  22738769.720     2693386.099 6   2077390.199 5
  21697056.517   -12061136.000 6  -9297794.543 6
  20020073.314    -5188600.845 7  -3978679.015 9
  23502685.095     3541415.625 3   2737058.887 1
  22752564.790    -9719909.821 5  -7478484.464 5
 94  1 19 18 15 59.9970000  0  6 25  1 14 15 21 29
  19884252.056    -4825224.290 7  -3700661.208 9
  22744597.423     2724012.308 6   2101254.697 5
  21672870.220   -12188229.892 6  -9396828.716 6
  20015101.798    -5214724.016 7  -3999034.757 9
  23511850.126     3589577.123 3   2774587.178 1
  22731481.032    -9830721.400 5  -7564831.158 5
 94  1 19 18 16 29.9970000  0  6 25  1 14 15 21 29
  19879547.853    -4849935.998 7  -3719917.098 9
  22750430.267     2754661.744 6   2125137.293 6
  21648703.134   -12315234.852 6  -9495793.604 6
  20010249.649    -5240213.101 7  -4018896.402 9
  23521058.556     3637953.606 4   2812282.952 2
  22710421.915    -9941378.009 5  -7651057.090 5
 94  1 19 18 16 59.9970000  0  6 25  1 14 15 21 29
  19874953.376    -4874090.976 7  -3738739.175 9
  22756272.603     2785361.631 6   2149059.197 6
  21624552.024   -12442152.439 6  -9594690.397 6
  20005521.493    -5265060.715 7  -4038258.203 9
  23530301.720     3686539.227 3   2850141.710 1
  22689393.493   -10051880.941 5  -7737163.272 5
 94  1 19 18 17 29.9970000  0  6 25  1 14 15 21 29
  19870460.884    -4897687.370 7  -3757126.000 9
  22762121.892     2816100.779 6   2173011.689 6
  21600417.017   -12568973.573 6  -9693512.042 6
  20000916.048    -5289275.886 7  -4057127.189 9
  23539578.376     3735322.921 3   2888154.784 2
  22668392.899   -10162247.966 5  -7823163.523 5
 94  1 19 18 17 59.9970000  0  6 25  1 14 15 21 29
  19866080.829    -4920721.188 7  -3775074.441 9
  22767977.626     2846876.299 6   2196992.518 5
  21576307.071   -12695673.837 6  -9792239.494 6
  19996425.837    -5312849.959 7  -4075496.620 9
  23548910.860     3784309.897 3   2926326.290 1
  22647417.821   -10272473.451 5  -7909053.495 5
 94  1 19 18 18 29.9970000  0  6 25  1 14 15 21 29
  19861801.360    -4943204.592 7  -3792593.991 9
  22773836.134     2877659.515 6   2220979.346 5
  21552222.212   -12822249.068 6  -9890869.522 6
  19992063.274    -5335793.203 7  -4093374.493 9
  23558270.431     3833477.500 4   2964638.536 1
  22626468.579   -10382559.733 5  -7994835.008 5
 94  1 19 18 18 59.9970000  0  6 25  1 14 15 21 29
  19857624.610    -4965134.908 7  -3809682.574 9
  22779695.251     2908440.829 6   2244964.705 5
  21528163.571   -12948678.955 6  -9989386.289 6
  19987819.220    -5358108.344 7  -4110762.945 9
  23567655.665     3882811.991 3   3003080.810 1
  22605551.009   -10492487.239 5  -8080492.788 5
 94  1 19 18 19 29.9970000  0  7 25  1 14 15 21 29 22
  19853558.048    -4986518.095 7  -3826344.815 9
  22785552.626     2939223.356 6   2268950.992 5
  21504134.642   -13074945.172 6 -10087775.534 6
  19983691.220    -5379788.618 7  -4127656.686 9
  23577076.173     3932333.489 3   3041668.828 2
  22584667.173   -10602234.891 5  -8166010.415 5
  23630820.626          -0.13013
 94  1 19 18 19 59.9970000  0  7 25  1 14 15 21 29 22
  19849591.228    -5007371.826 7
  22791409.439     2970004.862 6   2292936.502 5
  21480134.860   -13201066.171 6 -10186051.594 6
  19979682.181    -5400843.435 7
  23586538.259     3982035.116 3   3080397.220 1
  22563816.689   -10711797.737 6  -8251384.042 5
  23605120.126     -135113.315 3        -0.08611
 94  1 19 18 20 29.9970000  0  7 25  1 14 15 21 29 22
  19845723.142    -5027704.077 7
  22797266.337     3000784.486 6   2316920.532 5
  21456157.173   -13327068.893 6 -10284235.512 6
  19975791.806    -5421287.620 7
  23596028.853     4031916.150 3   3119265.399 1
  22542998.845   -10821190.930 5  -8336625.464 5
  23579375.978     -270297.347 3   -105338.030 2
 94  1 19 18 20 59.9970000  0  7 25  1 14 15 21 29 22
  19841955.993    -5047501.338 7
  22803126.923     3031585.626 6   2340921.348 5
  21432201.235   -13452961.426 6 -10382333.555 6
  19972019.095    -5441110.045 7
  23605557.110     4082002.790 3   3158293.810 1
  22522217.970   -10930414.253 5  -8421734.520 5
  23553657.321     -405536.768 3   -210719.205 2
 94  1 19 18 21 29.9970000  0  7 25  1 14 15 21 29 22
  19838288.876    -5066766.361 7
  22808993.087     3062408.055 6   2364938.738 5
  21408263.493   -13578750.422 6 -10480350.928 6
  19968364.556    -5460309.892 7
  23615131.009     4132311.349 3   3197495.148 2
  22501464.282   -11039485.206 6  -8506724.856 5
  23527909.782     -540836.100 3   -316147.123 1
 94  1 19 18 21 59.9970000  0  7 25  1 14 15 21 29 22
  19834722.517    -5085496.426 7
  22814862.087     3093242.494 6   2388965.489 5
  21384345.759   -13704443.666 6 -10578293.692 6
  19964831.782    -5478892.237 7
  23624753.267     4182830.542 4   3236860.617 2
  22480732.868   -11148418.499 6  -8591607.941 5
  23502142.243     -676192.086 3   -421619.183 2
 94  1 19 18 22 29.9970000  0  7 25  1 14 15 21 29 22
  19831263.165    -5103674.602 7  -3917635.712 9
  22820731.314     3124088.687 6   2413001.388 5
  21360447.251   -13830028.521 6 -10676151.988 6
  19961415.368    -5496853.227 7  -4218876.027 8
  23634398.845     4233558.535 3   3276388.775 2
  22460028.438   -11257221.449 5  -8676389.429 5
  23476375.837     -811598.433 3   -527130.580 2
 94  1 19 18 22 59.9960000  0  7 25  1 14 15 21 29 22
  19827907.238    -5121310.557 7  -3931378.034 9
  22826603.629     3154943.728 6   2437044.190 5
  21336572.941   -13955486.682 6 -10773911.570 6
  19958117.543    -5514199.441 7  -4232392.582 9
  23644085.754     4284470.751 3   3316060.490 2
  22439343.215   -11365903.036 5  -8761076.340 5
  23450586.801     -947071.700 3   -632694.162 2
 94  1 19 18 23 29.9960000  0  6 25  1 14 15 29 22
  19824652.699    -5138421.866 7  -3944711.550 9
  22832474.684     3185806.636 6   2461093.115 5
  21312723.926   -14080814.946 6 -10871569.935 6
  19954927.715    -5530937.359 7  -4245435.149 9
  22418683.301   -11474474.700 5  -8845677.599 5
  23424798.355    -1082604.343 3   -738304.096 1
 94  1 19 18 23 59.9960000  0  6 25  1 14 15 29 22
  19821499.590    -5155000.065 7  -3957629.645 9
  22838351.137     3216686.653 6   2485155.375 5
  21288902.020   -14206002.289 6 -10969118.488 7
  19951857.426    -5547061.415 7  -4257999.373 9
  22398049.684   -11582916.838 5  -8930177.928 5
  23398998.731    -1218156.557 3   -843929.277 2
 94  1 19 18 24 29.9960000  0  6 25  1 14 15 29 22
  19818437.652    -5171071.584 7  -3970152.926 9
  22844231.043     3247583.611 5   2509230.826 5
  21265106.043   -14331052.773 6 -11066560.408 6
  19948908.426    -5562584.869 7  -4270095.597 9
  22377432.895   -11691243.859 5  -9014588.556 5
  23373218.371    -1353735.602 3   -949575.420 4
 94  1 19 18 24 59.9960000  0  6 25  1 14 15 29 22
  19815477.082    -5186641.988 7  -3982285.730 9
  22850112.184     3278493.190 5   2533316.101 5
  21241337.332   -14455964.013 6 -11163893.809 6
  19946065.176    -5577504.068 7  -4281720.979 9
  22356843.480   -11799443.628 5  -9098900.026 5
  23347404.387          -0.11213
 94  1 19 18 25 29.9960000  0  6 25  1 14 15 29 22
  19812609.254    -5201705.056 7  -3994023.209 9
  22855995.863     3309406.060 5   2557403.956 5
  21217589.652   -14580750.415 6 -11261129.949 7
  19943344.512    -5591812.073 7  -4292870.101 9
  22336283.793   -11907500.812 5  -9183100.389 5
  23321609.356     -135590.860 4
 94  1 19 18 25 59.9960000  0  6 25  1 14 15 29 22
  19809841.215    -5216265.452 7  -4005368.992 9
  22861877.434     3340318.412 6   2581491.412 5
  21193864.590   -14705420.900 6 -11358275.760 7
  19940735.801    -5605511.600 7  -4303545.078 9
  22315748.777   -12015413.448 6  -9267188.120 5
  23295799.949     -271205.593 3        -0.09312
 94  1 19 18 26 29.9960000  0  6 25  1 14 15 29 22
  19807164.051    -5230320.082 7  -4016320.671 9
  22867759.605     3371226.371 6   2605575.438 5
  21170164.176   -14829968.310 6 -11455325.664 7
  19938250.301    -5618598.207 7  -4313742.471 9
  22295239.895   -12123182.193 5  -9351163.732 5
  23269990.676     -406848.452 3   -105695.794 2
 94  1 19 18 26 59.9960000  0  6 25  1 14 15 29 22
  19804592.910    -5243844.551 7  -4026859.236 9
  22873637.090     3402118.371 6   2629647.036 5
  21146485.918   -14954402.848 6 -11552287.623 6
  19935872.902    -5631068.084 7  -4323459.282 9
  22274762.707   -12230792.133 5  -9435015.591 5
  23244171.723     -542515.538 3   -211410.344 3
 94  1 19 18 27 29.9960000  0  6 25  1 14 15 29 22
  19802117.105    -5256852.185 7  -4036995.068 9
  22879512.332     3432992.083 5   2653704.370 5
  21122827.465   -15078730.048 6 -11649165.945 7
  19933613.496    -5642936.538 7  -4332707.455 9
  22254313.254   -12338249.001 6  -9518748.153 5
  23218344.246     -678219.594 3   -317153.631 2
 94  1 19 18 27 59.9960000  0  6 25  1 14 15 29 22
  19799741.793    -5269332.998 7  -4046720.401 9
  22885389.465     3463861.301 5   2677758.207 5
  21099193.934   -15202919.740 6 -11745937.117 7
  19931471.168    -5654209.920 7  -4341491.946 9
  22233895.543   -12445549.414 6  -9602358.795 5
  23192519.652     -813960.031 3   -422925.215 3
 94  1 19 18 28 29.9960000  0  6 25  1 14 15 29 22
  19797471.957    -5281253.648 7  -4056009.243 9
  22891261.527     3494733.374 5   2701814.267 5
  21075592.902   -15326952.213 6 -11842585.780 7
  19929442.434    -5664879.983 7  -4349806.312 9
  22213506.981   -12552682.247 5  -9685838.875 5
  23166687.215     -949699.408 4   -528695.897 3
 94  1 19 18 28 59.9960000  0  6 25  1 14 15 29 22
  19795305.871    -5292631.065 7  -4064874.776 9
  22897143.332     3525629.583 5   2725889.151 5
  21052021.340   -15450820.642 6 -11939106.619 7
  19927526.223    -5674948.992 7  -4357652.326 9
  22193154.395   -12659643.290 6  -9769185.090 5
  23140858.254    -1085435.113 4   -634463.720 3
 94  1 19 18 29 29.9960000  0  6 25  1 14 15 29 22
  19793242.066    -5303484.236 7  -4073331.805 9
  22903028.637     3556561.690 5   2749991.999 5
  21028486.504   -15574495.880 6 -12035476.922 7
  19925723.199    -5684415.745 7  -4365029.039 9
  22172830.723   -12766440.383 6  -9852403.541 6
  23115033.363    -1221155.132 4   -740219.291 2
 94  1 19 18 29 59.9960000  0  6 25  1 14 15 29 22
  19791275.738    -5313818.609 7  -4081384.573 9
  22908919.629     3587518.412 5   2774114.032 5
  21004985.301   -15697992.498 6 -12131708.042 7
  19924034.605    -5693284.355 7  -4371939.683 8
  22152533.629   -12873095.359 5  -9935511.247 5
  23089205.129    -1356857.447 3   -845961.085 2
 94  1 19 18 30 29.9960000  0  6 25  1 14 15 29 22
  19789400.066    -5323670.564 7  -4089061.434 9
  22914814.309     3618480.626 5   2798240.339 5
  20981515.496   -15821338.465 6 -12227821.775 7
  19922460.637    -5701559.629 7  -4378387.986 9
  22132261.895   -12979625.322 5 -10018521.560 5
  23063388.527    -1492549.010 5   -951694.491 2
 94  1 19 18 30 59.9960000  0  6 25  1 14 15 29 22
  19787610.520    -5333068.276 7  -4096384.341 9
  22920704.777     3649430.822 5   2822357.278 5
  20958070.660   -15944537.963 6 -12323821.375 7
  19920998.066    -5709254.430 7  -4384383.965 9
  22112012.020   -13086045.457 6 -10101446.267 6
  23037568.277    -1628259.940 5  -1057443.027 2
 94  1 19 18 31 29.9960000  0  6 25  1 14 15 29 22
  19785916.973    -5341968.731 7  -4103319.772 9
  22926588.043     3680361.497 5   2846459.009 5
  20934659.004   -16067566.178 6 -12419687.516 7
  19919649.191    -5716350.605 7  -4389913.478 9
  22091786.059   -13192337.404 6 -10184271.103 5
  23011734.441    -1763971.799 4  -1163192.275 3
 94  1 19 18 31 59.9960000  0  6 25  1 14 15 29 22
  19784319.606    -5350379.267 7  -4109873.445 9
  22932466.832     3711260.838 5   2870536.328 5
  20911274.004   -16190444.758 6 -12515437.045 7
  19918405.223    -5722863.458 7  -4394988.460 8
  22071581.691   -13298506.011 5 -10266999.841 5
  22985905.668    -1899701.701 4  -1268955.645 4
 94  1 19 18 32 29.9960000  0  6 25  1 14 15 29 22
  19782815.973    -5358285.482 7  -4116034.146 9
  22938343.535     3742143.455 5   2894600.627 5
  20887926.441   -16313144.068 6 -12611046.904 7
  19917277.551    -5728784.694 7  -4399602.445 8
  22051406.106   -13404531.657 5 -10349617.165 5
  22960073.090    -2035441.238 3  -1374726.518 3
 94  1 19 18 32 59.9960000  0  6 25  1 14 15 29 22
  19781404.074    -5365686.720 7  -4121801.349 9
  22944217.934     3773012.172 5   2918654.083 5
  20864611.801   -16435665.159 6 -12706517.877 7
  19916265.887    -5734125.798 7  -4403764.378 9
  22031256.934   -13510413.628 6 -10432122.538 5
  22934243.324    -2171185.370 4  -1480501.007 3
 94  1 19 18 33 29.9960000  0  6 25  1 14 15 29 22
  19780093.426    -5372589.753 7  -4127180.347 9
  22950093.746     3803878.576 5   2942705.735 5
  20841330.668   -16558014.264 6 -12801854.838 7
  19915355.012    -5738887.625 7  -4407474.923 8
  22011133.918   -13616147.379 6 -10514512.422 6
  22908415.918    -2306917.979 4  -1586266.531 4
 94  1 19 18 33 59.9960000  0  6 25  1 14 15 29 22
  19778875.301    -5378981.491 7  -4132160.933 9
  22955975.020     3834784.749 5   2966788.375 5
  20818084.988   -16680167.156 6 -12897038.909 7
  19914567.379    -5743044.480 7  -4410714.066 8
  21991049.090   -13721702.594 6 -10596763.200 5
  22882594.457    -2442605.475 5  -1691996.885 2
 94  1 19 18 34 29.9960000  0  6 25  1 14 15 29 22
  19777755.887    -5384873.933 7  -4136752.454 9
  22961860.121     3865722.786 5   2990895.843 5
  20794877.254   -16802125.243 6 -12992071.184 7
  19913887.316    -5746601.286 7  -4413485.642 8
  21970997.559   -13827080.846 6 -10678876.106 6
  22856782.387    -2578242.492 4  -1797687.966 3
 94  1 19 18 34 59.9960000  0  6 25  1 14 15 29 22
  19776724.637    -5390282.371 7  -4140966.835 9
  22967749.949     3896681.262 5   3015019.243 5
  20771703.105   -16923901.218 7 -13086961.556 7
  19913328.965    -5749565.912 7  -4415795.779 8
  21950976.395   -13932287.622 5 -10760855.351 6
  22830984.777    -2713828.488 5  -1903339.270 3
 94  1 19 18 35 29.9960000  0  6 25  1 14 15 29 22
  19775791.035    -5395195.875 7  -4144795.560 9
  22973648.949     3927645.844 5   3039147.401 5
  20748563.785   -17045501.765 6 -13181715.229 7
  19912868.121    -5751942.405 7  -4417647.632 8
  21930985.199   -14037335.757 6 -10842710.995 5
  22805193.270    -2849367.943 5  -2008954.318 4
 94  1 19 18 35 59.9960000  0  6 25  1 14 15 29 22
  19774944.957    -5399631.944 7  -4148252.258 9
  22979531.551     3958586.531 5   3063256.933 5
  20725453.051   -17166948.869 6 -13276349.329 7
  19912529.199    -5753754.191 7  -4419059.444 8
  21911020.816   -14142247.977 6 -10924460.770 5
  22779405.231    -2984879.027 5  -2114547.242 3
 94  1 19 18 36 29.9960000  0  6 25  1 14 15 29 22
  19774193.418    -5403586.173 7  -4151333.491 9
  22985413.168     3989498.829 5   3087344.354 5
  20702371.332   -17288242.088 7 -13370863.533 7
  19912295.457    -5755000.301 7  -4420030.474 8
  21891083.449   -14247034.270 5 -11006112.379 6
  22753623.730    -3120358.923 5  -2220115.870 2
 94  1 19 18 36 59.9960000  0  6 25  1 14 15 29 22
  19773539.027    -5407031.353 7  -4154018.065 9
  22991297.215     4020398.186 5   3111421.689 5
  20679319.168   -17409375.968 7 -13465253.561 7
  19912164.637    -5755667.982 7  -4420550.795 8
  21871167.996   -14351694.762 6 -11087665.965 6
  22727857.215    -3255789.946 5  -2325646.422 2
 94  1 19 18 37 29.9960000  0  6 25  1 14 15 29 22
  19772978.113    -5409976.547 7  -4156313.048 9
  22997174.676     4051279.453 5   3135484.927 5
  20656298.723   -17530364.486 7 -13559530.330 7
  19912143.801    -5755773.775 7
  21851269.160   -14456253.224 6 -11169140.081 6
  22702090.129    -3391182.212 5  -2431146.733 2
 94  1 19 18 37 59.9960000  0  6 25  1 14 15 29 22
  19772513.496    -5412434.675 7  -4158228.490 9
  23003046.488     4082155.238 5   3159543.887 5
  20633306.504   -17651185.485 7 -13653676.559 7
  19912229.684    -5755311.095 7
  21831395.004   -14560703.706 6 -11250530.017 6
  22676333.246    -3526515.549 5  -2536601.155 3
 94  1 19 18 38 29.9960000  0  6 25  1 14 15 29 22
  19772135.238    -5414407.259 7  -4159765.595 9
  23008923.762     4113023.622 5   3183597.072 5
  20610348.254   -17771830.377 7 -13747685.565 7
  19912423.723    -5754283.495 7  -4419472.077 8
  21811533.215   -14665054.334 6 -11331842.168 6
  22650591.535    -3661785.878 5  -2642006.490 2
 94  1 19 18 38 59.9960000  0  6 25  1 14 15 29 22
  19771853.566    -5415901.270 7  -4160929.778 9
  23014793.902     4143895.794 5   3207653.219 5
  20587425.316   -17892285.456 7 -13841546.660 7
  19912729.715    -5752689.551 7  -4418230.080 8
  21791701.926   -14769288.662 6 -11413063.678 6
  22624864.012    -3796979.478 5  -2747352.019 3
 94  1 19 18 39 29.9960000  0  6 25  1 14 15 29 22
  19771655.066    -5416932.732 7  -4161733.539 9
  23020669.715     4174767.018 5   3231708.631 5
  20564544.020   -18012531.065 7 -13935244.538 8
  19913140.270    -5750535.793 7  -4416551.865 8
  21771888.863   -14873398.798 6 -11494188.439 6
  22599153.168    -3932101.919 5  -2852642.085 4
 94  1 19 18 39 59.9960000  0  6 25  1 14 15 29 22
  19771547.246    -5417491.448 7  -4162168.930 9
  23026549.895     4205654.893 5   3255776.995 5
  20541706.598   -18132539.147 7 -14028757.323 8
  19913659.441    -5747803.400 7  -4414422.764 8
  21752107.293   -14977354.978 6 -11575193.223 6
  22573462.598    -4067142.889 5  -2957868.705 4
 94  1 19 18 40 29.9950000  0  6 25  1 14 15 29 22
  19771528.788    -5417585.270 7
  23032430.694     4236549.817 5   3279850.859 4
  20518912.265   -18252328.651 7 -14122099.785 8
  19914288.991    -5744509.550 7  -4411856.158 8
  21732352.397   -15081158.932 6 -11656079.369 5
  22547765.913    -4202126.200 5  -3063050.407 3
 94  1 19 18 40 59.9950000  0  6 25  1 14 15 29 22
  19771598.960    -5417220.040 7
  23038308.108     4267453.876 5   3303931.855 4
  20496156.155   -18371912.728 7 -14215282.185 8
  19915022.093    -5740659.148 7  -4408855.876 8
  21712629.249   -15184814.581 6 -11736849.985 6
  22522094.296    -4337060.900 5  -3168194.220 4
 94  1 19 18 41 29.9950000  0  6 25  1 14 15 29 22
  19771761.398    -5416374.008 7  -4161298.268 9
  23044196.179     4298387.885 5   3328036.185 5
  20473441.327   -18491272.769 7 -14308289.996 8
  19915859.405    -5736239.976 7  -4405412.403 8
  21692937.421   -15288300.096 6 -11817488.007 6
  22496427.546    -4471936.009 5  -3273291.629 3
 94  1 19 18 41 59.9950000  0  6 25  1 14 15 29 22
  19772009.124    -5415057.621 7  -4160272.531 9
  23050086.210     4329337.437 5   3352152.614 5
  20450766.366   -18610438.345 7 -14401146.280 8
  19916809.398    -5731270.297 7  -4401539.955 8
  21673272.991   -15391628.067 6 -11898003.243 6
  22470771.046    -4606763.255 5  -3378351.764 2
 94  1 19 18 42 29.9950000  0  6 25  1 14 15 29 22
  19772351.335    -5413267.571 7  -4158877.711 9
  23055977.304     4360296.265 5   3376276.278 4
  20428127.429   -18729405.124 7 -14493847.661 8
  19917856.937    -5725750.744 7  -4397239.027 8
  21653639.866   -15494797.205 6 -11978394.738 6
  22445123.663    -4741526.928 5  -3483362.353 3
 94  1 19 18 42 59.9950000  0  6 25  1 14 15 29 22
  19772781.421    -5411001.293 7  -4157111.805 9
  23061870.312     4391264.654 5   3400407.415 4
  20405526.835   -18848169.749 7 -14586391.519 8
  19919012.835    -5719677.864 7  -4392506.948 8
  21634039.780   -15597802.979 6 -12058658.954 6
  22419494.640    -4876216.712 5  -3588315.374 3
 94  1 19 18 43 29.9950000  0  6 25  1 14 15 29 22
  19773306.218    -5408253.225 7  -4154970.471 9
  23067767.023     4422248.716 5   3424550.751 4
  20382965.116   -18966735.341 7 -14678780.289 8
  19920274.608    -5713051.257 7  -4387343.381 8
  21614468.437   -15700653.103 6 -12138801.861 6
  22393870.679    -5010837.717 5  -3693214.810 4
 94  1 19 18 43 59.9950000  0  6 25  1 14 15 29 22
  19773917.398    -5405030.546 7  -4152459.307 9
  23073658.382     4453230.138 5   3448692.035 4
  20360440.343   -19085103.619 7 -14771015.301 8
  19921641.476    -5705874.804 6  -4381751.358 8
  21594921.882   -15803371.012 6 -12218841.746 6
  22368276.546    -5145373.741 5  -3798048.035 4
 94  1 19 18 44 29.9950000  0  6 25  1 14 15 29 22
  19774620.937    -5401350.938 7  -4149592.092 9
  23079553.632     4484205.370 5   3472828.481 5
  20337952.030   -19203283.360 7 -14863103.412 8
  19923106.140    -5698156.582 7  -4375737.186 8
  21575396.921   -15905968.924 6 -12298788.131 6
  22342688.890    -5279825.737 5  -3902815.786 4
 94  1 19 18 44 59.9950000  0  6 25  1 14 15 29 22
  19775406.593    -5397212.421 7  -4146367.292 9
  23085450.358     4515180.863 5   3496965.137 4
  20315501.069   -19321261.577 7 -14955034.479 8
  19924684.101    -5689894.480 7  -4369299.203 8
  21555895.530   -16008445.569 6 -12378640.034 6
  22317121.905    -5414181.935 5  -4007508.879 4
 94  1 19 18 45 29.9950000  0  6 25  1 14 15 29 22
  19776281.085    -5392616.642 7  -4142786.180 9
  23091345.741     4546150.326 5   3521097.104 4
  20293094.866   -19439009.924 7 -15046786.426 8
  19926358.585    -5681087.030 7  -4362436.282 8
  21536418.460   -16110802.961 6 -12458399.008 6
  22291576.398    -5548424.349 5  -4112113.319 4
 94  1 19 18 45 59.9950000  0  6 25  1 14 15 29 22
  19777240.812    -5387583.313 7  -4138864.123 9
  23097232.327     4577093.189 5   3545208.334 4
  20270731.530   -19556526.586 7 -15138357.841 8
  19928132.421    -5671744.367 6  -4355156.307 8
  21516966.233   -16213022.994 6 -12538050.982 6
  22266052.968    -5682551.529 5  -4216627.954 4
 94  1 19 18 46 29.9950000  0  6 25  1 14 15 29 22
  19778283.593    -5382106.656 7  -4134596.615 9
  23103115.273     4608018.910 5   3569306.218 5
  20248416.398   -19673798.276 7 -15229738.370 8
  19930012.015    -5661864.425 6  -4347457.672 8
  21497546.515   -16315082.707 6 -12617577.998 6
  22240546.515    -5816570.232 5  -4321058.030 2
 94  1 19 18 46 59.9950000  0  6 25  1 14 15 29 22
  19779414.163    -5376165.753 7  -4129967.356 9
  23108997.194     4638925.111 5   3593388.872 5
  20226151.640   -19790802.097 7 -15320910.160 8
  19931996.468    -5651441.439 7  -4339335.888 8
  21478157.210   -16416981.477 6 -12696979.615 6
  22215067.171    -5950465.866 5  -4425392.221 4
 94  1 19 18 47 29.9950000  0  6 25  1 14 15 29 22
  19780633.288    -5369757.585 7  -4124973.990 9
  23114875.632     4669819.568 5   3617462.396 4
  20203931.796   -19907555.104 7 -15411886.518 8
  19934083.460    -5640477.977 7  -4330792.961 8
  21458795.733   -16518714.451 6 -12776252.048 6
  22189612.827    -6084234.677 5  -4529627.557 5
 94  1 19 18 47 59.9950000  0  6 25  1 14 15 29 22
  19781942.921    -5362877.996 7  -4119613.292 9
  23120757.757     4700711.006 5   3641533.568 4
  20181762.069   -20024066.716 7 -15502674.773 8
  19936273.796    -5628967.615 6  -4321823.872 8
  21439468.757   -16620274.111 6 -12855389.446 6
  22164182.491    -6217865.296 5  -4633755.187 4
 94  1 19 18 48 29.9950000  0  6 25  1 14 15 29 22
  19783336.944    -5355548.021 7  -4113901.643 9
  23126626.874     4731586.077 5   3665591.982 2
  20159634.624   -20140346.402 7 -15593282.296 8
  19938563.312    -5616929.380 6  -4312443.453 8
  21420167.374   -16721710.136 6 -12934430.511 6
  22138781.312    -6351363.437 5  -4737779.577 5
 94  1 19 18 48 59.9950000  0  6 25  1 14 15 29 22
  19784816.491    -5347777.283 7  -4107846.548 9
  23132505.796     4762443.185 5   3689636.386 4
  20137549.163   -20256403.068 7 -15683716.051 8
  19940954.171    -5604365.377 6  -4302653.343 8
  21400886.437   -16823027.901 6 -13013379.391 6
  22113406.108    -6484719.695 5  -4841693.402 5
 94  1 19 18 49 29.9950000  0  6 25  1 14 15 29 22
  19786374.913    -5339577.338 7  -4101457.000 9
  23138376.530     4793300.193 5   3713680.730 4
  20115508.843   -20372228.701 7 -15773969.774 8
  19943449.038    -5591268.523 6  -4292448.041 8
  21381633.437   -16924210.786 6 -13092223.189 6
  22088054.546    -6617940.523 5  -4945501.677 5
 94  1 19 18 49 59.9950000  0  6 25  1 14 15 29 22
  19788014.093    -5330963.095 7  -4094744.639 9
  23144245.390     4824157.109 5   3737724.996 4
  20093515.460   -20487807.651 7 -15864031.281 8
  19946046.030    -5577645.858 7  -4281833.005 8
  21362397.429   -17025274.262 6 -13170973.955 6
  22062722.351    -6751043.484 5  -5049218.101 5
 94  1 19 18 50 29.9950000  0  6 25  1 14 15 29 22
  19789732.413    -5321939.509 7  -4087713.306 9
  23150124.499     4855023.123 5   3761776.344 4
  20071566.507   -20603143.118 7 -15953903.062 8
  19948731.108    -5563511.165 7  -4270819.003 8
  21343192.812   -17126224.814 6 -13249636.709 6
  22037412.843    -6884055.631 5  -5152863.768 5
 94  1 19 18 50 59.9950000  0  6 25  1 14 15 29 22
  19791532.390    -5312479.718 7  -4080342.074 9
  23155999.554     4885921.024 5   3785852.534 4
  20049666.124   -20718232.066 7 -16043582.752 8
  19951518.163    -5548858.298 7  -4259401.208 8
  21324007.499   -17227030.743 6 -13328186.784 6
  22012121.351    -7016967.922 5  -5256431.628 5
 94  1 19 18 51 29.9950000  0  6 25  1 14 15 29 22
  19793416.257    -5302573.480 7  -4072622.961 9
  23161894.046     4916858.228 5   3809959.343 4
  20027814.335   -20833070.143 7 -16133066.962 8
  19954409.765    -5533688.771 7  -4247580.825 8
  21304852.710   -17327686.192 6 -13406619.603 6
  21986849.085    -7149766.641 5  -5359910.975 5
 94  1 19 18 51 59.9950000  0  6 25  1 14 15 29 22
  19795388.851    -5292220.745 7  -4064555.926 9
  23167780.632     4947820.592 5   3834085.763 3
  20006006.304   -20947667.006 7 -16222363.210 8
  19957387.226    -5518012.366 7  -4235365.484 8
  21285724.929   -17428198.970 6 -13484941.232 6
  21961603.507    -7282434.356 5  -5463288.280 5
 94  1 19 18 52 29.9950000  0  6 25  1 14 15 29 22
  19797442.772    -5281411.643 7  -4056133.285 9
  23173666.757     4978795.036 5   3858221.597 4
  19984243.140   -21062033.791 7 -16311480.177 8
  19960472.616    -5501828.356 7  -4222754.603 8
  21266627.577   -17528562.779 6 -13563146.791 6
  21936390.882    -7414943.249 5  -5566541.859 5
 94  1 19 18 52 59.9950000  0  6 25  1 14 15 29 22
  19799587.569    -5270155.257 7  -4047362.112 9
  23179567.218     5009762.523 5   3882352.012 5
  19962523.015   -21176170.682 7 -16400418.003 8
  19963642.702    -5485138.517 6  -4209749.573 8
  21247556.155   -17628786.626 6 -13641243.287 6
  21911205.398    -7547268.840 5  -5669652.588 5
 94  1 19 18 53 29.9950000  0  6 25  1 14 15 29 22
  19801808.530    -5258472.434 7  -4038258.644 9
  23185462.265     5040717.141 5   3906472.399 4
  19940850.148   -21290065.448 7 -16489167.167 8
  19966920.054    -5467939.365 6  -4196347.661 8
  21228507.858   -17728888.122 6 -13719244.447 6
  21886060.272    -7679409.695 5  -5772619.396 5
 94  1 19 18 53 59.9950000  0  6 25  1 14 15 29 22
  19804113.093    -5246364.609 7  -4028824.005 9
  23191348.390     5071654.067 5   3930578.999 4
  19919224.819   -21403704.231 7 -16577716.864 8
  19970289.007    -5450234.337 6  -4182551.585 8
  21209479.538   -17828870.736 6 -13797152.980 6
  21860949.937    -7811374.491 5  -5875449.030 5
 94  1 19 18 54 29.9950000  0  6 25  1 14 15 29 22
  19806499.030    -5233830.375 7  -4019057.096 9
  23197233.437     5102576.880 5   3954674.598 2
  19897653.140   -21517071.604 7 -16666055.072 8
  19973749.991    -5432024.224 6  -4168361.914 8
  21190480.538   -17928722.981 6 -13874959.933 6
  21835865.116    -7943177.456 5  -5978152.584 5
 94  1 19 18 54 59.9950000  0  6 25  1 14 15 29 22
  19808961.569    -5220879.875 7  -4008965.834 9
  23203115.702     5133489.087 5   3978761.937 3
  19876131.077   -21630166.960 7 -16754181.319 8
  19977315.163    -5413316.711 6  -4153784.667 8
  21171507.147   -18028441.072 6 -13952662.335 6
  21810810.952    -8074833.237 5  -6080741.454 5
 94  1 19 18 55 29.9950000  0  6 25  1 14 15 29 22
  19811505.288    -5207511.588 7  -3998549.015 9
  23208991.421     5164400.820 5   4002848.904 3
  19854666.093   -21742969.113 7 -16842079.094 8
  19980971.155    -5394110.164 6  -4138818.566 8
  21152556.733   -18128004.520 6 -14030244.226 6
  21785789.366    -8206341.279 5  -6183215.230 5
 94  1 19 18 55 59.9950000  0  6 25  1 14 15 29 22
  19814128.647    -5193727.643 7  -3987808.311 9
  23214885.460     5195299.943 5   4026926.051 3
  19833253.718   -21855486.473 7 -16929754.952 8
  19984716.663    -5374417.904 6  -4123473.983 8
  21133641.952   -18227411.402 6 -14107704.156 6
  21760792.827    -8337710.805 5  -6285581.078 5
 94  1 19 18 56 29.9950000  0  6 25  1 14 15 29 22
  19816832.155    -5179519.859 7  -3976737.339 9
  23220762.140     5226203.767 5   4051006.863 4
  19811899.499   -21967708.978 7 -17017201.048 8
  19988559.194    -5354216.354 6  -4107732.551 7
  21114756.507   -18326650.399 6 -14185033.238 6
  21735825.944    -8468907.023 5  -6387811.887 5
 94  1 19 18 56 59.9950000  0  6 25  1 14 15 29 22
  19819616.218    -5164896.525 7  -3965342.567 9
  23226640.265     5257111.758 5   4075090.935 3
  19790597.804   -22079643.793 7 -17104422.975 8
  19992498.773    -5333512.324 6  -4091599.572 7
  21095901.101   -18425741.781 6 -14262247.284 6
  21710893.382    -8599909.604 5  -6489891.818 5
 94  1 19 18 57 29.9950000  0  6 25  1 14 15 29 22
  19822478.780    -5149855.185 7  -3953622.072 9
  23232523.116     5288036.711 5   4099188.199 3
  19769353.608   -22191280.959 7 -17191412.974 8
  19996533.608    -5312306.078 6  -4075075.253 7
  21077072.319   -18524693.871 6 -14339352.792 6
  21686005.960    -8730714.353 5  -6591817.593 5
 94  1 19 18 57 59.9940000  0  6 25  1 14 15 29 22
  19825416.955    -5134411.101 7  -3941587.758 9
  23238413.291     5318967.676 5   4123290.150 4
  19748161.596   -22302652.718 7 -17278196.153 8
  20000662.908    -5290619.274 7  -4058176.481 7
  21058261.510   -18623533.757 6 -14416370.868 6
  21661148.244    -8861326.981 5  -6693593.663 5
 94  1 19 18 58 29.9940000  0  6 25  1 14 15 29 22
  19828431.143    -5118568.354 7  -3929242.799 9
  23244301.775     5349916.166 5   4147405.770 3
  19727016.854   -22413764.663 7 -17364776.883 8
  20004881.955    -5268454.269 7  -4040905.086 7
  21039473.994   -18722259.127 6 -14493299.703 6
  21636331.908    -8991741.947 5  -6795215.700 5
 94  1 19 18 58 59.9940000  0  5 25 14 15 29 22
  19831525.658    -5102310.975 7  -3916574.749 9
  19705928.447   -22524593.821 7 -17451137.261 8
  20009189.783    -5245809.498 6  -4023259.841 8
  21020715.502   -18820840.753 6 -14570116.544 6
  21611557.994    -9121944.367 5  -6896672.121 5
 94  1 19 18 59 29.9940000  0  5 25 14 15 29 22
  19834696.846    -5085652.041 7  -3903593.801 9
  19684889.799   -22635141.028 7 -17537277.938 8
  20013588.518    -5222693.543 6  -4005247.437 7
  21001984.924   -18919277.280 6 -14646820.315 6
  21586817.166    -9251947.555 5  -6997973.277 5
 94  1 19 18 59 59.9940000  0  5 25 14 15 29 22
  19837940.908    -5068610.059 7  -3890314.378 9
  19663905.549   -22745410.974 7 -17623202.568 8
  20018071.736    -5199120.003 7  -3986878.482 7
  20983279.440   -19017578.471 6 -14723418.630 6
  21562118.549    -9381753.456 5  -7099120.694 5
 94  1 19 19  0 29.9940000  0  5 25 14 15 29 22
  19841259.650    -5051164.256 7  -3876720.293 9
  19642984.299   -22855366.006 7 -17708881.809 8
  20022649.705    -5175069.279 6  -3968137.698 7
  20964602.119   -19115716.507 6 -14799889.809 6
  21537455.650    -9511344.166 5  -7200100.431 5
 94  1 19 19  0 59.9940000  0  5 25 14 15 29 22
  19844654.283    -5033316.038 7  -3862812.645 9
  19622118.932   -22965013.800 7 -17794321.636 8
  20027318.190    -5150554.504 6  -3949035.323 7
  20945955.127   -19213710.730 6 -14876248.922 6
  21512832.127    -9640744.461 5  -7300931.766 5
 94  1 19 19  1 29.9940000  0  5 25 14 15 29 22
  19848128.994    -5015074.447 7  -3848598.460 9
  19601312.541   -23074355.579 7 -17879523.021 8
  20032064.869    -5125580.901 6  -3929575.407 7
  20927329.182   -19311574.929 6 -14952506.714 6
  21488239.565    -9769962.696 5  -7401621.224 5
 94  1 19 19  1 59.9940000  0  5 25 14 15 29 22
  19851674.838    -4996426.780 7  -3834067.860 9
  19580560.635   -23183394.587 7 -17964488.475 8
  20036909.119    -5100142.264 6  -3909753.131 7
  20908737.549   -19409301.435 6 -15028657.206 6
  21463688.525    -9898989.853 5  -7502161.796 5
 94  1 19 19  2 29.9940000  0  5 25 14 15 29 22
  19855298.838    -4977386.560 7  -3819231.374 9
  19559865.807   -23292154.768 7 -18049236.661 8
  20041833.744    -5074257.677 6  -3889583.366 7
  20890164.682   -19506894.047 6 -15104703.390 6
  21439167.744   -10027845.146 5  -7602568.447 5
 94  1 19 19  2 59.9940000  0  5 25 14 15 29 22
  19858996.041    -4957957.326 7  -3804091.763 9
  19539221.877   -23400638.209 7 -18133769.202 8
  20046845.080    -5047925.635 6  -3869064.929 7
  20871619.369   -19604346.370 6 -15180640.216 6
  21414682.924   -10156521.212 6  -7702835.423 5
 94  1 19 19  3 29.9940000  0  5 25 14 15 29 22
  19862765.627    -4938148.781 7  -3788656.577 9
  19518633.283   -23508836.079 7 -18218079.217 8
  20051942.018    -5021138.850 6  -3848192.145 7
  20853100.354   -19701653.189 6 -15256463.702 6
  21390236.455   -10284991.690 5  -7802942.212 5
 94  1 19 19  3 59.9940000  0  5 25 14 15 29 22
  19866604.190    -4917971.128 7  -3772933.780 9
  19498098.291   -23616752.034 7 -18302169.564 8
  20057126.291    -4993905.618 6  -3826971.492 7
  20834611.674   -19798815.133 6 -15332174.278 6
  21365824.580   -10413256.491 5  -7902888.735 5
 94  1 19 19  4 29.9940000  0  5 25 14 15 29 22
  19870517.033    -4897418.441 7  -3756918.741 9
  19477620.822   -23724353.674 7 -18386014.993 8
  20062392.736    -4966215.675 6  -3805394.952 7
  20816154.854   -19895820.799 6 -15407763.100 6
  21341464.338   -10541291.878 5  -8002656.507 5
 94  1 19 19  4 59.9940000  0  5 25 14 15 29 22
  19874492.533    -4876520.169 7  -3740634.415 9
  19457202.971   -23831644.461 7 -18469618.200 8
  20067747.799    -4938089.540 6  -3783478.524 7
  20797716.830   -19992708.157 6 -15483259.723 6
  21317139.744   -10669102.217 5  -8102248.911 5
 94  1 19 19  5 29.9940000  0  5 25 14 15 29 22
  19878535.400    -4855270.907 7  -3724076.594 9
  19436848.729   -23938612.229 7 -18552969.703 8
  20073183.361    -4909529.316 6  -3761223.847 7
  20779301.330   -20089479.593 6 -15558666.021 6
  21292866.486   -10796670.334 5  -8201652.567 5
 94  1 19 19  5 59.9940000  0  5 25 14 15 29 22
  19882647.252    -4833669.137 7  -3707244.083 9
  19416554.471   -24045258.361 7 -18636070.581 8
  20078697.385    -4880540.369 6  -3738635.094 7
  20760910.775   -20186132.288 6 -15633979.795 6
  21268637.666   -10923997.725 6  -8300868.657 5
 94  1 19 19  6 29.9940000  0  5 25 14 15 29 22
  19886826.510    -4811709.393 7  -3690132.633 9
  19396321.838   -24151583.474 7 -18718921.315 8
  20084292.283    -4851124.251 6  -3715713.483 7
  20742535.018   -20282677.625 6 -15709209.925 6
  21244453.174   -11051072.469 6  -8399887.901 5
 94  1 19 19  6 59.9940000  0  5 25 14 15 29 22
  19891074.049    -4789393.073 7  -3672743.335 9
  19376146.072   -24257605.022 7 -18801535.502 9
  20089970.471    -4821290.343 6  -3692466.323 7
  20724183.565   -20379121.916 6 -15784361.303 6
  21220319.971   -11177901.994 6  -8498716.063 5
 94  1 19 19  7 29.9940000  0  5 25 14 15 29 22
  19895391.330    -4766705.231 7  -3655064.536 9
  19356028.291   -24363322.427 7 -18883912.697 9
  20095729.479    -4791030.214 6  -3668887.037 7
  20705853.385   -20475450.035 6 -15859422.168 6
  21196230.072   -11304474.955 5  -8597344.324 5
 94  1 19 19  7 59.9940000  0  5 25 14 15 29 22
  19899776.455    -4743655.325 7  -3637103.610 9
  19335965.854   -24468754.106 7 -18966067.249 9
  20101568.111    -4760353.465 6  -3644983.111 7
  20687544.986   -20571668.976 6 -15934397.960 6
  21172192.979   -11430801.698 5  -8695780.729 5
 94  1 19 19  8 29.9940000  0  5 25 14 15 29 22
  19904232.947    -4720234.034 7  -3618853.291 9
  19315958.768   -24573893.160 7 -19047993.779 9
  20107484.580    -4729259.993 6  -3620754.475 7
  20669254.057   -20667774.048 6 -16009285.028 7
  21148206.229   -11556880.874 6  -8794024.233 5
 94  1 19 19  8 59.9940000  0  5 25 14 15 29 22
  19908759.244    -4696454.558 7  -3600323.867 9
  19296009.080   -24678739.260 7 -19129692.039 9
  20113479.908    -4697755.001 6  -3596205.172 7
  20650989.861   -20763752.763 6 -16084073.629 6
  21124251.268   -11682727.359 5  -8892086.423 5
 94  1 19 19  9 29.9940000  0  5 25 14 15 29 22
  19913350.846    -4672326.513 7  -3581522.835 9
  19276110.682   -24783291.588 7 -19211161.382 9
  20119551.893    -4665848.583 6  -3571343.078 7
  20632753.213   -20859613.723 6 -16158770.478 7
  21100348.127   -11808351.590 6  -8989975.427 6
 94  1 19 19  9 59.9940000  0  5 25 14 15 29 22
  19918009.494    -4647847.023 7  -3562447.958 9
  19256272.971   -24887540.128 7 -19292394.012 9
  20125698.940    -4633539.652 6  -3546167.324 7
  20614531.229   -20955341.442 6 -16233363.497 6
  21076488.565   -11933754.171 6  -9087691.706 5
 94  1 19 19 10 29.9940000  0  5 25 14 15 29 22
  19922732.174    -4623028.773 7  -3543109.109 8
  19236497.385   -24991459.615 7 -19373370.232 9
  20131923.393    -4600826.073 6  -3520676.267 7
  20596345.854   -21050926.423 6 -16307845.295 7
  21052669.635   -12058934.095 6  -9185234.485 6
 94  1 19 19 10 59.9940000  0  5 25 14 15 29 22
  19927517.518    -4597881.389 7  -3523513.791 9
  19216785.916   -25095047.977 7 -19454088.434 9
  20138227.096    -4567716.696 6  -3494876.794 7
  20578179.799   -21146375.941 6 -16382221.539 7
  21028887.088   -12183881.702 6  -9282596.237 5
 94  1 19 19 11 29.9940000  0  5 25 14 15 29 22
  19932362.002    -4572412.344 7  -3503667.830 9
  19197141.080   -25198296.570 7 -19534541.888 9
  20144602.916    -4534216.728 6  -3468772.973 7
  20560040.229   -21241695.009 6 -16456496.119 7
  21005157.291   -12308569.748 6  -9379755.719 6
 94  1 19 19 11 59.9940000  0  5 25 14 15 29 22
  19937268.518    -4546634.525 7  -3483581.275 9
  19177560.400   -25301190.159 7 -19614718.708 9
  20151049.924    -4500327.612 6  -3442365.910 7
  20541928.205   -21336876.096 6 -16530663.189 6
  20981486.565   -12432979.211 6  -9476698.114 6
 94  1 19 19 12 29.9940000  0  5 25 14 15 29 22
  19942233.643    -4520547.328 7  -3463253.643 9
  19158050.221   -25403711.521 7 -19694605.485 9
  20157571.541    -4466051.625 6  -3415657.395 7
  20523838.275   -21431939.999 6 -16604738.952 6
  20957866.096   -12557097.690 6  -9573413.769 6
 94  1 19 19 12 59.9940000  0  5 25 14 15 29 22
  19947258.166    -4494138.829 7  -3442675.642 9
  19138609.369   -25505863.986 7 -19774204.798 9
  20164169.924    -4431390.707 6  -3388648.928 7
  20505773.752   -21526894.412 6 -16678729.400 7
  20934307.057   -12680913.231 6  -9669893.354 6
 94  1 19 19 13 29.9940000  0  5 25 14 15 29 22
  19952344.940    -4467413.279 7  -3421850.593 8
  19119243.799   -25607640.927 7 -19853511.513 9
  20170836.143    -4396344.778 6  -3361340.461 7
  20487719.557   -21621740.929 6 -16752635.771 6
  20910802.018   -12804435.913 6  -9766144.730 6
 94  1 19 19 13 59.9940000  0  5 25 14 15 29 22
  19957493.018    -4440351.377 7  -3400763.456 9
  19099944.791   -25709050.824 7 -19932532.207 9
  20177578.768    -4360917.136 6  -3333734.552 7
  20469690.518   -21716493.074 6 -16826468.599 7
  20887349.307   -12927691.247 6  -9862187.776 6
 94  1 19 19 14 29.9940000  0  5 25 14 15 29 22
  19962708.979    -4412947.063 7  -3379409.501 9
  19080710.088   -25810127.255 7 -20011293.064 9
  20184392.447    -4325118.356 6  -3305839.452 7
  20451680.463   -21811155.618 6 -16900231.611 7
  20863939.369   -13050698.720 6  -9958037.690 6
 94  1 19 19 14 59.9940000  0  5 25 14 15 29 22
  19967989.377    -4385202.112 7  -3357790.114 9
  19061537.182   -25910885.760 7 -20089806.185 9
  20191271.924    -4288949.217 6  -3277655.752 7
  20433688.674   -21905696.390 6 -16973899.737 7
  20840575.752   -13173459.749 6 -10053695.561 6
 94  1 19 19 15 29.9940000  0  5 25 14 15 29 22
  19973335.377    -4357102.989 7  -3335894.755 8
  19042423.666   -26011322.066 7 -20168068.235 9
  20198229.072    -4252406.456 6  -3249180.925 7
  20415723.729   -22000104.744 6 -17047464.678 7
  20817268.752   -13295965.901 6 -10149154.827 6
 94  1 19 19 15 59.9930000  0  5 25 14 15 29 22
  19978748.653    -4328660.655 7  -3313731.955 8
  19023371.185   -26111445.645 7 -20246086.611 9
  20205248.669    -4215502.933 6  -3220424.986 6
  20397781.122   -22094381.846 6 -17120927.338 7
  20794004.442   -13418207.014 6 -10244407.570 6
 94  1 19 19 16 29.9930000  0  5 25 14 15 29 22
  19984223.646    -4299889.475 7  -3291312.911 9
  19004383.177   -26211245.765 7 -20323852.932 9
  20212343.310    -4178235.187 6  -3191385.233 6
  20379866.161   -22188511.767 6 -17194275.321 7
  20770793.864   -13540165.164 6 -10339439.819 6
 94  1 19 19 16 59.9930000  0  5 25 14 15 29 22
  19989755.661    -4270814.983 7  -3268657.526 8
  18985455.474   -26310684.220 7 -20401337.434 9
  20219501.130    -4140612.228 6  -3162068.693 6
  20361984.661   -22282506.586 6 -17267518.028 7
  20747648.552   -13661824.912 6 -10434239.547 6
 94  1 19 19 17 29.9930000  0  5 25 14 15 29 22
  19995342.833    -4241454.512 7  -3245779.307 8
  18966608.989   -26409741.876 7 -20478525.215 9
  20226727.599    -4102636.991 6  -3132477.649 6
  20344114.606   -22376395.305 6 -17340678.065 7
  20724550.255   -13783175.679 6 -10528798.527 6
 94  1 19 19 17 59.9930000  0  5 25 14 15 29 22
  20000980.567    -4211827.104 7  -3222693.089 8
  18947832.427   -26508414.361 7 -20555412.863 9
  20234023.755    -4064309.869 6  -3102612.406 6
  20326268.771   -22470168.502 6 -17413748.085 7
  20701522.685   -13904214.968 6 -10623114.794 6
 94  1 19 19 18 29.9930000  0  5 25 14 15 29 22
  20006668.052    -4181939.983 7  -3199404.479 8
  18929130.669   -26606697.579 7 -20631997.182 9
  20241380.536    -4025635.468 6  -3072476.566 6
  20308447.864   -22563817.597 6 -17486721.396 7
  20678545.560   -14024945.874 6 -10717190.765 6
 94  1 19 19 18 59.9930000  0  5 25 14 15 29 22
  20012405.731    -4151796.208 7  -3175915.875 8
  18910497.271   -26704601.539 7 -20708285.982 9
  20248804.130    -3986620.004 6  -3042074.961 6
  20290648.606   -22657362.710 6 -17559613.690 7
  20655627.442   -14145370.637 6 -10811028.189 6
 94  1 19 19 19 29.9930000  0  5 25 14 15 29 22
  20018194.075    -4121371.957 7  -3152208.734 8
  18891932.044   -26802152.998 7 -20784300.097 9
  20256295.403    -3947264.140 6  -3011408.108 6
  20272872.786   -22750790.689 6 -17632414.719 7
  20632776.169   -14265479.824 6 -10904619.711 6
 94  1 19 19 19 59.9930000  0  5 25 14 15 29 22
  20024037.896    -4090654.029 7  -3128272.762 8
  18873437.083   -26899366.266 7 -20860050.691 9
  20263850.200    -3907573.901 6  -2980480.694 6
  20255114.622   -22844092.586 6 -17705117.495 7
  20609971.974   -14385279.901 6 -10997970.381 6
 94  1 19 19 20 29.9930000  0  5 25 14 15 29 22
  20029945.716    -4059617.949 7  -3104088.867 8
  18855001.614   -26996223.909 7 -20935524.171 9
  20271467.403    -3867536.657 6  -2949282.904 6
  20237387.716   -22937270.442 6 -17777723.613 7
  20587240.427   -14504746.754 6 -11091061.396 6
 94  1 19 19 20 59.9930000  0  5 25 14 15 29 22
  20035911.872    -4028264.121 7  -3079657.367 8
  18836636.716   -27092735.319 7 -21010727.858 9
  20279149.958    -3827158.893 6  -2917819.761 6
  20219676.700   -23030342.238 6 -17850247.094 7
  20564571.052   -14623878.685 6 -11183891.444 6
 94  1 19 19 21 29.9930000  0  5 25 14 15 29 22
  20041939.810    -3996591.343 7  -3054977.329 8
  18818338.997   -27188902.903 7 -21085663.632 9
  20286897.169    -3786443.633 6  -2886093.651 6
  20201984.755   -23123299.478 6 -17922681.311 7
  20541964.763   -14742686.442 6 -11276468.879 6
 94  1 19 19 21 59.9930000  0  5 25 14 15 29 22
  20048023.271    -3964626.774 7  -3030069.935 8
  18800104.505   -27284723.221 7 -21160328.813 9
  20294707.864    -3745403.224 6  -2854114.173 6
  20184315.450   -23216162.328 6 -17995041.982 7
  20519410.177   -14861194.921 6 -11368813.114 6
 94  1 19 19 22 29.9930000  0  5 25 14 15 29 22
  20054160.231    -3932374.684 7  -3004938.497 8
  18781937.099   -27380182.547 7 -21234712.692 9
  20302580.138    -3704036.030 6  -2821880.056 6
  20166664.458   -23308918.020 6 -18067319.151 7
  20496917.075   -14979397.006 6 -11460918.588 6
 94  1 19 19 22 59.9930000  0  5 25 14 15 29 22
  20060351.552    -3899841.534 7  -2979588.056 8
  18763843.872   -27475279.652 7 -21308814.327 9
  20310512.271    -3662346.295 6  -2789394.610 6
  20149033.083   -23401550.809 6 -18139500.548 7
  20474483.841   -15097298.527 6 -11552789.845 6
 94  1 19 19 23 29.9930000  0  5 25 14 15 29 22
  20066594.247    -3867033.472 7  -2954023.376 8
  18745816.247   -27570001.695 7 -21382623.710 9
  20318506.942    -3620336.098 6  -2756659.455 6
  20131433.856   -23494057.708 6 -18211583.855 7
  20452107.724   -15214892.195 6 -11644421.204 6
 94  1 19 19 23 59.9930000  0  5 25 14 15 29 22
  20072888.349    -3833956.271 7  -2928248.975 8
  18727867.880   -27664334.162 7 -21456129.522 9
  20326560.341    -3578009.214 6  -2723677.523 6
  20113851.763   -23586437.948 6 -18283568.456 7
  20429790.856   -15332158.995 6 -11735797.847 6
 94  1 19 19 24 29.9930000  0  5 25 14 15 29 22
  20079230.599    -3800626.306 7  -2902277.617 8
  18709990.919   -27758280.055 7 -21529334.116 9
  20334674.302    -3535381.388 6  -2690461.102 6
  20096296.466   -23678696.051 7 -18355457.886 7
  20407536.138   -15449096.686 6 -11826918.028 6
 94  1 19 19 24 59.9930000  0  5 25 14 15 29 22
  20085622.458    -3767039.637 7  -2876106.232 8
  18692187.317   -27851832.965 7 -21602232.491 9
  20342844.091    -3492448.761 6  -2657007.164 6
  20078760.919   -23770845.531 7 -18427262.681 7
  20385350.778   -15565689.661 6 -11917769.584 6
 94  1 19 19 25 29.9930000  0  5 25 14 15 29 22
  20092062.403    -3733197.135 7  -2849735.499 8
  18674459.864   -27944985.870 7 -21674819.168 9
  20351069.755    -3449214.310 6  -2623318.038 6
  20061246.989   -23862890.883 6 -18498986.328 7
  20363231.247   -15681932.740 6 -12008348.489 6
 94  1 19 19 25 59.9930000  0  5 25 14 15 29 22
  20098552.192    -3699095.007 7  -2823162.455 8
  18656814.239   -28037732.716 7 -21747089.439 9
  20359354.349    -3405679.256 6  -2589394.680 6
  20043749.200   -23954824.259 7 -18570622.730 7
  20341173.903   -15797826.084 6 -12098654.865 6
 94  1 19 19 26 29.9930000  0  6 25 18 14 15 29 22
  20105087.372    -3664738.843 7  -2796391.452 7
  22649027.794          -0.26113
  18639235.552   -28130093.000 7 -21819058.491 9
  20367695.513    -3361854.396 6  -2555245.503 6
  20026277.661   -24046654.613 7 -18642178.835 7
  20319187.427   -15913376.744 6 -12188694.213 6
 94  1 19 19 26 59.9930000  0  6 25 18 14 15 29 22
  20111677.060    -3630117.050 7  -2769413.461 7
  22625793.739     -122115.914 3        -0.22611
  18621732.755   -28222067.559 7
  20376091.435    -3317739.310 6  -2520870.167 6
  20008823.091   -24138375.457 6
  20297268.271   -16028573.750 6 -12278457.985 6
 94  1 19 19 27 29.9930000  0  6 25 18 14 15 29 22
  20118318.567    -3595223.707 7  -2742223.890 8
  22602565.060     -244194.919 3    -95126.791 3
  18604307.731   -28313633.912 7
  20384541.739    -3273331.921 6  -2486267.073 6
  19991396.028   -24229960.051 7
  20275417.278   -16143400.213 6 -12367933.034 6
 94  1 19 19 27 59.9930000  0  6 25 18 14 15 29 22
  20125010.310    -3560058.166 7  -2714822.221 8
  22579340.856     -366235.969 3   -190223.749 3
  18586961.427   -28404788.352 7 -22033106.827 9
  20393046.864    -3228632.813 6  -2451436.665 6
  19973991.872   -24321407.109 7 -18856271.660 7
  20253638.888   -16257847.809 6 -12457112.858 6
 94  1 19 19 28 29.9930000  0  6 25 18 14 15 29 22
  20131751.950    -3524627.008 7  -2687213.584 8
  22556124.747     -488251.667 2   -285300.993 2
  18569694.317   -28495541.934 7 -22103823.908 9
  20401605.622    -3183654.805 6  -2416388.926 6
  19956612.192   -24412728.314 7 -18927431.036 7
  20231928.724   -16371929.628 6 -12546007.667 6
 94  1 19 19 28 59.9930000  0  6 25 18 14 15 29 22
  20138541.122    -3488949.977 7  -2659413.349 7
  22532903.521     -610263.339 3   -380375.040 1
  18552500.122   -28585886.258 7 -22174222.079 9
  20410215.349    -3138412.423 6  -2381135.192 6
  19939262.052   -24503933.033 7 -18998499.622 7
  20210281.224   -16485661.667 6 -12634629.934 6
 94  1 19 19 29 29.9930000  0  6 25 18 14 15 29 22
  20145377.810    -3453021.577 7  -2631417.243 7
  22509690.872     -732249.769 3   -475429.511 1
  18535390.528   -28675805.620 7 -22244289.114 9
  20418879.177    -3092896.044 6  -2345667.947 6
  19921927.364   -24595015.263 7 -19069472.784 7
  20188710.177   -16599034.385 6 -12722972.200 6
 94  1 19 19 29 59.9930000  0  6 25 18 14 15 29 22
  20152262.364    -3416850.508 7  -2603232.051 7
  22486481.310     -854203.849 3   -570458.767 1
  18518355.622   -28765320.852 7 -22314041.252 9
  20427591.458    -3047107.838 6  -2309988.897 6
  19904615.958   -24685991.542 7 -19140363.380 7
  20167203.989   -16712054.559 6 -12811039.768 6
 94  1 19 19 30 29.9930000  0  6 25 18 14 15 29 22
  20159189.489    -3380445.204 7  -2574864.335 7
  22463280.310     -976129.854 3   -665466.113 3
  18501396.880   -28854431.193 7 -22383477.883 9
  20436352.630    -3001051.142 6  -2274100.639 6
  19887323.966   -24776863.914 7 -19211173.008 7
  20145767.630   -16824707.538 6 -12898821.219 6
 94  1 19 19 30 59.9930000  0  6 25 18 14 15 29 22
  20166157.864    -3343818.780 7  -2546324.327 7
  22440075.731    -1098036.625 3   -760458.426 3
  18484518.810   -28943139.577 7 -22452601.301 9
  20445169.841    -2954732.555 6  -2238008.307 6
  19870048.192   -24867633.179 7 -19281902.298 7
  20124401.083   -16936976.319 6 -12986303.292 6
 94  1 19 19 31 29.9930000  0  6 25 18 14 15 29 22
  20173170.372    -3306969.540 7  -2517610.690 7
  22416889.560    -1219920.403 3   -855432.805 2
  18467710.114   -29031462.257 7 -22521424.174 9
  20454032.216    -2908156.604 6  -2201715.423 6
  19852797.356   -24958302.976 7 -19352554.084 7
  20103111.888   -17048857.486 6 -13073483.349 6
 94  1 19 19 31 59.9930000  0  6 25 18 14 15 29 22
  20180226.489    -3269888.334 7  -2488716.314 7
  22393707.731    -1341771.626 3   -950381.855 4
  18450980.606   -29119384.397 7 -22589934.935 9
  20462944.692    -2861314.997 6  -2165215.546 6
  19835560.224   -25048863.860 7 -19423120.989 7
  20081897.075   -17160344.136 6 -13160355.989 6
 94  1 19 19 32 29.9930000  0  6 25 18 14 15 29 22
  20187326.388    -3232577.786 7  -2459643.221 7
  22370516.435    -1463607.144 3  -1045318.639 2
  18434327.560   -29206898.954 7 -22658128.101 9
  20471907.700    -2814225.193 6  -2128522.274 6
  19818345.536   -25139320.294 7 -19493606.515 7
  20060755.896   -17271452.141 6 -13246933.590 6
 94  1 19 19 32 59.9930000  0  6 25 18 14 15 29 22
  20194472.067    -3195033.250 7  -2430387.810 7
  22347341.896    -1585411.354 3  -1140231.012 1
  18417753.724   -29294001.796 7 -22726000.457 9
  20480915.021    -2766884.272 6  -2091633.321 6
  19801153.653   -25229672.640 7 -19564010.934 7
  20039679.083   -17382195.555 6 -13333227.089 6
 94  1 19 19 33 29.9930000  0  6 25 18 14 15 29 22
  20201659.958    -3157258.912 7  -2400953.326 7
  22324170.450    -1707177.321 3  -1235113.607 2
  18401251.810   -29380695.087 7 -22793553.670 9
  20489968.122    -2719306.381 6  -2054559.726 6
  19783979.700   -25319939.989 7 -19634349.127 7
  20018672.224   -17492591.844 6 -13419250.124 6
 94  1 19 19 33 59.9920000  0  6 25 18 14 15 29 22
  20208894.156    -3119238.676 7  -2371327.231 7
  22301005.820    -1828883.989 3  -1329949.962 1
  18384843.023   -29466944.918 7 -22860761.332 9
  20499072.234    -2671480.744 6  -2017293.071 6
  19766818.594   -25410100.317 7 -19704603.928 7
  19997734.578   -17602606.775 6 -13504976.001 6
 94  1 19 19 34 29.9920000  0  6 25 18 14 15 29 22
  20216176.758    -3080973.494 7  -2341510.260 7
  22277855.359    -1950544.873 3  -1424750.610 2
  18368509.375   -29552762.126 7 -22927631.888 9
  20508217.258    -2623412.502 6  -1979837.395 6
  19749684.398   -25500154.886 7 -19774776.313 7
  19976877.945   -17712234.998 6 -13590400.554 6
 94  1 19 19 34 59.9920000  0  6 25 18 14 15 29 22
  20223504.516    -3042469.146 7  -2311506.923 7
  22254716.883    -2072137.731 3  -1519498.287 2
  18352262.727   -29638139.720 7 -22994159.888 9
  20517408.578    -2575100.156 6  -1942191.487 6
  19732572.641   -25590084.941 7 -19844851.679 7
  19956091.625   -17821445.126 6 -13675499.322 6
 94  1 19 19 35 29.9920000  0  6 25 18 14 15 29 22
  20230871.680    -3003738.329 6  -2281327.118 7
  22231582.531    -2193691.601 3  -1614215.566 2
  18336101.633   -29723077.240 7 -23060344.973 9
  20526649.070    -2526556.554 6  -1904365.392 6
  19715481.531   -25679889.282 7 -19914829.101 7
  19935397.367   -17930221.913 6 -13760260.421 6
 94  1 19 19 35 59.9920000  0  6 25 18 14 15 29 22
  20238285.055    -2964791.069 6  -2250978.661 7
  22208459.766    -2315225.119 4  -1708917.028 4
  18320023.422   -29807573.146 7 -23126185.940 9
  20535930.508    -2477776.068 6  -1866354.707 5
  19698415.453   -25769563.044 7 -19984704.768 7
  19914781.031   -18038552.957 6 -13844674.204 7
 94  1 19 19 36 29.9920000  0  6 25 18 14 15 29 22
  20245731.922    -2925654.568 6  -2220482.742 7
  22185334.164    -2436759.390 3  -1803619.066 1
  18304023.922   -29891639.481 7 -23191692.179 9
  20545257.180    -2428772.986 6  -1828170.571 5
  19681375.359   -25859122.243 7 -20054491.158 7
  19894247.250   -18146457.396 6 -13928755.557 7
 94  1 19 19 36 59.9920000  0  6 25 18 14 15 29 22
  20253215.016    -2886340.396 7  -2189848.371 7
  22162205.742    -2558301.438 3  -1898327.173 1
  18288107.445   -29975277.620 7 -23256864.767 9
  20554624.250    -2379550.275 6  -1789815.294 6
  19664355.289   -25948575.223 7 -20124194.787 7
  19873786.703   -18253951.687 6 -14012517.319 7
 94  1 19 19 37 29.9920000  0  6 25 18 14 15 29 22
  20260729.141    -2846854.190 7  -2159079.946 7
  22139068.344    -2679873.010 4  -1993058.281 3
  18272271.414   -30058494.224 7 -23321708.875 9
  20564031.227    -2330113.423 6  -1751293.163 6
  19647347.500   -26037942.962 7 -20193831.999 7
  19853408.547   -18361066.711 6 -14095983.556 6
 94  1 19 19 37 59.9920000  0  6 25 18 14 15 29 22
  20268275.750    -2807193.842 6  -2128175.824 7
  22115932.617    -2801448.446 3  -2087792.428 4
  18256517.375   -30141291.147 7 -23386225.967 9
  20573478.859    -2280464.609 6  -1712605.864 5
  19630358.672   -26127220.498 7 -20263398.912 8
  19833088.203   -18467823.366 6 -14179170.537 7
 94  1 19 19 38 29.9920000  0  6 25 18 14 15 29 22
  20275857.508    -2767350.391 6  -2097129.031 7
  22092802.234    -2923003.347 3  -2182510.523 2
  18240843.164   -30223662.080 7 -23450411.119 9
  20582966.891    -2230611.653 6  -1673759.487 6
  19613388.039   -26216393.210 7 -20332884.152 8
  19812843.516   -18574233.399 6 -14262087.423 7
 94  1 19 19 38 59.9920000  0  6 25 18 14 15 29 22
  20283477.094    -2727304.972 6  -2065924.867 7
  22069678.234    -3044513.332 4  -2277193.682 2
  18225252.617   -30305591.689 7 -23514252.382 9
  20592494.211    -2180545.863 6  -1634747.275 6
  19596443.109   -26305442.138 7 -20402272.927 8
  19792660.617   -18680287.057 6 -14344726.617 6
 94  1 19 19 39 29.9920000  0  6 25 18 14 15 29 22
  20291139.266    -2687044.795 6  -2034553.345 7
  22046570.266    -3165958.028 3  -2371825.945 2
  18209745.375   -30387077.418 7 -23577747.765 9
  20602058.211    -2130272.145 6  -1595573.037 5
  19579526.352   -26394359.234 7 -20471558.970 7
  19772551.305   -18785958.932 6 -14427068.304 7
 94  1 19 19 39 59.9920000  0  6 25 18 14 15 29 22
  20298843.820    -2646560.009 6  -2003006.804 7
  22023476.219    -3287321.094 4  -2466394.567 4
  18194322.859   -30468116.311 7 -23640894.966 9
  20611666.359    -2079794.795 6  -1556240.130 5
  19562631.477   -26483130.917 7 -20540731.712 8
  19752522.797   -18891210.777 6 -14509082.703 7
 94  1 19 19 40 29.9920000  0  6 25 18 14 15 29 22
  20306587.422    -2605861.381 6  -1971293.632 7
  22000388.391    -3408625.989 4  -2560917.867 3
  18178988.891   -30548705.803 7 -23703691.979 9
  20621307.141    -2029120.495 6  -1516753.753 5
  19545760.594   -26571773.853 7 -20609804.122 7
  19732581.180   -18996016.853 6 -14590749.766 7
 94  1 19 19 40 59.9920000  0  6 25 18 14 15 29 22
  20314373.516    -2564948.113 6  -1939413.217 7
  21977315.109    -3529879.536 4  -2655401.162 2
  18163741.734   -30628837.622 7 -23766132.364 9
  20630989.953    -1978243.553 6  -1477109.471 6
  19528915.109   -26660298.655 7 -20678784.479 8
  19712725.219   -19100349.541 6 -14672047.930 7
 94  1 19 19 41 29.9920000  0  6 25 18 14 15 29 22
  20322198.844    -2523827.091 6  -1907370.911 7
  21954254.148    -3651093.011 4  -2749853.208 2
  18148580.297   -30708518.446 7 -23828221.326 9
  20640707.695    -1927172.625 6  -1437314.042 5
  19512086.063   -26748721.177 7 -20747685.141 8
  19692966.547   -19204189.975 6 -14752962.527 7
 94  1 19 19 41 59.9920000  0  6 25 18 14 15 29 22
  20330060.117    -2482515.910 6  -1875180.432 7
  21931190.789    -3772277.917 4  -2844283.012 3
  18133503.008   -30787739.545 7 -23889952.058 9
  20650465.852    -1875902.811 6  -1397363.622 5
  19495280.047   -26837048.935 7 -20816511.953 8
  19673298.344   -19307548.206 6 -14833501.377 7
 94  1 19 19 42 29.9920000  0  6 25 18 14 15 29 22
  20337952.805    -2441032.312 6  -1842855.608 7
  21908130.563    -3893455.791 4  -2938707.298 4
  18118515.383   -30866512.066 7 -23951333.243 9
  20660253.977    -1824449.127 6  -1357269.946 5
  19478487.578   -26925295.070 7 -20885275.157 8
  19653713.320   -19410457.437 6 -14913690.366 7
 94  1 19 19 42 59.9920000  0  6 25 18 14 15 29 22
  20345885.055    -2399352.622 6  -1810377.979 6
  21885074.844    -4014603.493 4  -3033108.096 3
  18103607.328   -30944831.112 7 -24012361.074 9
  20670086.078    -1772803.338 6  -1317026.572 5
  19461719.109   -27013436.238 7 -20953956.573 8
  19634216.039   -19512918.950 6 -14993530.478 7
 94  1 19 19 43 29.9920000  0  6 25 18 14 15 29 22
  20353852.133    -2357482.392 6  -1777751.876 6
  21862030.383    -4135720.008 4  -3127484.576 4
  18088789.570   -31022709.610 7 -24073045.618 9
  20679948.867    -1720968.466 6  -1276635.856 5
  19444965.547   -27101452.617 7 -21022540.741 8
  19614804.102   -19614936.238 6 -15073024.443 7
 94  1 19 19 43 59.9920000  0  6 25 18 14 15 29 22
  20361851.859    -2315445.026 6  -1744995.536 6
  21838984.750    -4256826.008 4  -3221852.885 2
  18074052.555   -31100156.350 7 -24133393.723 9
  20689846.516    -1668964.930 6  -1236113.719 5
  19428242.031   -27189342.578 7 -21091026.407 8
  19595466.977   -19716538.330 6 -15152194.879 7
 94  1 19 19 44 29.9920000  0  6 25 18 14 15 29 22
  20369889.133    -2273219.246 6  -1712092.380 6
  21815939.430    -4377901.855 4  -3316197.687 4
  18059400.672   -31177145.056 7 -24193384.914 9
  20699772.484    -1616784.413 6  -1195453.668 5
  19411545.727   -27277088.192 7 -21159399.591 8
  19576214.633   -19817704.632 6 -15231025.742 7
 94  1 19 19 44 59.9920000  0  6 25 18 14 15 29 22
  20377953.867    -2230837.173 6  -1679067.441 7
  21792908.930    -4498950.841 4  -3410521.580 4
  18044836.406   -31253685.922 7 -24253027.145 9
  20709735.469    -1564441.992 6  -1154667.474 5
  19394868.242   -27364712.224 7 -21227678.032 8
  19557050.492   -19918441.180 6 -15309521.731 7
 94  1 19 19 45 29.9920000  0  6 25 18 14 15 29 22
  20386050.430    -2188286.517 6  -1645911.144 6
  21769888.375    -4619944.608 4  -3504802.436 4
  18030363.039   -31329735.370 7 -24312286.448 9
  20719729.711    -1511913.095 6  -1113735.961 5
  19378223.891   -27452195.068 7 -21295846.465 8
  19537967.188   -20018711.625 6 -15387654.525 7
 94  1 19 19 45 59.9920000  0  6 25 18 14 15 29 22
  20394174.344    -2145590.417 6  -1612641.514 6
  21746871.281    -4740892.920 4  -3599047.884 3
  18015990.172   -31405286.748 7 -24371157.650 9
  20729757.250    -1459219.426 6  -1072676.062 5
  19361591.453   -27539583.324 7 -21363941.184 8
  19518970.031   -20118530.689 6 -15465435.600 7
 94  1 19 19 46 29.9920000  0  6 25 18 14 15 29 22
  20402330.617    -2102735.105 6  -1579247.819 6
  21723865.883    -4861781.277 4  -3693246.599 4
  18001708.375   -31480333.302 7 -24429635.475 9
  20739815.203    -1406356.232 6  -1031484.070 5
  19344977.164   -27626888.560 7 -21431971.213 8
  19500066.203   -20217891.357 6 -15542859.493 7
 94  1 19 19 46 59.9920000  0  6 25 18 14 15 29 22
  20410514.008    -2059727.293 6  -1545735.303 6
  21700869.641    -4982626.038 4  -3787411.386 2
  17987517.680   -31554892.531 7 -24487733.575 9
  20749906.586    -1353336.107 5   -990169.793 5
  19328381.883   -27714118.720 7 -21499942.750 8
  19481243.984   -20316786.125 6 -15619920.336 7
 94  1 19 19 47 29.9920000  0  6 25 18 14 15 29 22
  20418731.516    -2016544.590 6  -1512086.498 6
  21677879.797    -5103435.495 4  -3881548.640 3
  17973424.203   -31628952.598 7 -24545442.714 9
  20760024.766    -1300158.835 5   -948733.067 5
  19311796.664   -27801259.324 7 -21567844.503 8
  19462520.227   -20415202.617 6 -15696608.498 7
 94  1 19 19 47 59.9920000  0  6 25 18 14 15 29 22
  20426984.664    -1973178.750 6  -1478294.994 6
  21654893.406    -5224225.646 4  -3975670.826 2
  17959422.492   -31702527.940 7 -24602774.139 9
  20770176.031    -1246837.208 6   -907183.846 5
  19295233.398   -27888310.085 7 -21635676.247 8
  19443878.367   -20513162.932 6 -15772941.202 7
 94  1 19 19 48 29.9920000  0  6 25 18 14 15 29 22
  20435277.195    -1929602.232 6  -1444339.329 6
  21631914.078    -5344994.301 5  -4069776.336 3
  17945513.391   -31775621.672 7 -24659730.291 9
  20780350.211    -1193365.282 5   -865517.521 5
  19278694.203   -27975233.028 7 -21703408.381 8
  19425324.156   -20610660.428 6 -15848913.268 7
 94  1 19 19 48 59.9920000  0  6 25 18 14 15 29 22
  20443607.500    -1885827.254 6  -1410229.020 6
  21608938.438    -5465737.929 5  -4163862.286 4
  17931694.336   -31848248.692 7 -24716322.770 8
  20790550.063    -1139747.104 5   -823737.224 5
  19262183.320   -28062006.632 7 -21771024.169 8
  19406855.234   -20707687.846 6 -15924519.036 7
 94  1 19 19 49 29.9920000  0  6 25 18 14 15 29 22
  20451971.234    -1841871.271 6  -1375977.679 6
  21585962.445    -5586445.558 5  -4257920.157 4
  17917965.313   -31920407.724 7 -24772550.585 9
  20800783.859    -1085990.661 5   -781849.193 5
  19245691.625   -28148630.272 7 -21838523.091 8
  19388481.102   -20804266.030 6 -15999774.757 7
 94  1 19 19 49 59.9920000  0  6 25 18 14 15 29 22
  20460367.367    -1797752.144 6  -1341599.203 6
  21563003.094    -5707107.135 5  -4351942.163 2
  17904319.875   -31992094.143 7 -24828410.122 8
  20811034.867    -1032095.162 5   -739852.812 5
  19229240.195   -28235112.591 7 -21905911.908 8
  19370188.344   -20900387.248 6 -16074674.394 7
 94  1 19 19 50 29.9920000  0  6 25 18 14 15 29 22
  20468785.453    -1753511.392 6  -1307125.954 6
  21540053.703    -5827724.902 5  -4445930.038 3
  17890765.844   -32063316.869 7 -24883908.342 8
  20821318.844     -978070.218 5   -697755.547 5
  19212809.367   -28321463.289 7 -21973198.158 8
  19351989.125   -20996037.681 6 -16149207.186 7
 94  1 19 19 50 59.9920000  0  6 25 18 14 15 29 22
  20477224.898    -1709163.060 6  -1272568.870 6
  21517107.625    -5948290.994 4  -4539877.632 4
  17877304.461   -32134056.534 7 -24939030.149 8
  20831623.906     -923907.463 5   -655550.922 5
  19196400.289   -28407689.009 7 -22040387.017 8
  19333882.523   -21091198.976 6 -16223358.828 7
 94  1 19 19 51 29.9920000  0  6 25 18 14 15 29 22
  20485684.758    -1664710.528 6  -1237930.607 6
  21494169.805    -6068828.777 4  -4633803.132 4
  17863940.633   -32204303.943 7 -24993768.393 8
  20841954.563     -869619.005 5   -613248.348 5
  19180007.758   -28493818.616 7 -22107501.000 8
  19315862.125   -21185883.098 6 -16297138.643 7
 94  1 19 19 51 59.9910000  0  6 25 18 14 15 29 22
  20494163.761    -1620142.130 6  -1203202.061 6
  21471243.136    -6189332.482 5  -4727702.074 4
  17850666.253   -32274054.671 7 -25048119.604 8
  20852315.370     -815201.504 5   -570845.199 5
  19163639.605   -28579834.843 7 -22174526.624 8
  19297938.316   -21280072.091 6 -16370532.643 7
 94  1 19 19 52 29.9910000  0  6 25 18 14 15 29 22
  20502670.112    -1575448.889 6  -1168376.223 6
  21448313.456    -6309813.140 5  -4821583.094 3
  17837486.175   -32343327.336 7 -25102098.301 8
  20862689.151     -760662.542 5   -528347.420 5
  19147293.886   -28665732.686 7 -22241460.000 8
  19280104.167   -21373787.252 6 -16443557.422 7
 94  1 19 19 52 59.9910000  0  6 25 18 14 15 29 22
  20511202.026    -1530611.832 6  -1133438.311 6
  21425390.628    -6430275.769 5  -4915450.064 2
  17824395.730   -32412114.027 7 -25155698.317 8
  20873089.886     -706010.138 5   -485761.249 5
  19130970.253   -28751512.345 7 -22308301.283 8
  19262360.175   -21467033.176 6 -16516216.565 7
 94  1 19 19 53 29.9910000  0  6 25 18 14 15 29 22
  20519763.370    -1485616.545 6  -1098377.093 6
  21402474.941    -6550696.791 5  -5009284.577 4
  17811398.144   -32480407.091 7 -25208913.695 8
  20883512.980     -651237.791 5   -443081.611 5
  19114677.401   -28837154.165 7 -22375035.160 8
  19244704.128   -21559801.243 6 -16588503.352 7
 94  1 19 19 53 59.9910000  0  6 25 18 14 15 29 22
  20528355.831    -1440470.411 6  -1063198.337 6
  21379570.230    -6671066.606 5  -5103079.206 4
  17798498.401   -32548206.230 7 -25261744.190 8
  20893957.690     -596344.089 5   -400307.408 5
  19098400.737   -28922652.610 7 -22441657.314 8
  19227149.792   -21652073.479 6 -16660403.784 7
 94  1 19 19 54 29.9910000  0  6 25 18 14 15 29 22
  20536974.566    -1395181.772 6  -1027908.536 6
  21356671.987    -6791400.286 5  -5196845.691 3
  17785686.605   -32615512.241 7 -25314190.427 8
  20904425.472     -541337.698 5   -357445.407 5
  19082153.753   -29008039.038 7 -22508192.180 8
  19209686.620   -21743842.220 6 -16731911.868 7
 94  1 19 19 54 59.9910000  0  6 25 18 14 15 29 22
  20545619.855    -1349748.549 6   -992506.057 6
  21333780.081    -6911689.965 5  -5290577.862 4
  17772976.472   -32682312.369 7 -25366242.468 8
  20914917.347     -486210.866 5   -314489.558 5
  19065924.378   -29093327.509 7 -22574650.706 8
  19192325.776   -21835082.400 6 -16803008.090 7
 94  1 19 19 55 29.9910000  0  6 25 18 14 15 29 22
  20554289.558    -1304192.942 6   -957008.222 6
  21310897.362    -7031938.820 5  -5384278.223 5
  17760360.940   -32748623.052 7 -25417913.128 8
  20925427.542     -430977.952 5   -271451.028 5
  19049710.526   -29178536.815 7 -22641047.547 8
  19175057.980   -21925800.802 7 -16873697.730 7
 94  1 19 19 55 59.9910000  0  6 25 18 14 15 29 22
  20562981.995    -1258503.345 6   -921405.976 6
  21288022.792    -7152145.021 5  -5477945.366 4
  17747835.495   -32814429.837 7 -25469191.141 8
  20935955.159     -375637.599 5   -228328.784 5
  19033513.667   -29263663.688 7 -22707380.150 8
  19157898.558   -22015983.520 7 -16943969.964 7
 94  1 19 19 56 29.9910000  0  6 25 18 14 15 29 22
  20571704.425    -1212672.130 6   -885693.372 6
  21265156.636    -7272317.338 5  -5571586.091 4
  17735409.753   -32879735.546 7 -25520078.694 8
  20946508.206     -320203.021 5   -185133.135 5
  19017331.667   -29348702.809 7 -22773644.374 8
  19140833.995   -22105654.914 7 -17013843.757 8
 94  1 19 19 56 59.9910000  0  6 25 18 14 15 29 22
  20580454.714    -1166690.529 6   -849863.580 6
  21242294.956    -7392435.249 5  -5665184.416 5
  17723079.816   -32944521.169 7 -25570560.997 8
  20957076.917     -264659.422 5   -141852.512 4
  19001176.581   -29433608.999 7 -22839805.012 8
  19123867.909   -22194808.212 7 -17083313.845 8
 94  1 19 19 57 29.9910000  0  6 25 18 14 15 29 22
  20589232.433    -1120559.601 6   -813917.418 6
  21219448.691    -7512503.308 5  -5758743.902 5
  17710849.620   -33008783.938 7 -25620635.871 8
  20967665.636     -209013.418 5    -98492.117 5
  18985043.909   -29518356.129 7 -22905841.706 8
  19107003.331   -22283459.171 7 -17152392.486 7
 94  1 19 19 57 59.9910000  0  6 25 18 14 15 29 22
  20598039.909    -1074277.357 6   -777853.364 6
  21196608.440    -7632526.612 5  -5852268.494 4
  17698723.261   -33072514.947 7 -25670296.395 8
  20978274.472     -153270.364 5    -55056.103 4
  18968953.511   -29602930.164 7 -22971743.520 8
  19090223.745   -22371614.200 7 -17221084.697 7
 94  1 19 19 58 29.9910000  0  6 25 18 14 15 29 22
  20606876.214    -1027849.121 6   -741675.545 6
  21173774.495    -7752514.146 5  -5945765.237 5
  17686701.136   -33135708.106 7 -25719537.812 8
  20988900.159      -97425.829 5    -11540.994 5
  18952893.573   -29687317.827 7 -23037500.113 8
  19073542.253   -22459269.257 7 -17289387.320 8
 94  1 19 19 58 59.9910000  0  6 25 18 14 15 29 22
  20615733.011     -981303.500 6   -705406.264 6
  21150954.089    -7872468.571 5  -6039236.144 5
  17674777.480   -33198366.811 7 -25768362.774 8
  20999540.620      -41493.412 5     32042.585 5
  18936867.386   -29771533.321 7 -23103122.554 8
  19056960.526   -22546410.716 7 -17357289.737 8
 94  1 19 19 59 29.9910000  0  6 25 18 14 15 29 22
  20624612.511     -934635.261 6   -669041.440 6
  21128130.644    -7992389.334 5  -6132680.827 5
  17662955.128   -33260487.309 7 -25816768.355 8
  21010203.925       14520.138 5     75689.389 5
  18920870.105   -29855597.681 7 -23168627.233 8
  19040477.745   -22633034.223 7 -17424788.562 8
 94  1 19 19 59 59.9910000  0  6 25 18 14 15 29 22
  20633513.003     -887866.011 6   -632597.913 6
  21105314.105    -8112292.953 5  -6226112.171 3
  17651235.190   -33322082.152 7 -25864764.332 8
  21020874.300       70600.909 5    119388.582 5
  18904896.276   -29939550.427 7 -23234044.923 8
  19024090.339   -22719128.015 7 -17491874.616 8
 94  1 19 20  0 29.9910000  0  6 25 18 14 15 29 22
  20642433.386     -840991.762 6   -596072.571 6
  21082498.730    -8232173.884 5  -6319525.811 5
  17639610.745   -33383157.095 7 -25912355.197 8
  21031559.237      126749.581 5    163140.669 5
  18888941.870   -30023403.986 7 -23299385.338 8
  19007811.683   -22804675.655 7 -17558535.095 8
 94  1 19 20  0 59.9910000  0  6 25 18 14 15 29 22
  20651371.495     -794019.585 6   -559470.923 6
  21059695.862    -8352013.993 5  -6412907.642 5
  17628084.456   -33443725.295 7 -25959551.191 8
  21042254.581      182955.961 5    206937.733 5
  18872997.526   -30107186.738 7 -23364670.571 8
  18991636.245   -22889689.079 7 -17624779.306 8
 94  1 19 20  1 29.9910000  0  6 25 18 14 15 29 22
  20660330.659     -746943.704 6   -522788.470 6
  21036900.128    -8471801.172 5  -6506248.221 5
  17616655.558   -33503791.654 7 -26006356.146 8
  21052962.433      239226.079 5    250784.456 5
  18857061.136   -30190902.094 7 -23429903.292 8
  18975561.144   -22974177.765 7 -17690614.629 8
 94  1 19 20  1 59.9910000  0  6 25 18 14 15 29 22
  20669308.003     -699762.893 6   -486024.255 6
  21014117.206    -8591522.647 5  -6599537.601 4
  17605318.589   -33563353.387 7 -26052767.888 8
  21063686.245      295560.729 5    294681.448 5
  18841150.511   -30274527.960 7
  18959586.222   -23058136.135 7
 94  1 19 20  2 29.9910000  0  6 25 18 14 15 29 22
  20678304.995     -652492.127 6   -449189.952 6
  20991352.339    -8711176.089 5  -6692773.966 4
  17594081.128   -33622401.873 7 -26098779.694 8
  21074416.753      351945.876 5    338617.811 4
  18825255.808   -30358056.447 7 -23560153.400 9
  18943705.644   -23141586.728 7 -17821063.142 8
 94  1 19 20  2 59.9910000  0  6 25 18 14 15 29 22
  20687316.800     -605126.692 6   -412281.886 6
  20968597.886    -8830739.245 5  -6785939.954 4
  17582952.440   -33680903.713 7 -26144365.545 8
  21085157.714      408400.783 5    382608.522 5
  18809385.386   -30441456.070 7 -23625140.098 8
  18927922.980   -23224511.709 7 -17885679.987 8
 94  1 19 20  3 29.9910000  0  6 25 18 14 15 29 22
  20696347.745     -557669.511 6   -375302.323 6
  20945853.808    -8950244.970 5  -6879061.230 4
  17571924.823   -33738865.380 7 -26189530.483 8
  21095908.230      464912.870 5    426643.792 4
  18793540.526   -30524710.788 7 -23690013.884 9
  18912243.581   -23306899.271 7 -17949878.065 8
 94  1 19 20  3 59.9910000  0  6 25 18 14 15 29 22
  20705397.558     -510112.986 6   -338245.360 6
  20923120.636    -9069717.991 5  -6972156.999 5
  17561000.769   -33796268.663 7 -26234260.318 8
  21106675.308      521483.579 5    470724.746 4
  18777731.222   -30607803.124 7 -23754761.142 8
  18896668.565   -23388735.349 7 -18013646.422 8
 94  1 19 20  4 29.9910000  0  6 25 18 14 15 29 22
  20714464.831     -462458.287 6   -301111.894 6
  20900391.237    -9189177.564 5  -7065242.286 5
  17550178.073   -33853128.143 7 -26278566.411 8
  21117451.980      578108.734 5    514848.127 4
  18761945.995   -30690749.265 7 -23819394.478 9
  18881201.261   -23470028.889 7 -18076992.018 8
 94  1 19 20  4 59.9910000  0  6 25 18 14 15 29 22
  20723557.808     -414689.037 6   -263889.159 6
  20877658.073    -9308621.328 5  -7158315.288 5
  17539457.409   -33909469.561 7 -26322468.819 8
  21128237.737      634789.048 5    559014.484 4
  18746186.730   -30773546.389 7 -23883911.693 8
  18865839.722   -23550773.238 7 -18139909.677 8
 94  1 19 20  5 29.9910000  0  6 25 18 14 15 29 22
  20732669.292     -366803.690 6   -226575.966 6
  20854931.261    -9428055.758 5  -7251380.995 5
  17528828.855   -33965308.290 7 -26365979.522 8
  21139033.503      691514.187 5    603215.761 4
  18730466.081   -30856193.071 7 -23948311.688 8
  18850577.261   -23630973.383 7 -18202403.272 8
 94  1 19 20  5 59.9910000  0  6 25 18 14 15 29 22
  20741801.206     -318820.575 6   -189186.573 6
  20832207.511    -9547464.888 5  -7344426.991 3
  17518300.823   -34020652.626 7 -26409104.984 8
  21149836.042      748274.763 5    647444.675 3
  18714762.628   -30938701.718 7 -24012604.122 9
  18835411.776   -23710650.139 7 -18264489.038 8
 94  1 19 20  6 29.9910000  0  6 25 18 14 15 29 22
  20750947.214     -270742.597 6   -151723.277 6
  20809498.050    -9666803.136 5  -7437417.792 5
  17507866.058   -34075494.304 7 -26451838.759 7
  21160639.269      805067.573 5    691698.681 5
  18699086.862   -31021072.608 7 -24076789.210 9
  18820350.269   -23789796.057 7 -18326161.173 8
 94  1 19 20  6 59.9910000  0  6 25 18 14 15 29 22
  20760112.066     -222580.149 6   -114194.146 6
  20786808.550    -9786053.409 5  -7530339.989 5
  17497530.870   -34129803.437 7 -26494157.559 8
  21171449.878      861892.757 5    735977.923 3
  18683437.261   -31103290.401 7 -24140854.999 9
  18805396.823   -23868387.875 7 -18387401.527 8
 94  1 19 20  7 29.9910000  0  6 25 18 14 15 29 22
  20769291.456     -174339.321 6    -76603.948 6
  20764130.464    -9905225.082 5  -7623200.957 5
  17487299.019   -34183553.136 7 -26536040.454 8
  21182274.511      918752.047 5    780283.735 3
  18667827.167   -31185364.161 7 -24204808.571 9
  18790547.761   -23946418.468 7 -18448204.570 8
 94  1 19 20  7 59.9910000  0  6 25 18 14 15 29 22
  20778489.550     -126008.150 6    -38943.356 6
  20741467.198   -10024314.017 5  -7715997.461 4
  17477183.651   -34236717.577 7 -26577467.287 8
  21193102.151      975651.392 5    824620.741 4
  18652232.675   -31267303.888 7 -24268657.690 9
  18775808.612   -24023875.137 7 -18508560.406 8
 94  1 19 20  8 29.9910000  0  6 25 18 14 15 29 22
  20787701.933      -77600.135 6     -1222.875 6
  20718813.761   -10143364.450 5  -7808763.971 5
  17467179.019   -34289302.923 7 -26618442.877 8
  21203934.690     1032571.153 5    868973.697 3
  18636660.151   -31349129.537 7 -24332417.928 9
  18761174.175   -24100767.652 7 -18568476.634 8
 94  1 19 20  8 59.9910000  0  6 25 18 14 15 29 22
  20796930.190      -29104.843 6     36565.609 5
  20696158.800   -10262405.053 5  -7901522.784 5
  17457279.800   -34341323.007 7 -26658978.012 8
  21214771.026     1089517.209 5    913347.115 4
  18621114.815   -31430826.056 7 -24396077.543 9
  18746652.511   -24177091.682 7 -18627949.894 8
 94  1 19 20  9 29.9910000  0  6 25 18 14 15 29 22
  20806178.019       19490.163 6     74431.804 5
  20673508.081   -10381438.805 5  -7994276.291 5
  17447483.511   -34392794.287 7 -26699085.499 8
  21225608.456     1146484.227 5    957736.865 4
  18605586.565   -31512404.152 7 -24459644.880 9
  18732239.050   -24252849.444 7 -18686981.903 8
 94  1 19 20  9 59.9900000  0  6 25 18 14 15 29 22
  20815446.881       68189.768 6    112379.497 6
  20650862.311   -10500446.520 5  -8087009.495 5
  17437790.068   -34443716.772 7 -26738765.356 8
  21236454.350     1203473.893 4   1002144.251 4
  18590092.951   -31593831.013 7 -24523094.374 9
  18717933.912   -24328030.063 7 -18745564.190 8
 94  1 19 20 10 29.9900000  0  6 25 18 14 15 29 22
  20824732.139      116987.464 6    150403.624 5
  20628221.467   -10619427.207 5  -8179721.627 5
  17428203.084   -34494107.716 7 -26778031.034 8
  21247303.170     1260483.305 4   1046567.055 4
  18574630.748   -31675099.359 7 -24586420.353 8
  18703732.100   -24402633.165 7 -18803696.468 8
 94  1 19 20 10 59.9900000  0  6 25 18 14 15 29 22
  20834036.311      165880.887 5    188502.337 6
  20605589.045   -10738355.858 5  -8272393.226 5
  17418718.272   -34543969.332 7 -26816884.241 8
  21258154.053     1317505.150 4   1090999.531 5
  18559193.662   -31756210.423 7 -24649623.763 9
  18689648.506   -24476652.108 7 -18861373.544 8
 94  1 19 20 11 29.9900000  0  6 25 18 14 15 29 22
  20843357.404      214864.947 5    226671.669 5
  20582970.303   -10857217.471 5  -8365012.598 5
  17409329.912   -34593279.198 7 -26855307.508 8
  21269008.311     1374541.298 4   1135443.143 2
  18543790.920   -31837166.773 7 -24712706.623 8
  18675674.537   -24550094.734 7 -18918601.535 8
 94  1 19 20 11 59.9900000  0  6 25 18 14 15 29 22
  20852696.904      263945.030 5    264915.827 5
  20560368.311   -10975983.463 5  -8457557.463 5
  17400059.147   -34642013.592 7 -26893282.363 8
  21279866.232     1431616.133 4   1179916.922 4
  18528418.225   -31917944.122 7 -24775650.009 9
  18661810.389   -24622951.414 7 -18975372.947 8
 94  1 19 20 12 29.9900000  0  6 25 18 14 15 29 22
  20862049.459      313101.435 5    303219.466 6
  20537784.779   -11094668.055 5  -8550038.901 5
  17390891.240   -34690183.838 7 -26930817.625 8
  21290734.350     1488706.263 4   1224402.603 2
  18513076.084   -31998582.703 7 -24838485.251 9
  18648050.607   -24695239.826 7 -19031701.542 8
 94  1 19 20 12 59.9900000  0  6 25 18 14 15 29 22
  20871416.897      362313.807 5    341566.708 5
  20515212.795   -11213285.676 5  -8642468.162 5
  17381830.397   -34737794.741 7 -26967917.035 8
  21301599.311     1545800.175 4   1268891.230 4
  18497746.717   -32079110.742 7 -24901234.358 9
  18634403.647   -24766988.808 7 -19087609.810 8
 94  1 19 20 13 29.9900000  0  6 25 18 14 15 29 22
  20880787.381      411574.722 5    379951.783 5
  20492655.787   -11331834.196 5  -8734843.569 5
  17372875.295   -34784856.675 7 -27004588.667 8
  21312463.037     1602892.796 4   1313378.845 4
  18482445.897   -32159531.352 7 -24963899.748 9
  18620850.076   -24838199.298 7 -19143098.463 8
 94  1 19 20 13 59.9900000  0  6 25 18 14 15 29 22
  20890176.428      460893.234 5    418381.739 5
  20470106.256   -11450310.503 5  -8827162.725 5
  17364026.318   -34831365.179 7 -27040829.063 8
  21323324.850     1659977.416 4   1357860.231 4
  18467165.397   -32239846.904 7 -25026483.273 9
  18607403.537   -24908841.621 7 -19198144.390 8
 94  1 19 20 14 29.9900000  0  6 25 18 14 15 29 22
  20899566.350      510260.801 5    456849.921 5
  20447569.959   -11568742.877 5  -8919447.627 5
  17355275.717   -34877332.401 7 -27076647.684 8
  21334182.107     1717027.761 4   1402314.899 3
  18451895.787   -32320069.030 7 -25088994.001 9
  18594074.186   -24978922.352 7 -19252752.718 8
 94  1 19 20 14 59.9900000  0  7 25 18 14 15 19 29 22
  20908978.287      559695.846 5    495370.693 5
  20425048.576   -11687110.228 5  -9011681.885 5
  17346638.459   -34922744.253 7 -27112033.537 8
  21345037.623     1774064.832 4   1446759.221 4
  21883656.818          -0.87013
  18436653.904   -32400164.738 7 -25151406.208 9
  18580845.662   -25048413.456 7 -19306901.592 8
 94  1 19 20 15 29.9900000  0  7 25 18 14 15 19 29 22
  20918399.029      609211.736 5    533954.454 5
  20402533.256   -11805427.016 5  -9103876.718 5
  17338103.186   -34967601.197 7 -27146987.008 8
  21355886.740     1831086.053 4   1491191.200 4
  21857401.186     -137988.949 3
  18421440.131   -32480106.149 7 -25213698.190 9
  18567740.100   -25117292.912 7 -19360573.855 8
 94  1 19 20 15 59.9900000  0  7 25 18 14 15 19 29 22
  20927838.928      658820.649 5    572610.705 5
  20380027.529   -11923689.913 5  -9196029.586 5
  17329676.865   -35011872.387 7 -27181484.040 8
  21366738.076     1888108.373 4   1535624.023 2
  21831177.389     -275772.602 3        -0.16212
  18406264.022   -32559873.116 7 -25275854.240 9
  18554749.029   -25185553.531 7 -19413763.912 8
 94  1 19 20 16 29.9900000  0  7 25 18 14 15 19 29 22
  20937291.983      708486.134 5    611311.041 5
  20357527.162   -12041923.671 5  -9288159.712 5
  17321357.404   -35055594.593 7 -27215553.297 8
  21377582.850     1945108.640 4   1580039.661 2
  21804994.912     -413369.918 3   -107218.865 2
  18391114.522   -32639481.674 7 -25337886.848 9
  18541866.272   -25253242.460 7 -19466508.500 8
 94  1 19 20 16 59.9900000  0  7 25 18 14 15 19 29 22
  20946750.154      758192.431 5    650043.180 5
  20335033.147   -12160138.641 5  -9380275.214 5
  17313138.029   -35098779.312 7 -27249203.738 8
  21388425.818     2002079.397 4   1624432.307 2
  21778839.811     -550805.579 3   -214311.538 2
  18375993.084   -32718939.548 7 -25399802.043 9
  18529098.404   -25320366.463 7 -19518812.881 8
 94  1 19 20 17 29.9900000  0  7 25 18 14 15 19 29 22
  20956219.990      807952.781 5    688817.447 5
  20312541.631   -12278321.369 5  -9472365.568 5
  17305028.842   -35141405.050 7 -27282418.599 8
  21399264.850     2059027.202 4   1668807.085 4
  21752715.873     -688091.798 4   -321287.841 2
  18360906.490   -32798232.657 7 -25461588.839 9
  18516426.248   -25386918.502 7 -19570671.575 8
 94  1 19 20 17 59.9900000  0  7 25 18 14 15 19 29 22
  20965696.568      857763.565 5    727631.011 5
  20290064.857   -12396444.211 5  -9564409.277 5
  17297022.506   -35183471.447 7 -27315197.622 7
  21410096.107     2115954.132 3   1713165.562 3
  21726621.725     -825230.726 4   -428149.307 2
  18345843.951   -32877372.387 7 -25523256.125 9
  18503878.076   -25452899.025 7 -19622084.947 8
 94  1 19 20 18 29.9900000  0  7 25 18 14 15 19 29 22
  20975185.428      907624.007 5    766483.261 5
  20267598.303   -12514506.681 5  -9656405.931 5
  17289124.334   -35224987.166 7 -27347547.543 8
  21420922.975     2172849.825 3   1757499.695 4
  21700548.436     -962229.610 4   -534901.652 1
  18330811.717   -32956366.158 7 -25584809.680 9
  18491426.943   -25518301.468 7 -19673047.869 8
 94  1 19 20 18 59.9900000  0  7 25 18 14 15 19 29 22
  20984680.764      957539.399 5    805378.323 5
  20245145.154   -12632498.998 5  -9748347.926 5
  17281326.764   -35265943.823 7 -27379461.823 8
  21431746.983     2229709.899 4   1801806.077 3
  21674505.240    -1099092.436 3   -641547.941 1
  18315805.287   -33035221.745 7 -25646255.556 9
  18479098.857   -25583114.972 7 -19723551.877 8
 94  1 19 20 19 29.9900000  0  7 25 18 14 15 19 29 22
  20994194.178     1007504.117 5    844311.818 5
  20222707.139   -12750405.554 5  -9840223.097 5
  17273641.607   -35306341.091 7 -27410940.233 8
  21442555.490     2286527.863 4   1846079.678 2
  21648489.779    -1235802.682 3   -748075.377 2
  18300828.483   -33113949.625 7 -25707601.922 9
  18466868.779   -25647351.236 7 -19773606.084 8
 94  1 19 20 19 59.9900000  0  7 25 18 14 15 19 29 22
  21003711.233     1057516.254 5    883282.263 5
  20200288.975   -12868216.945 6  -9932024.102 5
  17266061.186   -35346167.183 7 -27441973.562 7
  21453366.381     2343316.992 3   1890330.771 2
  21622512.529    -1372324.391 3   -854455.899 1
  18285869.248   -33192540.118 7 -25768841.231 8
  18454764.162   -25710993.071 7 -19823197.100 8
 94  1 19 20 20 29.9900000  0  7 25 18 14 15 19 29 22
  21013230.662     1107564.810 5    922281.077 5
  20177886.225   -12985942.078 5 -10023757.925 5
  17258593.897   -35385423.224 7 -27472562.693 7
  21464160.209     2400065.010 3   1934549.847 2
  21596567.998    -1508666.083 3   -960696.104 2
  18270939.881   -33270993.986 7 -25829974.085 9
  18442763.287   -25774044.103 7 -19872327.757 8
 94  1 19 20 20 59.9900000  0  7 25 18 14 15 19 29 22
  21022760.701     1157636.702 5    961298.079 5
  20155500.389   -13103576.675 5 -10115421.177 5
  17251229.779   -35424109.501 7 -27502707.852 8
  21474950.967     2456764.935 4   1978731.408 4
  21570651.498    -1644834.833 3  -1066801.568 2
  18256038.389   -33349308.748 7 -25890998.550 9
  18430877.365   -25836509.145 7 -19921001.798 8
 94  1 19 20 21 29.9900000  0  7 25 18 14 15 19 29 22
  21032293.076     1207719.881 5   1000323.869 5
  20133129.076   -13221147.210 5 -10207034.514 5
  17243976.756   -35462232.314 7 -27532413.952 7
  21485729.342     2513404.761 3   2022866.151 2
  21544777.514    -1780840.360 3  -1172779.853 1
  18241160.725   -33427478.686 7 -25951910.163 9
  18419100.951   -25898388.217 7 -19969219.228 8
 94  1 19 20 21 59.9900000  0  7 25 18 14 15 19 29 22
  21041823.029     1257816.505 5   1039360.137 5
  20110764.561   -13338673.213 5 -10298613.151 5
  17236830.647   -35499786.950 7 -27561677.314 7
  21496496.592     2569979.802 3   2066950.426 2
  21518916.858    -1916709.747 3  -1278652.036 3
  18226316.881   -33505494.405 7 -26012701.609 9
  18407437.834   -25959671.069 7 -20016972.084 8
 94  1 19 20 22 29.9900000  0  7 25 18 14 15 19 29 22
  21051363.545     1307948.722 5   1078424.143 5
  20088406.553   -13456149.859 5 -10390153.336 5
  17229792.053   -35536760.468 7 -27590487.859 8
  21507248.490     2626498.100 3   2110990.466 1
  21493086.818    -2052444.718 3  -1384419.530 3
  18211501.365   -33583339.380 7 -26073360.008 9
  18395895.959   -26020350.126 7 -20064254.441 8
 94  1 19 20 22 59.9900000  0  7 25 18 14 15 19 29 22
  21060909.701     1358108.199 5   1117509.396 5
  20066058.279   -13573605.004 5 -10481676.766 5
  17222866.193   -35573166.842 7 -27618856.473 7
  21517990.983     2682943.155 3   2154973.436 3
  21467284.311    -2188049.193 3  -1490085.314 4
  18196724.084   -33661018.987 7 -26133889.552 9
  18384453.912   -26080439.368 7 -20111077.216 8
 94  1 19 20 23 29.9900000  0  7 25 18 14 15 19 29 22
  21070461.100     1408309.996 5   1156627.619 5
  20043707.186   -13691047.318 5 -10573190.217 5
  17216045.748   -35609003.697 7 -27646781.302 8
  21528727.068     2739320.208 4   2198903.420 1
  21441507.803    -2323506.123 3  -1595636.147 2
  18181973.670   -33738517.462 7 -26194277.958 9
  18373139.990   -26139928.884 7 -20157432.669 8
 94  1 19 20 23 59.9900000  0  7 25 18 14 15 19 29 22
  21080024.412     1458565.064 5   1195787.360 5
  20021364.936   -13808467.264 5 -10664686.210 5
  17209336.107   -35644270.369 7 -27674261.828 8
  21539436.818     2795632.962 3   2242783.255 2
  21415768.014    -2458793.210 3  -1701054.618 4
  18167258.498   -33815839.598 7 -26254528.953 9
  18361932.420   -26198824.603 7 -20203325.418 8
 94  1 19 20 24 29.9900000  0  7 25 18 14 15 19 29 22
  21089595.818     1508863.850 5   1234981.163 5
  19999024.490   -13925866.171 5 -10756165.824 5
  17202731.561   -35678980.060 7 -27701308.359 8
  21550138.701     2851870.969 3   2286604.889 2
  21390055.529    -2593892.369 4  -1806326.675 5
  18152578.303   -33893001.969 7 -26314655.468 9
  18350831.881   -26257132.193 7 -20248759.887 8
 94  1 19 20 24 59.9900000  0  7 25 18 14 15 19 29 22
  21099174.982     1559204.377 5   1274207.490 5
  19976690.772   -14043232.548 6 -10847620.063 5
  17196231.217   -35713133.599 7 -27727921.519 8
  21560828.561     2908033.042 3   2330367.348 2
  21364386.975    -2728783.185 4  -1911436.376 3
  18137922.537   -33970012.414 7 -26374663.593 9
  18339851.233   -26314846.412 7 -20293732.002 8
 94  1 19 20 25 29.9900000  0  7 25 18 14 15 19 29 22
  21108763.928     1609583.139 5   1313463.619 5
  19954366.842   -14160549.154 6 -10939035.537 5
  17189836.631   -35746725.807 7 -27754097.277 7
  21571505.772     2964122.018 3   2374072.816 1
  21338755.686    -2863461.448 4  -2016380.442 4
  18123295.483   -34046886.003 7 -26434565.079 9
  18328980.365   -26371972.980 7 -20338246.196 8
 94  1 19 20 25 59.9900000  0  7 25 18 14 15 19 29 22
  21118358.654     1659992.862 5   1352743.848 5
  19932057.498   -14277795.129 6 -11030395.981 5
  17183555.936   -35779748.645 7 -27779829.370 7
  21582164.732     3020138.268 3   2417721.627 2
  21313168.904    -2997928.201 4  -2121159.703 4
  18108688.279   -34123634.590 7 -26494369.162 9
  18318220.029   -26428513.027 7 -20382303.356 8
 94  1 19 20 26 29.9900000  0  7 25 18 14 15 19 29 22
  21127954.068     1710426.157 5   1392042.468 5
  19909761.342   -14394949.990 5 -11121685.414 5
  17177380.639   -35812197.044 7 -27805113.849 8
  21592805.850     3076082.304 3   2461314.183 1
  21287619.178    -3132195.485 4  -2225783.518 2
  18094108.475   -34200256.903 7 -26554074.846 9
  18307574.693   -26484455.143 7 -20425894.601 8
 94  1 19 20 26 59.9900000  0  7 25 18 14 15 19 29 22
  21137552.318     1760868.963 5   1431348.489 4
  19887484.654   -14512013.316 6 -11212903.503 5
  17171310.928   -35844080.083 7 -27829957.788 8
  21603433.764     3131943.453 3   2504842.120 2
  21262102.303    -3266285.327 3  -2330269.076 2
  18079552.123   -34276748.424 7 -26613678.610 9
  18297045.920   -26539806.710 7 -20469025.673 8
 94  1 19 20 27 29.9900000  0  7 25 18 14 15 19 29 22
  21147153.178     1811318.617 5   1470659.831 4
  19865225.084   -14628981.593 5 -11304047.558 5
  17165352.654   -35875394.883 7 -27854358.944 8
  21614054.561     3187721.788 3   2548305.559 2
  21236617.654    -3400218.958 4  -2434632.935 2
  18065023.717   -34353093.227 7 -26673168.053 9
  18286625.545   -26594561.619 7 -20511691.818 8
 94  1 19 20 27 59.9890000  0  7 25 18 14 15 19 29 22
  21156758.814     1861789.368 5   1509987.641 4
  19842986.696   -14745843.607 6 -11395108.772 5
  17159504.610   -35906129.861 7 -27878308.284 8
  21624651.485     3243422.755 3   2591708.701 1
  21211160.681    -3533985.575 4  -2538866.649 2
  18050531.165   -34429263.098 7 -26732521.177 9
  18276321.524   -26648686.744 7 -20553867.221 8
 94  1 19 20 28 29.9890000  0  7 25 18 14 15 19 29 22
  21166364.548     1912277.315 5   1549328.839 3
  19820763.103   -14862630.451 5 -11486111.423 5
  17153765.189   -35936305.471 7 -27901821.763 8
  21635231.196     3299034.306 3   2635042.202 1
  21185733.907    -3667602.679 3  -2642983.844 3
  18036065.853   -34505267.109 7 -26791745.070 9
  18266139.540   -26702198.426 7 -20595564.620 8
 94  1 19 20 28 59.9890000  0  8 25 18 14 15 19 29 22  4
  21175977.501     1962793.853 5   1588692.296 4
  19798551.782   -14979347.844 6 -11577059.954 6
  17148131.673   -35965909.789 7 -27924890.073 8
  21645790.485     3354558.454 2   2678307.551 1
  21160334.462    -3801059.408 4  -2746976.084 4
  18021637.650   -34581092.252 7 -26850829.581 9
  18256071.985   -26755094.225 7 -20636782.107 8
  21754531.103          -0.92613
 94  1 19 20 29 29.9890000  0  8 25 18 14 15 19 29 22  4
  21185596.876     2013337.741 5   1628077.095 4
  19776353.095   -15096011.840 6 -11667966.873 5
  17142605.110   -35994947.443 7 -27947516.826 8
  21656345.985     3409985.188 3   2721496.997 2
  21134974.532    -3934350.660 4  -2850839.369 3
  18007239.806   -34656750.424 7 -26909783.989 9
  18246123.876   -26807386.129 7 -20677529.036 8
  21740679.173      -72855.043 3
 94  1 19 20 29 59.9890000  0  8 25 18 14 15 19 29 22  4
  21195220.212     2063916.400 5   1667488.978 3
  19754162.220   -15212621.270 6 -11758831.270 6
  17137186.931   -36023414.859 7 -27969699.245 8
  21666876.509     3465315.988 3   2764611.721 2
  21109646.571    -4067450.811 4  -2954553.738 3
  17992874.345   -34732250.445 7 -26968615.167 9
  18236287.587   -26859069.013 7 -20717801.401 8
  21726902.079     -145206.759 3        -0.02912
 94  1 19 20 30 29.9890000  0  8 25 18 14 15 19 29 22  4
  21204852.603     2114517.415 5   1706918.268 4
  19731981.657   -15329182.945 6 -11849658.461 6
  17131875.446   -36051322.839 7 -27991445.743 8
  21677384.923     3520542.827 3   2807645.409 1
  21084353.064    -4200368.117 4  -3058125.667 4
  17978534.329   -34807600.117 7 -27027329.187 9
  18226569.009   -26910157.238 7 -20757610.392 8
  21713229.095     -217066.874 3    -55994.938 2
 94  1 19 20 30 59.9890000  0  8 25 18 14 15 19 29 22  4
  21214483.282     2165139.273 5   1746363.811 4
  19709808.868   -15445688.167 6 -11940441.667 5
  17126672.571   -36078663.581 7 -28012750.227 8
  21687876.001     3575666.171 3   2850598.455 2
  21059094.181    -4333101.587 5  -3161554.322 4
  17964227.337   -34882784.104 7 -27085914.097 9
  18216960.306   -26960645.447 7 -20796951.831 8
  21699636.603     -288444.526 3   -111613.899 2
 94  1 19 20 31 29.9890000  0  8 25 18 14 15 19 29 22  4
  21224120.446     2215782.375 5   1785825.884 5
  19687654.970   -15562114.514 6 -12031163.396 6
  17121579.665   -36105429.888 7 -28033607.109 8
  21698347.298     3630694.884 3   2893477.812 1
  21033877.532    -4465618.296 4  -3264814.087 5
  17949956.907   -34957784.993 7 -27144356.341 9
  18207468.267   -27010511.724 7 -20835808.666 9
  21686153.017     -359331.350 3   -166850.403 3
 94  1 19 20 31 59.9890000  0  8 25 18 14 15 19 29 22  4
  21233762.306     2266433.980 5   1825294.592 4
  19665513.376   -15678467.934 6 -12121828.326 5
  17116594.087   -36131626.476 7 -28054020.050 8
  21708802.274     3685619.884 3   2936276.339 2
  21008697.392    -4597931.334 4  -3367915.118 4
  17935715.931   -35032607.967 7 -27202659.946 9
  18198101.735   -27059752.524 7 -20874178.102 9
  21672758.017     -429727.660 3   -221704.689 2
 94  1 19 20 32 29.9890000  0  8 25 18 14 15 19 29 22  4
  21243401.806     2317093.736 5   1864769.658 5
  19643388.493   -15794740.989 6 -12212430.624 5
  17111720.306   -36157241.167 7 -28073979.562 8
  21719225.876     3740438.907 3   2978992.247 1
  20983556.970    -4730053.127 4  -3470867.147 3
  17921513.118   -35107244.100 7 -27260817.962 9
  18188849.032   -27108369.695 7 -20912061.592 8
  21659460.110     -499645.070 3   -276185.789 2
 94  1 19 20 32 59.9890000  0  7 25 18 14 19 29 22  4
  21253040.056     2367755.239 4   1904246.082 5
  19621279.384   -15910925.654 6 -12302964.054 5
  17106957.470   -36182274.083 7 -28093485.742 8
  20958452.454    -4861974.247 4  -3573662.799 2
  17907344.306   -35181710.602 7 -27318843.804 9
  18179712.907   -27156369.505 7 -20949464.023 9
  21646251.681     -569081.656 3   -330292.216 2
 94  1 19 20 33 29.9890000  0  7 25 18 14 19 29 22  4
  21262679.923     2418419.142 4   1943724.367 5
  19599186.884   -16027017.378 6 -12393425.072 6
  17102306.798   -36206718.572 7 -28112533.411 8
  20933387.564    -4993692.966 5  -3676300.716 4
  17893204.056   -35256021.655 7 -27376748.506 9
  18170697.853   -27203738.205 7 -20986374.688 8
  21633126.134     -638009.591 3   -384002.286 2
 94  1 19 20 33 59.9890000  0  7 25 18 14 19 29 22  4
  21272323.290     2469077.904 4   1983198.650 5
  19577110.657   -16143036.485 6 -12483829.499 5
  17097764.548   -36230580.335 7 -28131127.004 8
  20908354.853    -5125242.935 5  -3778807.114 5
  17879089.798   -35330196.403 7 -27434547.008 9
  18161799.923   -27250499.089 7 -21022811.722 8
  21620108.728     -706440.189 3   -437324.837 2
 94  1 19 20 34 29.9890000  0  7 25 18 14 19 29 22  4
  21281965.095     2519763.699 5   2022694.004 5
  19555051.220   -16258954.637 6 -12574155.289 6
  17093338.985   -36253834.726 7 -28149247.319 8
  20883359.978    -5256591.273 5  -3881156.403 5
  17865006.212   -35404205.974 7 -27492216.788 9
  18153021.126   -27296636.708 7 -21058763.088 8
  21607172.220     -774348.102 3   -490240.078 2
 94  1 19 20 34 59.9890000  0  7 25 18 14 19 29 22  4
  21291612.376     2570451.895 5   2062191.243 3
  19533005.204   -16374809.324 6 -12664431.600 6
  17089022.134   -36276512.112 7 -28166918.020 8
  20858397.306    -5387754.449 5  -3983361.400 5
  17850949.782   -35478056.632 7 -27549762.745 9
  18144359.884   -27342174.355 7 -21094246.954 8
  21594360.329     -841746.538 3   -542758.346 4
 94  1 19 20 35 29.9890000  0  7 25 18 14 19 29 22  4
  21301257.845     2621135.844 5   2101685.176 5
  19510966.087   -16490626.536 6 -12754678.736 5
  17084817.673   -36298609.372 7 -28184136.675 8
  20833469.251    -5518744.243 5  -4085431.298 5
  17836931.642   -35551733.587 7 -27607173.338 9
  18135804.626   -27387120.608 7 -21129269.991 9
  21581631.689     -908643.762 3   -594886.075 2
 94  1 19 20 35 59.9890000  0  7 25 18 14 19 29 22  4
  21310905.056     2671829.947 5   2141186.987 4
  19488934.681   -16606397.057 6 -12844889.488 6
  17080724.532   -36320127.542 7 -28200904.098 8
  20808583.056    -5649542.109 5  -4187351.613 4
  17822946.720   -35625224.412 7 -27664438.907 9
  18127360.017   -27431489.619 7 -21163843.232 9
  21568978.032     -975047.741 3   -646629.434 2
 94  1 19 20 36 29.9890000  0  7 25 18 14 19 29 22  4
  21320547.501     2722501.632 5   2180671.375 3
  19466914.735   -16722120.489 6 -12935063.551 6
  17076736.329   -36341092.035 7 -28217240.078 8
  20783730.892    -5780162.544 5  -4289133.687 4
  17808995.954   -35698538.035 7 -27721566.389 9
  18119022.923   -27475295.339 7 -21197977.537 9
  21556439.673    -1040964.330 3   -697993.049 4
 94  1 19 20 36 59.9890000  0  7 25 18 14 19 29 22  4
  21330185.407     2773170.943 5   2220153.883 2
  19444906.360   -16837765.509 6 -13025176.511 6
  17072856.907   -36361475.960 7 -28233123.660 8
  20758911.314    -5910580.195 5  -4390757.735 5
  17795079.681   -35771661.368 7 -27778545.588 9
  18110801.376   -27518504.649 7 -21231647.105 9
  21544005.689    -1106361.096 3   -748951.565 3
 94  1 19 20 37 29.9890000  0  7 25 18 14 19 29 22  4
  21339822.001     2823798.337 5   2259603.768 2
  19422912.017   -16953351.745 6 -13115243.674 6
  17069078.610   -36381324.741 7 -28248590.253 8
  20734125.900    -6040829.028 5  -4492250.229 5
  17781189.196   -35844652.996 7 -27835422.161 9
  18102688.071   -27561147.586 7 -21264875.340 9
  21531648.517    -1171280.019 3   -799537.733 2
 94  1 19 20 37 59.9890000  0  7 25 18 14 19 29 22  4
  21349454.673     2874407.030 5   2299039.050 3
  19400937.110   -17068836.166 6 -13205231.496 6
  17065403.173   -36400634.244 7 -28263636.630 8
  20709373.048    -6170888.598 5  -4593595.251 3
  17767326.681   -35917499.098 7 -27892185.333 9
  18094689.446   -27603191.018 7 -21297636.430 8
  21519394.634    -1235696.203 3   -849732.177 3
 94  1 19 20 38 29.9890000  0  7 25 18 14 19 29 22  4
  21359080.728     2925008.053 5   2338468.360 2
  19378980.228   -17184204.280 6 -13295128.691 6
  17061837.337   -36419381.396 7 -28278244.813 8
  20684661.900    -6300749.178 5  -4694785.244 2
  17753497.587   -35990176.015 7 -27948816.680 9
  18086808.196   -27644594.183 7 -21329898.611 9
  21507232.118    -1299598.783 3   -899526.422 3
 94  1 19 20 38 59.9890000  0  6 18 14 19 29 22  4
  19357047.220   -17299467.621 6 -13384944.241 6
  17058379.165   -36437558.385 7 -28292408.712 8
  20659992.892    -6430390.458 5  -4795804.362 3
  17739699.392   -36062684.623 7 -28005316.875 9
  18079050.712   -27685355.596 7 -21361660.726 8
  21495150.946    -1363008.497 3   -948936.574 2
 94  1 19 20 39 29.9890000  0  6 18 14 19 29 22  4
  19335133.939   -17414637.918 6 -13474687.299 6
  17055024.149   -36455172.852 7 -28306134.291 8
  20635363.767    -6559817.084 5  -4896656.190 4
  17725936.985   -36135015.769 7 -28061678.783 9
  18071416.439   -27725483.645 7 -21392929.323 9
  21483194.868    -1425937.641 3   -997972.316 2
 94  1 19 20 39 59.9890000  0  6 18 14 19 29 22  4
  19313229.462   -17529741.336 6 -13564378.240 6
  17051782.306   -36472232.044 7 -28319427.176 8
  20610776.118    -6689039.088 5  -4997348.578 5
  17712206.009   -36207163.234 7 -28117897.561 9
  18063895.345   -27764994.603 7 -21423717.062 9
  21471308.212    -1488392.376 3  -1046638.359 4
 94  1 19 20 40 29.9890000  0  6 18 14 19 29 22  4
  19291338.595   -17644786.276 6 -13654023.603 6
  17048642.478   -36488712.003 7 -28332268.718 8
  20586222.040    -6818047.286 5  -5097874.372 4
  17698516.384   -36279111.866 7 -28173961.422 9
  18056497.829   -27803880.048 7 -21454017.395 9
  21459525.946    -1550348.942 3  -1094916.212 2
 94  1 19 20 40 59.9890000  0  6 18 14 19 29 22  4
  19269453.759   -17759782.157 6 -13743630.752 6
  17045617.673   -36504622.528 7 -28344666.545 8
  20561709.556    -6946850.181 5  -5198240.201 4
  17684858.314   -36350871.931 7 -28229878.336 9
  18049212.759   -27842157.201 7 -21483843.730 8
  21447830.220    -1611792.191 3  -1142794.121 2
 94  1 19 20 41 29.9890000  0  6 18 14 19 29 22  4
  19247578.415   -17874737.457 6 -13833206.253 6
  17042692.314   -36519981.243 7 -28356634.398 8
  20537231.235    -7075481.983 5  -5298472.712 5
  17671237.806   -36422451.743 7 -28285654.797 9
  18042045.759   -27879832.432 7 -21513201.049 9
  21436236.235    -1672718.321 3  -1190269.053 2
 94  1 19 20 41 59.9890000  0  6 18 14 19 29 22  4
  19225713.384   -17989632.505 6 -13922734.814 6
  17039880.024   -36534772.924 7 -28368160.404 8
  20512789.196    -7203938.227 5  -5398568.404 5
  17657653.634   -36493846.283 7 -28341286.893 9
  18034989.329   -27916894.121 7 -21542080.274 9
  21424725.181    -1733117.269 3  -1237333.185 2
 94  1 19 20 42 29.9890000  0  6 18 14 19 29 22  4
  19203866.462   -18104438.870 6 -14012194.255 6
  17037173.470   -36548980.355 7 -28379231.142 8
  20488382.056    -7332210.139 5  -5498520.458 4
  17644100.814   -36565058.640 7 -28396777.025 9
  18028057.845   -27953346.214 7 -21570484.494 8
  21413340.001    -1792991.059 3  -1283988.081 2
 94  1 19 20 42 59.9890000  0  6 18 14 19 29 22  4
  19182040.189   -18219141.363 6 -14101572.765 6
  17034583.423   -36562607.659 7 -28389849.842 8
  20464008.853    -7460288.361 5  -5598321.588 4
  17630584.103   -36636087.978 7 -28452124.548 9
  18021231.360   -27989194.820 7 -21598418.468 8
  21402041.970    -1852365.714 3  -1330254.091 2
 94  1 19 20 43 29.9890000  0  6 18 14 19 29 22  4
  19160234.126   -18333734.036 6 -14190865.695 6
  17032097.337   -36575659.887 7 -28400020.435 8
  20439673.095    -7588168.887 5  -5697968.689 5
  17617103.267   -36706930.343 7 -28507326.383 9
  18014525.337   -28024449.988 7 -21625890.022 9
  21390838.056    -1911260.759 3  -1376146.330 2
 94  1 19 20 43 59.9890000  0  6 18 14 19 29 22  4
  19138445.017   -18448232.259 6 -14280085.050 6
  17029722.392   -36588145.149 7 -28409749.235 8
  20415376.954    -7715846.383 5  -5797457.600 4
  17603655.814   -36777602.544 7 -28562395.622 9
  18007924.634   -28059128.235 7 -21652912.016 9
  21379723.110    -1969697.178 3  -1421681.234 2
 94  1 19 20 44 29.9890000  0  6 18 14 19 29 22  4
  19116675.610   -18562634.227 6 -14369229.383 6
  17027455.509   -36600061.857 7 -28419034.998 8
  20391119.954    -7843309.679 5  -5896779.614 4
  17590239.892   -36848098.881 7 -28617327.824 9
  18001435.446   -28093227.159 7 -21679482.594 9
  21368673.501    -2027674.057 3  -1466858.039 3
 94  1 19 20 44 59.9890000  0  6 18 14 19 29 22  4
  19094922.048   -18676946.278 6 -14458303.665 6
  17025292.321   -36611422.647 7 -28427887.583 8
  20366905.829    -7970568.162 5  -5995942.043 4
  17576858.681   -36918417.504 7 -28672121.545 9
  17995063.064   -28126729.889 7 -21705588.600 9
  21357733.298    -2085186.975 3  -1511673.347 2
 94  1 19 20 45 29.9890000  0  6 18 14 19 29 22  4
  19073185.025   -18791169.226 6 -14547308.516 6
  17023238.571   -36622223.650 7 -28436303.974 8
  20342729.204    -8097620.835 5  -6094944.084 4
  17563511.087   -36988562.450 7 -28726779.938 9
  17988799.915   -28159629.175 7 -21731224.385 8
  21346894.329    -2142215.774 3  -1556111.377 1
 94  1 19 20 45 59.9880000  0  6 18 14 19 29 22  4
  19051466.863   -18905304.494 6 -14636245.058 6
  17021291.332   -36632453.973 7 -28444275.677 8
  20318589.418    -8224463.939 5  -6193782.803 4
  17550197.356   -37058534.648 7 -28781303.727 9
  17982653.856   -28191920.262 7 -21756386.253 9
  21336137.020    -2198753.289 3  -1600166.596 3
 94  1 19 20 46 29.9880000  0  6 18 14 19 29 22  4
  19029767.934   -19019341.077 6 -14725104.689 6
  17019452.637   -36642105.383 7 -28451796.269 8
  20294491.520    -8351100.515 5  -6292460.602 5
  17536917.793   -37128314.848 7 -28835677.899 9
  17976630.449   -28223591.359 7 -21781065.009 9
  21325465.317    -2254779.534 3  -1643823.424 2
 94  1 19 20 46 59.9880000  0  6 18 14 19 29 22  4
  19008083.223   -19133295.439 6 -14813900.248 6
  17017726.949   -36651188.903 7 -28458874.360 8
  20270433.731    -8477531.590 5  -6390978.267 5
  17523675.238   -37197907.610 7 -28889906.021 9
  17970718.067   -28254648.473 7 -21805265.345 9
  21314897.059    -2310288.868 3  -1687077.477 3
 94  1 19 20 47 29.9880000  0  6 18 14 19 29 22  4
  18986405.356   -19247206.225 6 -14902661.867 6
  17016103.449   -36659722.945 7 -28465524.282 8
  20246412.293    -8603766.252 5  -6489342.857 5
  17510462.582   -37267337.946 7 -28944007.572 9
  17964916.551   -28285121.601 7 -21829010.613 9
  21304437.824    -2365304.293 3  -1729946.660 2
 94  1 19 20 47 59.9880000  0  6 18 14 19 29 22  4
  18964741.934   -19361051.450 6 -14991372.394 6
  17014583.285   -36667703.673 7 -28471743.052 8
  20222430.285    -8729792.019 5  -6587544.671 5
  17497284.465   -37336582.664 7 -28997964.492 9
  17959235.457   -28314997.832 7 -21852290.769 9
  21294055.309    -2419821.793 3  -1772427.843 2
 94  1 19 20 48 29.9880000  0  6 18 14 19 29 22  4
  18943090.199   -19474831.871 6 -15080032.420 6
  17013163.934   -36675153.355 7 -28477548.020 8
  20198486.824    -8855612.618 5  -6685586.627 5
  17484141.754   -37405647.316 7 -29051781.096 9
  17953666.676   -28344273.802 7 -21875103.191 9
  21283772.215    -2473846.767 3  -1814525.249 2
 94  1 19 20 48 59.9880000  0  6 18 14 19 29 22  4
  18921453.629   -19588532.337 6 -15168630.146 6
  17011847.504   -36682071.963 7 -28482939.165 8
  20174584.231    -8981222.290 5  -6783464.210 5
  17471031.371   -37474540.072 7 -29105463.759 9
  17948210.332   -28372941.049 7 -21897441.287 9
  21273586.457    -2527386.222 3  -1856244.327 3
 94  1 19 20 49 29.9880000  0  6 18 14 19 29 22  4
  18899839.098   -19702120.303 6 -15257140.207 6
  17010634.270   -36688444.757 7 -28487904.997 8
  20150722.356    -9106615.416 5  -6881173.056 5
  17457962.035   -37543235.456 7 -29158992.626 9
  17942873.004   -28400980.494 7 -21919290.191 9
  21263491.418    -2580433.829 3  -1897580.109 3
 94  1 19 20 49 59.9880000  0  6 18 14 19 29 22  4
  18878245.934   -19815595.038 6 -15345562.035 6
  17009522.309   -36694285.319 7 -28492456.099 8
  20126897.441    -9231817.597 5  -6978733.128 5
  17444924.965   -37611734.667 7 -29212368.631 9
  17937655.356   -28428403.348 7 -21940658.640 9
  21253497.809    -2632995.956 3  -1938537.635 2
 94  1 19 20 50 29.9880000  0  6 18 14 19 29 22  4
  18856670.043   -19928958.689 6 -15433897.303 6
  17008516.973   -36699578.793 7 -28496580.908 8
  20103109.309    -9356832.923 5  -7076147.580 5
  17431926.488   -37680043.711 7 -29265596.460 9
  17932554.715   -28455209.334 7 -21961546.407 9
  21243592.121    -2685062.398 3  -1979108.890 4
 94  1 19 20 50 59.9880000  0  6 18 14 19 29 22  4
  18835122.832   -20042214.057 6 -15522148.185 6
  17007615.817   -36704304.656 7 -28500263.414 8
  20079356.231    -9481653.470 5  -7173410.254 5
  17418966.270   -37748152.985 7 -29318668.624 9
  17927570.277   -28481402.166 7 -21981956.408 9
  21233774.488    -2736624.032 3  -2019286.796 1
 94  1 19 20 51 29.9880000  0  6 18 14 19 29 22  4
  18813584.418   -20155383.626 6 -15610332.199 6
  17006828.231   -36708461.074 7 -28503502.205 8
  20055637.863    -9606283.977 5  -7270524.834 5
  17406041.949   -37816064.065 7 -29371586.347 9
  17922699.238   -28506998.875 7 -22001901.889 9
  21224056.504    -2787677.904 3  -2059069.051 1
 94  1 19 20 51 59.9880000  0  6 18 14 19 29 22  4
  18792065.699   -20268465.834 6 -15698448.169 6
  17006144.207   -36712046.373 7 -28506295.970 8
  20031961.004    -9730705.790 5  -7367476.808 5
  17393157.035   -37883784.813 7 -29424355.763 9
  17917941.566   -28531998.156 7 -22021381.849 9
  21214432.551    -2838221.177 3  -2098453.431 2
 94  1 19 20 52 29.9880000  0  6 18 14 19 29 22  4
  18770562.481   -20381471.351 6 -15786504.360 6
  17005566.676   -36715077.114 7 -28508657.610 8
  20008323.723    -9854916.411 5  -7464264.231 5
  17380303.293   -37951332.108 7 -29476990.012 9
  17913293.020   -28556422.970 7 -22040414.164 9
  21204922.449    -2888281.031 3  -2137461.093 2
 94  1 19 20 52 59.9880000  0  6 18 14 19 29 22  4
  18749074.676   -20494384.643 6 -15874488.694 6
  17005098.895   -36717549.937 7 -28510584.502 8
  19984734.754    -9978891.351 5  -7560868.027 4
  17367487.043   -38018674.436 7 -29529464.547 9
  17908753.949   -28580267.608 7 -22058994.396 8
  21195476.965    -2937849.265 3  -2176085.683 2
 94  1 19 20 53 29.9880000  0  6 18 14 19 29 22  4
  18727593.684   -20607262.649 6 -15962445.527 6
  17004718.035   -36719548.417 7 -28512141.779 8
  19961174.192   -10102699.630 5  -7657341.929 5
  17354698.887   -38085876.945 7 -29581830.136 9
  17904314.598   -28603595.952 7 -22077172.321 9
  21186129.621    -2987003.467 3  -2214387.669 2
 94  1 19 20 53 59.9880000  0  6 18 14 19 29 22  4
  18706136.629   -20720022.016 6 -16050309.914 6
  17004440.731   -36721006.126 7 -28513277.681 9
  19937658.746   -10226269.113 5  -7753629.757 5
  17341952.262   -38152862.622 7 -29634026.760 9
  17899986.285   -28626345.575 7 -22094899.298 9
  21176866.332    -3035682.257 3  -2252319.192 2
 94  1 19 20 54 29.9880000  0  6 18 14 19 29 22  4
  18684704.543   -20832650.646 6 -16138072.452 6
  17004270.238   -36721903.613 7 -28513977.036 8
  19914190.973   -10349595.084 5  -7849727.835 5
  17329250.410   -38219612.172 7 -29686039.383 9
  17895768.941   -28648515.775 7 -22112174.771 9
  21167697.238    -3083863.255 3  -2289862.818 4
 94  1 19 20 54 59.9880000  0  6 18 14 19 29 22  4
  18663298.645   -20945142.325 6 -16225728.248 6
  17004205.707   -36722226.704 7
  19890768.020   -10472678.340 5  -7945636.772 5
  17316593.348   -38286121.872 7 -29737865.115 9
  17891666.410   -28670077.617 7 -22128976.198 9
  21158636.910    -3131523.794 3  -2327000.912 3
 94  1 19 20 55 29.9880000  0  6 18 14 19 29 22  4
  18641919.113   -21057493.751 6 -16313274.764 6
  17004259.121   -36721962.094 7
  19867393.949   -10595518.479 5  -8041356.265 5
  17303982.246   -38352403.370 7 -29789513.027 9
  17887679.418   -28691013.414 7 -22145289.794 9
  21149656.223    -3178658.525 3  -2363729.273 3
 94  1 19 20 55 59.9880000  0  6 18 14 19 29 22  4
  18620562.762   -21169715.182 6 -16400719.992 6
  17004424.231   -36721092.999 7 -28513345.460 8
  19844062.668   -10718118.708 5  -8136888.848 4
  17291409.770   -38418467.735 7 -29840991.740 9
  17883815.246   -28711319.227 7 -22161112.485 9
  21140784.801    -3225259.902 3  -2400042.030 3
 94  1 19 20 56 29.9880000  0  6 18 14 19 29 22  4
  18599226.832   -21281840.411 6 -16488090.264 6
  17004699.832   -36719637.161 7 -28512211.070 8
  19820776.293   -10840496.540 5  -8232248.149 5
  17278875.824   -38484335.340 7 -29892317.135 9
  17880075.231   -28730988.939 7 -22176439.522 9
  21132015.785    -3271345.910 3  -2435953.167 4
 94  1 19 20 56 59.9880000  0  6 18 14 19 29 22  4
  18577906.316   -21393883.515 6 -16575396.523 6
  17005084.231   -36717614.981 7 -28510635.365 8
  19797526.824   -10962663.832 5  -8327443.372 5
  17266377.637   -38550014.646 7 -29943495.800 9
  17876453.387   -28750015.746 7 -22191265.582 9
  21123345.168    -3316937.530 3  -2471479.114 2
 94  1 19 20 57 29.9880000  0  6 18 14 19 29 22  4
  18556599.699   -21505841.565 6 -16662636.530 6
  17005577.512   -36715036.862 7 -28508626.467 9
  19774321.371   -11084618.100 5  -8422472.579 5
  17253916.223   -38615493.680 7 -29994518.410 9
  17872949.496   -28768421.278 7 -22205607.535 8
  21114760.231    -3362050.865 3  -2506632.320 2
 94  1 19 20 57 59.9880000  0  6 18 14 19 29 22  4
  18535312.090   -21617709.605 6 -16749806.386 6
  17006169.606   -36711917.183 7 -28506195.570 9
  19751154.152   -11206353.964 5  -8517331.584 5
  17241496.012   -38680762.073 7 -30045376.885 9
  17869564.246   -28786227.012 7 -22219482.114 9
  21106261.887    -3406690.846 3  -2541416.733 3
 94  1 19 20 58 29.9880000  0  6 18 14 19 29 22  4
  18514044.027   -21729475.369 6 -16836896.551 6
  17006865.691   -36708282.472 7 -28503363.354 9
  19728030.176   -11327867.903 5  -8612017.672 5
  17229117.113   -38745813.078 7 -30096065.961 9
  17866282.684   -28803456.766 7 -22232907.879 8
  21097859.496    -3450869.697 3  -2575841.800 4
 94  1 19 20 58 59.9880000  0  6 18 14 19 29 22  4
  18492800.684   -21841122.289 6 -16923894.108 6
  17007644.418   -36704158.128 7 -28500149.603 9
  19704948.567   -11449178.343 5  -8706545.198 5
  17216778.465   -38810655.219 7 -30146592.288 9
  17863108.770   -28820145.466 7 -22245912.047 9
  21089532.027    -3494602.566 3  -2609919.331 3
 94  1 19 20 59 29.9880000  0  6 18 14 19 29 22  4
  18471583.613   -21952605.946 6 -17010764.450 6
  17008528.598   -36699523.287 7 -28496538.064 9
  19681906.199   -11570252.610 5  -8800888.685 5
  17204486.402   -38875256.226 7 -30196930.717 9
  17860035.535   -28836278.793 7 -22258483.459 9
  21081310.340    -3537863.072 3  -2643628.789 4
 94  1 19 20 59 59.9880000  0  6 18 14 19 29 22  4
  18450397.613   -22063945.126 6 -17097522.209 6
  17009502.348   -36694399.978 7 -28492545.901 9
  19658905.442   -11691110.376 5  -8895063.477 5
  17192233.793   -38939640.767 7 -30247100.469 9
  17857073.176   -28851860.153 7 -22270624.768 9
  21073156.660    -3580659.564 3  -2676976.705 2
 94  1 19 21  0 29.9880000  0  6 18 14 19 29 22  4
  18429241.777   -22175113.659 6 -17184146.989 7
  17010577.332   -36688764.528 7 -28488154.666 9
  19635950.582   -11811743.378 5  -8989063.109 5
  17180028.301   -39003781.650 7 -30297080.354 9
  17854218.606   -28866848.134 7 -22282303.708 9
  21065107.684    -3622968.283 3  -2709944.505 2
 94  1 19 21  0 59.9880000  0  6 18 14 19 29 22  4
  18408117.848   -22286125.038 6 -17270649.321 6
  17011747.910   -36682601.949 7 -28483352.673 9
  19613036.910   -11932163.699 5  -9082897.015 5
  17167867.942   -39067682.237 7 -30346872.996 9
  17851486.012   -28881218.190 7 -22293501.151 8
  21057149.348    -3664788.052 4  -2742531.323 2
 94  1 19 21  1 29.9880000  0  6 18 14 19 29 22  4
  18387016.613   -22397009.350 6 -17357052.621 7
  17013024.449   -36675886.389 7 -28478119.788 9
  19590167.731   -12052351.106 5  -9176549.404 5
  17155751.801   -39131350.182 7 -30396484.360 9
  17848873.965   -28894953.727 7 -22304204.162 8
  21049285.840    -3706102.154 3  -2774724.100 2
 94  1 19 21  1 59.9880000  0  6 18 14 19 29 22  4
  18365933.262   -22507798.550 6 -17443381.823 7
  17014410.434   -36668616.008 7 -28472454.579 9
  19567335.754   -12172323.330 5  -9270034.111 5
  17143678.402   -39194805.798 7 -30445930.273 9
  17846374.301   -28908072.797 7 -22314426.811 9
  21041519.652    -3746914.144 3  -2806525.623 2
 94  1 19 21  2 29.9880000  0  6 18 14 19 29 22  4
  18344867.707   -22618503.854 6 -17529645.642 6
  17015902.488   -36660780.236 7 -28466348.803 9
  19544544.137   -12292079.486 5  -9363350.463 5
  17131641.473   -39258055.068 7 -30495215.395 9
  17843990.824   -28920593.729 7 -22324183.377 9
  21033846.207    -3787226.147 3  -2837937.545 3
 94  1 19 21  2 59.9880000  0  6 18 14 19 29 22  4
  18323814.449   -22729137.271 6 -17615853.459 7
  17017501.785   -36652367.032 7 -28459793.078 9
  19521803.348   -12411601.852 5  -9456484.624 5
  17119643.098   -39321100.566 7 -30544341.737 9
  17841721.770   -28932531.115 7 -22333485.232 8
  21026271.543    -3827029.024 3  -2868952.745 3
 94  1 19 21  3 29.9880000  0  6 18 14 19 29 22  4
  18302774.910   -22839699.809 6 -17702006.035 7
  17019206.496   -36643403.430 7 -28452808.469 9
  19499102.121   -12530893.063 5  -9549438.660 5
  17107684.324   -39383945.300 7 -30593311.638 9
  17839556.231   -28943922.223 7 -22342361.420 8
  21018797.559    -3866331.256 3  -2899577.843 3
 94  1 19 21  3 59.9870000  0  6 18 14 19 29 22  4
  18281754.648   -22950166.648 6 -17788084.058 7
  17021011.593   -36633917.824 7 -28445417.108 9
  19476440.937   -12649969.867 5  -9642225.631 5
  17095764.382   -39446583.121 7 -30642120.310 9
  17837487.710   -28954784.079 7 -22350825.191 9
  21011413.116    -3905153.323 4  -2929828.792 2
 94  1 19 21  4 29.9870000  0  6 18 14 19 29 22  4
  18260753.296   -23060521.447 6 -17874074.772 6
  17022919.812   -36623904.176 7 -28437614.284 9
  19453827.991   -12768814.599 5  -9734831.752 5
  17083887.069   -39509004.307 7 -30690760.177 9
  17835523.163   -28965096.453 7 -22358860.798 9
  21004112.202    -3943496.980 3  -2959706.924 2
 94  1 19 21  4 59.9870000  0  6 18 14 19 29 22  4
  18239777.507   -23170757.279 6 -17959972.783 7
  17024919.812   -36613391.176 7 -28429422.352 9
  19431252.577   -12887439.650 5  -9827266.689 5
  17072051.179   -39571204.952 7 -30739228.193 9
  17833663.093   -28974865.594 7 -22366473.103 8
  20996908.405    -3981380.534 3  -2989226.585 3
 94  1 19 21  5 29.9870000  0  6 18 14 19 29 22  4
  18218826.577   -23280848.171 6 -18045757.867 7
  17027015.968   -36602380.465 7 -28420842.592 9
  19408724.124   -13005836.841 5  -9919524.061 5
  17060257.062   -39633177.672 7 -30787518.602 9
  17831914.812   -28984062.646 7 -22373639.626 8
  20989773.874    -4018811.113 3  -3018393.245 2
 94  1 19 21  5 59.9870000  0  6 18 14 19 29 22  4
  18197905.991   -23390794.133 6 -18131430.003 7
  17029208.804   -36590849.846 7 -28411857.712 9
  19386238.460   -13123997.765 5 -10011597.338 5
  17048510.351   -39694914.566 7 -30835625.249 9
  17830276.632   -28992668.638 7 -22380345.580 8
  20982747.226    -4055792.504 3  -3047209.895 3
 94  1 19 21  6 29.9870000  0  6 18 14 19 29 22  4
  18177006.624   -23500619.088 6 -18217007.863 7
  17031500.187   -36578806.539 7 -28402473.333 9
  19363794.038   -13241935.914 5 -10103497.043 5
  17036805.054   -39756419.932 7 -30883551.490 9
  17828750.999   -29000692.546 7 -22386597.970 8
  20975785.210    -4092333.217 3  -3075683.157 2
 94  1 19 21  6 59.9870000  0  6 18 14 19 29 22  4
  18156131.765   -23610317.663 6 -18302487.233 7
  17033889.577   -36566252.902 7 -28392691.290 9
  19341390.694   -13359660.578 5 -10195230.415 5
  17025145.944   -39817689.928 7 -30931294.325 9
  17827334.898   -29008132.900 7 -22392395.642 8
  20968920.085    -4128425.140 3  -3103806.697 2
 94  1 19 21  7 29.9870000  0  6 18 14 19 29 22  4
  18135280.851   -23719884.498 6 -18387863.952 7
  17036380.835   -36553165.744 7 -28382493.525 9
  19319033.468   -13477163.810 6 -10286791.240 5
  17013530.851   -39878731.693 7 -30978859.322 9
  17826028.437   -29014996.182 7 -22397743.658 8
  20962144.335    -4164069.416 3  -3131581.448 3
 94  1 19 21  7 59.9870000  0  6 18 14 19 29 22  4
  18114455.273   -23829321.999 6 -18473139.881 7
  17038975.819   -36539531.398 7 -28371869.372 9
  19296715.749   -13594447.392 6 -10378180.888 5
  17001959.382   -39939534.426 7 -31026238.050 9
  17824826.913   -29021303.470 7 -22402658.416 8
  20955448.124    -4199247.069 3  -3158992.589 3
 94  1 19 21  8 29.9870000  0  6 18 14 19 29 22  4
  18093656.538   -23938624.846 6 -18558310.887 7
  17041669.194   -36525375.429 7 -28360838.761 9
  19274434.663   -13711524.831 5 -10469409.934 6
  16990429.421   -40000119.165 7 -31073446.919 9
  17823729.359   -29027067.858 7 -22407150.139 8
  20948838.273    -4233963.760 3  -3186044.550 3
 94  1 19 21  8 59.9870000  0  6 18 14 19 29 22  4
  18072883.757   -24047781.776 6 -18643368.203 7
  17044460.890   -36510706.104 7 -28349408.135 9
  19252197.765   -13828381.080 5 -10560466.634 6
  16978940.984   -40060496.611 7 -31120494.262 9
  17822735.593   -29032289.342 7 -22411218.839 8
  20942320.140    -4268226.909 3  -3212743.120 2
 94  1 19 21  9 29.9870000  0  6 18 14 19 29 22  4
  18052141.069   -24156786.434 6 -18728306.842 7
  17047350.546   -36495520.925 7 -28337575.547 9
  19230005.288   -13945008.550 6 -10651345.081 5
  16967494.984   -40120645.251 7 -31167363.315 9
  17821846.663   -29036966.723 7 -22414863.554 8
  20935882.218    -4302034.765 3  -3239086.894 2
 94  1 19 21  9 59.9870000  0  6 18 14 19 29 22  4
  18031427.124   -24265643.230 6 -18813130.279 7
  17050329.655   -36479853.528 7 -28325367.207 9
  19207852.983   -14061412.700 5 -10742049.532 5
  16956092.023   -40180566.503 7 -31214055.192 9
  17821063.452   -29041084.533 7 -22418072.250 8
  20929541.726    -4335379.426 3  -3265069.751 2
 94  1 19 21 10 29.9870000  0  6 18 14 19 29 22  4
  18010743.530   -24374339.552 7 -18897828.660 7
  17053401.804   -36463705.930 7 -28312784.682 9
  19185747.796   -14177580.436 5 -10832569.766 5
  16944734.585   -40240251.628 7 -31260563.068 9
  17820392.944   -29044612.840 7 -22420821.592 8
  20923287.835    -4368255.756 3  -3290687.660 2
 94  1 19 21 10 59.9870000  0  6 18 14 19 29 22  4
  17990081.968   -24482915.122 7 -18982432.944 7
  17056567.773   -36447076.944 7 -28299827.044 9
  19163681.562   -14293534.841 5 -10922923.755 6
  16933423.382   -40299702.544 7 -31306888.442 9
  17819830.366   -29047571.132 7 -22423126.762 8
  20917108.280    -4400680.697 3  -3315953.838 2
 94  1 19 21 11 29.9870000  0  6 18 14 19 29 22  4
  17969439.296   -24591386.581 7 -19066956.117 7
  17059826.577   -36429959.569 7 -28286488.851 9
  19141652.304   -14409289.930 5 -11013122.455 6
  16922155.148   -40358914.813 7 -31353027.861 9
  17819371.351   -29049960.934 7 -22424988.948 8
  20911032.312    -4432643.144 3  -3340859.622 3
 94  1 19 21 11 59.9870000  0  6 18 14 19 29 22  4
  17948817.280   -24699759.247 7 -19151402.300 7
  17063174.148   -36412355.080 7 -28272771.082 9
  19119664.483   -14524847.883 6 -11103167.545 5
  16910929.030   -40417906.391 7 -31398995.313 9
  17819029.976   -29051785.942 7 -22426411.040 8
  20905035.382    -4464156.538 3  -3365415.512 3
 94  1 19 21 12 29.9870000  0  6 18 14 19 29 22  4
  17928214.116   -24808024.112 7 -19235764.476 7
  17066623.655   -36394240.790 7 -28258656.070 9
  19097713.429   -14640186.418 6 -11193041.677 5
  16899746.749   -40476663.605 7 -31444780.149 9
  17818783.546   -29053053.607 7 -22427398.836 8
  20899125.101    -4495216.503 3  -3389618.127 3
 94  1 19 21 12 59.9870000  0  6 18 14 19 29 22  4
  17907633.874   -24916183.999 7 -19320044.853 7
  17070161.179   -36375636.434 7 -28244159.181 9
  19075810.140   -14755301.361 6 -11282741.568 5
  16888608.640   -40535199.954 7 -31490392.880 9
  17818645.843   -29053793.282 7 -22427975.218 8
  20893299.101    -4525833.445 3  -3413475.512 4
 94  1 19 21 13 29.9870000  0  6 18 14 19 29 22  4
  17887076.741   -25024212.147 7 -19404222.578 7
  17073792.312   -36356565.714 7 -28229298.897 8
  19053948.812   -14870177.926 6 -11372255.712 6
  16877510.280   -40593517.329 7 -31535834.984 9
  17818600.288   -29054019.405 7
  20887549.616    -4556012.360 3  -3436991.543 3
 94  1 19 21 13 59.9870000  0  6 18 14 19 29 22  4
  17866551.327   -25132068.328 7 -19488266.308 7
  17077510.687   -36337014.967 7 -28214064.562 8
  19032140.671   -14984791.496 6 -11461564.904 6
  16866460.460   -40651589.353 7 -31581085.899 9
  17818662.023   -29053719.754 7
  20881895.179    -4585739.170 3  -3460155.278 2
 94  1 19 21 14 29.9870000  0  6 18 14 19 29 22  4
  17846058.866   -25239762.731 7 -19572183.971 7
  17081320.335   -36317005.336 7 -28198472.665 9
  19010377.366   -15099155.765 6 -11550679.824 6
  16855454.155   -40709422.261 7 -31626150.494 9
  17818811.640   -29052920.101 7 -22427294.829 9
  20876325.468    -4615007.772 3  -3482961.989 1
 94  1 19 21 14 59.9870000  0  6 18 14 19 29 22  4
  17825597.249   -25347284.926 7 -19655967.446 7
  17085216.968   -36296518.633 7 -28182509.018 9
  18988657.382   -15213279.056 6 -11639606.984 6
  16844500.062   -40766994.590 7 -31671012.040 9
  17819062.976   -29051611.230 7 -22426274.930 8
  20870845.687    -4643820.191 3  -3505413.198 3
 94  1 19 21 15 29.9870000  0  6 18 14 19 29 22  4
  17805164.991   -25454662.532 7 -19739638.281 7
  17089207.483   -36275554.284 7 -28166173.185 9
  18966982.780   -15327196.653 6 -11728373.863 5
  16833591.827   -40824311.048 7 -31715674.225 9
  17819404.687   -29049789.699 7 -22424855.570 8
  20865446.687    -4672196.659 3  -3527524.753 2
 94  1 19 21 15 59.9870000  0  6 18 14 19 29 22  4
  17784754.960   -25561902.017 7 -19823201.459 7
  17093287.944   -36254098.418 7 -28149454.343 9
  18945341.812   -15440915.923 6 -11816986.170 6
  16822732.648   -40881384.123 7 -31760146.741 9
  17819856.702   -29047437.773 7 -22423022.896 8
  20860131.202    -4700131.337 3  -3549292.048 2
 94  1 19 21 16 29.9870000  0  6 18 14 19 29 22  4
  17764373.905   -25669013.570 7 -19906664.966 7
  17097469.741   -36232140.079 7 -28132343.964 8
  18923743.741   -15554423.758 6 -11905433.721 5
  16811918.007   -40938212.382 7 -31804428.477 9
  17820404.093   -29044547.514 7 -22420770.737 8
  20854893.757    -4727631.640 3  -3570720.863 2
 94  1 19 21 16 59.9870000  0  6 18 14 19 29 22  4
  17744012.741   -25776013.380 7 -19990041.385 7
  17101744.929   -36209677.857 7 -28114840.932 9
  18902179.515   -15667734.664 6 -11993727.807 6
  16801147.726   -40994803.621 7 -31848525.524 9
  17821056.523   -29041121.712 7 -22418101.256 8
  20849738.765    -4754736.265 3  -3591841.357 4
 94  1 19 21 17 29.9870000  0  6 18 14 19 29 22  4
  17723676.663   -25882883.380 7 -20073316.674 7
  17106110.226   -36186718.915 7 -28096950.879 9
  18880656.093   -15780832.269 6 -12081855.689 6
  16790424.507   -41051162.002 7 -31892441.138 9
  17821815.835   -29037146.665 7 -22415003.820 8
  20844656.968    -4781430.870 3  -3612642.369 3
 94  1 19 21 17 59.9870000  0  6 18 14 19 29 22  4
  17703370.101   -25989592.094 7 -20156466.289 7
  17110578.327   -36163254.724 7 -28078667.111 9
  18859182.530   -15893687.426 6 -12169794.670 6
  16779746.484   -41107275.740 7 -31936166.108 9
  17822672.374   -29032623.367 7 -22411479.153 8
  20839657.327    -4807699.921 3  -3633111.774 1
 94  1 19 21 18 29.9870000  0  6 18 14 19 29 22  4
  17683094.694   -26096137.825 7 -20239488.897 7
  17115138.538   -36139288.986 7 -28059992.522 9
  18837752.437   -16006301.185 6 -12257545.545 6
  16769117.015   -41163125.419 7 -31979685.323 9
  17823637.577   -29027559.590 7 -22407533.328 8
  20834740.421    -4833550.330 3  -3653254.971 3
 94  1 19 21 18 59.9870000  0  6 18 14 19 29 22  4
  17662854.718   -26202498.265 7 -20322367.128 7
  17119791.476   -36114832.271 7 -28040935.359 9
  18816371.280   -16118670.787 6 -12345106.159 6
  16758540.069   -41218710.321 7 -32022998.218 9
  17824708.007   -29021943.668 7 -22403157.265 8
  20829905.304    -4858957.634 3  -3673052.854 2
 94  1 19 21 19 29.9870000  0  6 18 14 19 29 22  4
  17642647.812   -26308688.289 7 -20405112.565 7
  17124527.343   -36089934.141 7 -28021534.238 9
  18795032.398   -16230806.247 6 -12432484.330 6
  16748008.671   -41274060.172 7 -32066127.957 9
  17825876.851   -29015799.768 7 -22398369.798 8
  20825142.655    -4883922.738 3  -3692506.186 3
 94  1 19 21 19 59.9870000  0  6 18 14 19 29 22  4
  17622471.405   -26414717.365 7 -20487732.587 7
  17129350.788   -36064597.977 7 -28001791.788 8
  18773735.749   -16342705.832 6 -12519678.699 6
  16737520.171   -41329171.806 7 -32109072.067 9
  17827145.202   -29009132.294 7 -22393174.343 8
  20820492.296    -4908445.376 3  -3711614.719 2
 94  1 19 21 20 29.9870000  0  6 18 14 19 29 22  4
  17602324.241   -26520593.878 7 -20570233.742 7
  17134251.929   -36038835.665 7 -27981717.282 9
  18752483.577   -16454379.470 6 -12606697.007 6
  16727077.999   -41384046.384 7 -32151831.460 9
  17828514.608   -29001936.608 7 -22387567.298 8
  20815907.929    -4932524.203 2  -3730377.478 2
 94  1 19 21 20 59.9870000  0  6 18 14 19 29 22  4
  17582205.624   -26626307.666 7 -20652608.079 7
  17139237.491   -36012641.433 7 -27961306.202 8
  18731279.538   -16565815.787 6 -12693530.411 6
  16716682.702   -41438675.007 7 -32194399.199 9
  17829985.648   -28994202.810 7 -22381540.948 8
  20811414.819    -4956144.142 2  -3748782.660 3
 94  1 19 21 21 29.9870000  0  6 18 14 19 29 22  4
  17562116.359   -26731880.707 7 -20734872.748 7
  17144304.234   -35986007.783 7 -27940552.726 8
  18710115.796   -16677035.640 6 -12780195.143 6
  16706334.577   -41493053.899 7 -32236772.340 9
  17831554.062   -28985961.312 7 -22375118.986 8
  20807000.194    -4979341.395 3  -3766858.422 2
 94  1 19 21 21 59.9860000  0  6 18 14 19 29 22  4
  17542058.010   -26837292.939 7 -20817012.118 7
  17149465.932   -35958887.440 7 -27919420.010 8
  18688993.432   -16788029.247 6 -12866683.575 6
  16696040.205   -41547150.737 7 -32278925.701 9
  17833220.838   -28977205.574 7 -22368296.320 8
  20802664.197    -5002109.328 3  -3784599.679 3
 94  1 19 21 22 29.9860000  0  6 18 14 19 29 22  4
  17522027.150   -26942547.591 7 -20899028.670 8
  17154721.299   -35931269.101 7 -27897899.228 9
  18667918.018   -16898799.809 6 -12952998.213 6
  16685800.838   -41600955.410 7 -32320851.380 9
  17834984.104   -28967937.260 7 -22361074.235 8
  20798402.955    -5024457.989 3  -3802014.193 2
 94  1 19 21 22 59.9860000  0  6 18 14 19 29 22  4
  17502029.260   -27047642.733 7 -20980920.942 8
  17160073.268   -35903147.854 7 -27875986.583 8
  18646877.158   -17009338.677 6 -13039132.305 6
  16675618.744   -41654465.801 7 -32362547.766 9
  17836841.979   -28958173.874 7 -22353466.388 8
  20794238.752          -0.19713
 94  1 19 21 23 29.9860000  0  6 18 14 19 29 22  4
  17482059.955   -27152579.409 7 -21062689.760 8
  17165518.377   -35874533.702 7 -27853689.878 8
  18625890.322   -17119646.953 6 -13125086.739 6
  16665492.166   -41707686.914 7 -32404018.752 9
  17838792.432   -28947927.002 7 -22345481.832 8
  20790130.002      -21553.059 3        -0.11212
 94  1 19 21 23 59.9860000  0  6 18 14 19 29 22  4
  17462125.197   -27257340.514 7 -21144321.741 8
  17171052.291   -35845457.221 7 -27831032.888 8
  18604938.299   -17229727.619 6 -13210863.795 6
  16655415.440   -41760636.324 7 -32445277.999 9
  17840834.119   -28937192.115 7 -22337116.982 8
  20786113.244      -42700.895 3    -16478.957 2
 94  1 19 21 24 29.9860000  0  6 18 14 19 29 22  4
  17442222.065   -27361928.758 7 -21225819.033 8
  17176669.166   -35815951.695 7 -27808041.581 8
  18584034.369   -17339587.738 6 -13296469.025 6
  16645386.213   -41813332.396 7 -32486339.847 9
  17842967.775   -28925972.304 7 -22328374.265 8
  20782160.924      -63448.511 3    -32645.953 1
 94  1 19 21 24 59.9860000  0  6 18 14 19 29 22  4
  17422355.432   -27466334.531 7 -21307174.137 8
  17182362.986   -35786018.996 7 -27784717.418 8
  18563168.752   -17449232.297 6 -13381906.272 6
  16635406.322   -41865787.473 7 -32527213.907 9
  17845195.783   -28914271.258 7 -22319256.562 8
  20778292.775      -83793.751 3    -48499.372 1
 94  1 19 21 25 29.9860000  0  6 18 14 19 29 22  4
  17402520.666   -27570562.328 7 -21388390.559 8
  17188137.111   -35755670.512 7 -27761069.258 8
  18542345.916   -17558662.796 6 -13467176.720 6
  16625469.697   -41918004.356 7 -32567902.369 9
  17847516.119   -28902073.568 7 -22309751.859 8
  20774495.072     -103737.109 3    -64039.657 2
 94  1 19 21 25 59.9860000  0  6 18 14 19 29 22  4
  17382718.627   -27674615.572 7 -21469470.964 8
  17193993.533   -35724896.758 7 -27737089.727 8
  18521566.572   -17667867.745 6 -13552271.412 6
  16615578.236   -41969974.134 7 -32608398.280 9
  17849935.736   -28889362.404 7 -22299847.070 8
  20770775.479     -123272.129 3    -79261.770 1
 94  1 19 21 26 29.9860000  0  6 18 14 19 29 22  4
  17362946.150   -27778528.241 7 -21550441.836 8
  17199933.682   -35693690.542 7 -27712773.215 8
  18500829.049   -17776835.884 6 -13637181.579 6
  16605738.635   -42021692.146 7 -32648698.008 9
  17852449.791   -28876144.968 7 -22289547.781 8
  20767131.830     -142416.720 2    -94179.629 2
 94  1 19 21 26 59.9860000  0  6 18 14 19 29 22  4
  17343199.080   -27882296.515 7 -21631300.191 8
  17205954.236   -35662046.507 7 -27688115.548 8
  18480140.713   -17885557.033 6 -13721899.286 6
  16595946.338   -42073145.718 7 -32688791.687 9
  17855063.346   -28862412.489 7 -22278847.158 8
  20763571.549     -161166.977 2   -108790.226 1
 94  1 19 21 27 29.9860000  0  6 18 14 19 29 22  4
  17323481.940   -27985917.498 7 -21712043.767 8
  17212055.666   -35629972.685 6 -27663122.976 8
  18459498.158   -17994028.241 6 -13806422.223 6
  16586206.275   -42124325.313 7 -32728671.876 9
  17857778.510   -28848154.825 7 -22267737.300 8
  20760073.369     -179507.857 2   -123081.848 3
 94  1 19 21 27 59.9860000  0  6 18 14 19 29 22  4
  17303790.869   -28089388.993 7 -21792670.856 8
  17218243.963   -35597468.421 7 -27637794.999 8
  18438904.510   -18102263.494 6 -13890761.296 6
  16576517.861   -42175239.356 7 -32768345.144 9
  17860584.979   -28833397.569 7 -22256238.151 8
  20756666.471     -197431.745 3   -137048.522 2
 94  1 19 21 28 29.9860000  0  6 18 14 19 29 22  4
  17284134.721   -28192679.430 7 -21873156.866 8
  17224510.463   -35564528.085 7 -27612127.232 8
  18418351.861   -18210265.277 6 -13974918.425 6
  16566881.221   -42225884.344 7 -32807808.758 9
  17863488.791   -28818140.360 7 -22244349.428 8
  20753338.424     -214928.759 2   -150682.594 1
 94  1 19 21 28 59.9860000  0  5 18 14 19 29 22
  17264519.518   -28295759.181 7 -21953478.707 8
  17230861.369   -35531154.742 7 -27586122.050 8
  18397840.604   -18318053.571 6 -14058909.218 6
  16557294.354   -42276257.772 7 -32847060.773 9
  17866487.768   -28802378.716 7 -22232067.648 8
 94  1 19 21 29 29.9860000  0  5 18 14 19 29 22
  17244943.260   -28398629.073 7 -22033637.012 8
  17237296.252   -35497347.692 7 -27559778.917 8
  18377370.619   -18425621.135 6 -14142727.995 6
  16547762.096   -42326356.249 7 -32886098.539 9
  17869582.330   -28786121.217 6 -22219399.478 8
 94  1 19 21 29 59.9860000  0  5 18 14 19 29 22
  17225407.127   -28501296.254 7 -22113637.370 8
  17243806.275   -35463121.007 6 -27533108.798 8
  18356941.674   -18532975.790 6 -14226380.872 6
  16538280.486   -42376183.953 7 -32924925.311 9
  17872765.838   -28769399.883 7 -22206369.888 8
 94  1 19 21 30 29.9860000  0  5 18 14 19 29 22
  17205910.807   -28603751.092 7 -22193472.267 7
  17250400.424   -35428482.311 7 -27506117.631 8
  18336556.315   -18640098.286 6 -14309852.839 6
  16528851.924   -42425724.605 7 -32963528.413 9
  17876033.838   -28752210.835 7 -22192975.843 7
 94  1 19 21 30 59.9860000  0  6 27 18 14 19 29 22
  20900244.783          -0.66413
  17186451.377   -28706016.416 7 -22273159.472 8
  17257069.229   -35393442.102 7 -27478813.575 8
  18316218.315   -18746977.955 6 -14393135.583 6
  16519479.502   -42474976.462 7 -33001906.458 9
  17879389.346   -28734574.236 7 -22179233.032 8
 94  1 19 21 31 29.9860000  0  6 27 18 14 19 29 22
  20875790.338     -128509.821 3        -0.25612
  17167024.385   -28808093.684 7 -22352700.171 8
  17263813.697   -35357991.201 6 -27451189.521 8
  18295931.877   -18853586.655 6 -14476207.207 6
  16510165.525   -42523928.537 7 -33040050.922 9
  17882833.182   -28716494.802 7 -22165145.175 8
 94  1 19 21 31 59.9860000  0  7 27 18 14 28 19 29 22
  20851359.760     -256909.456 3   -100051.746 1
  17147637.416   -28909974.339 7 -22432087.649 8
  17270637.947   -35322126.894 6 -27423243.327 8
  20736410.158          -0.24513
  18275694.041   -18959933.591 6 -14559074.860 6
  16500907.338   -42572578.291 7 -33077959.809 9
  17886356.049   -28697973.375 6 -22150712.904 7
 94  1 19 21 32 29.9860000  0  7 27 18 14 28 19 29 22
  20826947.697     -385185.871 2   -200007.201 1
  17128289.018   -29011651.795 7 -22511316.793 8
  17277548.041   -35285822.583 6 -27394954.270 8
  20715006.635     -112387.019 3        -0.38511
  18255505.877   -19066018.159 6 -14641738.074 6
  16491707.463   -42620922.900 7 -33115630.921 9
  17889969.619   -28678975.948 6 -22135909.724 8
 94  1 19 21 32 59.9860000  0  7 27 18 14 28 19 29 22
  20802558.650     -513363.863 2   -299885.993 2
  17108978.299   -29113134.591 7 -22590394.264 8
  17284540.721   -35249081.416 6 -27366324.816 8
  20693636.932     -224683.450 3    -87503.961 2
  18235359.768   -19171872.514 6 -14724221.911 6
  16482563.252   -42668976.651 7 -33153075.391 9
  17893673.885   -28659510.740 6 -22120742.047 8
 94  1 19 21 33 29.9860000  0  7 27 18 14 28 19 29 22
  20778178.471     -641458.293 2   -399699.617 2
  17089704.635   -29214420.866 7 -22669318.603 8
  17291611.650   -35211911.750 7 -27337361.455 8
  20672290.010     -336892.774 3   -174939.647 2
  18215254.846   -19277524.999 6 -14806548.442 6
  16473472.557   -42716751.789 7 -33190302.765 9
  17897469.127   -28639579.899 6 -22105211.532 7
 94  1 19 21 33 59.9860000  0  7 27 18 14 28 19 29 22
  20753819.986     -769463.564 2   -499443.796 1
  17070469.150   -29315503.657 7 -22748084.381 8
  17298765.650   -35174313.482 7 -27308064.124 8
  20650954.471     -448999.303 3   -262295.207 2
  18195188.400   -19382980.736 6 -14888721.691 6
  16464435.510   -42764241.862 7 -33227308.003 9
  17901352.658   -28619171.088 6 -22089308.566 7
 94  1 19 21 34 29.9860000  0  7 27 18 14 28 19 29 22
  20729477.283     -897403.534 3   -599137.089 2
  17051268.510   -29416400.044 7 -22826704.921 8
  17305998.627   -35136302.143 6 -27278444.924 8
  20629634.135     -561019.723 3   -349583.703 3
  18175158.635   -19488241.967 6 -14970743.373 6
  16455451.283   -42811456.481 7 -33264098.601 9
  17905325.533   -28598295.781 6 -22073042.093 7
 94  1 19 21 34 59.9860000  0  7 27 18 14 28 19 29 22
  20705144.322    -1025264.699 3   -698769.013 2
  17032103.916   -29517109.717 7 -22905179.962 8
  17313307.752   -35097898.428 6 -27248519.972 8
  20608338.385     -672949.157 3   -436801.259 2
  18155169.760   -19593293.468 6 -15052601.632 6
  16446518.557   -42858391.765 7 -33300671.536 9
  17909381.494   -28576973.935 6 -22056427.678 7
 94  1 19 21 35 29.9860000  0  7 27 18 14 28 19 29 22
  20680830.557    -1153036.570 3   -798331.346 2
  17012971.783   -29617653.001 7 -22983525.354 8
  17320687.400   -35059118.748 6 -27218302.058 8
  20587054.127     -784769.852 3   -523934.062 2
  18135218.721   -19698127.179 6 -15134290.188 6
  16437639.033   -42905052.826 7 -33337030.786 9
  17913521.010   -28555212.484 6 -22039470.711 7
 94  1 19 21 35 59.9860000  0  7 27 18 14 28 19 29 22
  20656539.580    -1280699.611 3   -897808.907 3
  16993874.369   -29718020.244 7 -23061733.568 8
  17328140.166   -35019959.638 6 -27187788.490 8
  20565798.322     -896476.433 3   -610977.948 4
  18115312.361   -19802725.800 6 -15215795.568 6
  16428813.158   -42951429.827 7 -33373168.697 9
  17917748.268   -28533003.337 6 -22022164.900 7
 94  1 19 21 36 29.9860000  0  7 27 18 14 28 19 29 22
  20632269.768    -1408232.423 3   -997184.977 3
  16974807.822   -29818195.417 7 -23139792.119 8
  17335663.775   -34980416.377 6 -27156975.585 8
  20544580.729    -1008056.526 4   -697923.276 4
  18095457.252   -19907077.467 6 -15297108.514 6
  16420044.533   -42997515.109 7 -33409079.289 9
  17922059.971   -28510348.665 6 -22004511.922 7
 94  1 19 21 36 59.9860000  0  7 27 18 14 28 19 29 22
  20608024.432    -1535629.058 3  -1096454.910 2
  16955781.815   -29918178.692 7 -23217701.137 8
  17343258.729   -34940496.117 6 -27125868.912 8
  20523364.432    -1119482.025 3   -784748.138 2
  18075644.666   -20011191.495 6 -15378236.284 6
  16411329.900   -43043309.631 7 -33444763.314 9
  17926453.619   -28487254.146 6 -21986516.201 7
 94  1 19 21 37 29.9860000  0  7 27 18 14 28 19 29 22
  20583803.494    -1662905.070 3  -1195630.908 2
  16936795.385   -30017963.798 7 -23295455.737 8
  17350928.682   -34900195.739 6 -27094466.043 8
  20502189.799    -1230745.921 3   -871447.079 2
  18055874.799   -20115077.294 6 -15459186.207 6
  16402670.650   -43088813.963 7 -33480221.225 9
  17930935.830   -28463709.413 6 -21968169.670 7
 94  1 19 21 37 59.9860000  0  7 27 18 14 28 19 29 22
  20559605.736    -1790069.393 3  -1294719.833 1
  16917846.963   -30117535.024 7 -23373043.672 8
  17358672.533   -34859510.337 6 -27062763.158 8
  20481044.807    -1341838.270 3   -958012.348 2
  18036148.627   -20218738.864 6 -15539961.400 6
  16394063.900   -43134036.195 7 -33515459.317 9
  17935502.650   -28439712.128 6 -21949470.505 7
 94  1 19 21 38 29.9860000  0  7 27 18 14 28 19 29 22
  20535430.572    -1917117.157 3  -1393717.925 2
  16898940.736   -30216887.424 7 -23450461.092 8
  17366490.682   -34818425.792 6 -27030749.257 8
  20459947.963    -1452746.747 3  -1044434.371 4
  18016467.760   -20322171.761 6 -15620558.414 6
  16385515.252   -43178968.615 7 -33550471.587 9
  17940155.940   -28415254.158 6 -21930412.362 7
 94  1 19 21 38 59.9860000  0  7 27 18 14 28 19 29 22
  20511268.744    -2044079.274 3  -1492649.295 1
  16880076.299   -30316030.645 7 -23527715.517 8
  17374382.502   -34776956.827 6 -26998435.803 7
  20438867.955    -1563498.337 3  -1130734.146 2
  17996824.275   -20425384.009 6 -15700983.467 6
  16377019.627   -43223617.518 7 -33585262.929 9
  17944896.041   -28390334.085 6 -21910994.141 7
 94  1 19 21 39 29.9860000  0  7 27 18 14 28 19 29 22
  20487120.221    -2170961.492 3  -1591518.364 2
  16861247.947   -30414959.141 7 -23604802.620 8
  17382344.065   -34735106.472 6 -26965825.166 7
  20417825.354    -1674116.210 3  -1216929.754 4
  17977228.611   -20528361.366 6 -15781225.481 6
  16368575.111   -43267984.556 7 -33619834.645 9
  17949727.854   -28364954.286 6 -21891217.691 7
 94  1 19 21 39 59.9850000  0  7 27 18 14 28 19 29 22
  20462992.255    -2297770.776 3  -1690330.531 2
  16842462.794   -30513686.629 7 -23681733.094 8
  17390377.763   -34692891.931 6 -26932930.744 7
  20396789.982    -1784623.375 3  -1303039.102 3
  17957676.935   -20631111.450 6 -15861290.414 6
  16360185.841   -43312075.867 7 -33654191.502 9
  17954637.817   -28339158.460 6 -21871117.074 7
 94  1 19 21 40 29.9850000  0  7 27 18 14 28 19 29 22
  20438885.239    -2424490.739 3  -1789073.077 2
  16823714.888   -30612200.074 7 -23758496.778 8
  17398484.161   -34650297.026 6 -26899739.933 7
  20375789.325    -1895018.552 4  -1389061.199 3
  17938168.903   -20733615.397 6 -15941163.531 6
  16351854.489   -43355855.448 7 -33688305.453 9
  17959625.185   -28312935.847 6 -21850683.878 7
 94  1 19 21 40 59.9850000  0  7 27 18 14 28 19 29 22
  20414780.575    -2551127.782 3  -1887751.013 4
  16805008.044   -30710501.720 7 -23835095.431 8
  17406657.013   -34607347.279 6 -26866272.629 7
  20354795.200    -2005299.535 3  -1474994.317 4
  17918711.599   -20835879.907 6 -16020850.083 6
  16343581.536   -43399330.372 7 -33722182.016 9
  17964695.771   -28286304.005 6 -21829931.810 7
 94  1 19 21 41 29.9850000  0  7 27 18 14 28 19 29 22
  20390704.396    -2677656.281 3  -1986344.350 3
  16786345.849   -30808581.167 7 -23911520.938 8
  17414902.341   -34564025.196 6 -26832515.195 7
  20333842.919    -2115431.378 4  -1560811.197 2
  17899293.614   -20937906.023 6 -16100350.879 6
  16335367.583   -43442494.157 7 -33755816.122 9
  17969837.849   -28259271.638 6 -21808867.647 7
 94  1 19 21 41 59.9850000  0  7 27 18 14 28 19 29 22
  20366645.857    -2804053.011 3  -2084835.043 4
  16767726.739   -30906419.450 7 -23987758.530 8
  17423219.021   -34520316.885 6 -26798456.803 7
  20312923.200    -2225391.366 3  -1646494.164 3
  17879926.333   -21039700.307 6 -16179671.020 6
  16327216.966   -43485325.976 7 -33789191.572 9
  17975063.325   -28231822.526 6 -21787478.732 7
 94  1 19 21 42 29.9850000  0  7 27 18 14 28 19 29 22
  20342618.067    -2930337.846 3  -2183238.546 3
  16749152.364   -31004035.543 7 -24063822.988 8
  17431604.224   -34476250.990 6 -26764119.771 7
  20292025.208    -2335189.107 3  -1732050.719 3
  17860592.841   -21141285.751 6 -16258828.443 6
  16319125.528   -43527847.520 7 -33822325.235 9
  17980365.286   -28203951.588 6 -21765761.124 7
 94  1 19 21 42 59.9850000  0  7 27 18 14 28 19 29 22
  20318606.974    -3056525.036 3  -2281565.966 2
  16730618.192   -31101430.365 7 -24139715.023 8
  17440055.489   -34431833.012 6 -26729508.394 7
  20271163.817    -2444819.580 4  -1817476.927 4
  17841303.005   -21242663.332 6 -16337823.888 6
  16311091.966   -43570063.420 7 -33855220.741 9
  17985746.638   -28175674.983 6 -21743727.420 7
 94  1 19 21 43 29.9850000  0  7 27 18 14 28 19 29 22
  20294613.138    -3182598.682 3  -2379804.937 2
  16712129.927   -31198583.474 7 -24215418.718 8
  17448581.755   -34387042.343 6 -26694606.603 7
  20250330.286    -2554264.447 3  -1902758.495 4
  17822052.982   -21343813.180 6 -16416641.903 6
  16303121.302   -43611948.131 7 -33887858.184 9
  17991205.482   -28146982.328 6 -21721369.523 7
 94  1 19 21 43 59.9850000  0  7 27 18 14 28 19 29 22
  20270637.208    -3308593.388 3  -2477982.444 2
  16693684.427   -31295520.473 7 -24290954.013 8
  17457166.255   -34341914.985 6 -26659442.462 7
  20229532.880    -2663553.930 3  -1987919.019 4
  17802844.317   -21444752.171 6 -16495295.602 7
  16295211.607   -43653518.893 7 -33920250.985 9
  17996743.927   -28117888.825 6 -21698699.265 7
 94  1 19 21 44 29.9850000  0  7 27 18 14 28 19 29 22
  20246679.161    -3434489.343 3  -2576083.012 4
  16675282.364   -31392221.023 7 -24366305.067 9
  17465824.896   -34296423.883 6 -26623994.886 7
  20208776.036    -2772649.464 3  -2072928.394 3
  17783685.896   -21545441.320 6 -16573754.625 7
  16287364.607   -43694755.638 7 -33952383.511 9
  18002358.544   -28088374.256 6 -21675700.906 7
 94  1 19 21 44 59.9850000  0  7 27 18 14 28 19 29 22
  20222735.364    -3560302.021 3  -2674118.716 4
  16656925.450   -31488694.136 7 -24441478.893 8
  17474548.653   -34250588.481 6 -26588279.021 7
  20188045.966    -2881566.396 4  -2157798.622 4
  17764565.536   -21645903.353 6 -16652036.687 7
  16279575.114   -43735685.784 7 -33984277.132 9
  18008049.067   -28058469.638 6 -21652398.621 7
 94  1 19 21 45 29.9850000  0  7 27 18 14 28 19 29 22
  20198816.763    -3686009.944 3  -2772072.811 4
  16638608.841   -31584933.319 7 -24516470.436 8
  17483332.896   -34204403.849 6 -26552291.036 7
  20167360.724    -2990290.340 4  -2242518.459 2
  17745495.310   -21746137.269 6 -16730140.986 7
  16271845.942   -43776310.355 7 -34015932.646 9
  18013820.107   -28028149.462 6 -21628772.538 7
 94  1 19 21 45 59.9850000  0  7 27 18 14 28 19 29 22
  20174919.974    -3811617.561 3  -2869948.732 5
  16620340.513   -31680941.327 7 -24591281.847 9
  17492186.278   -34157885.489 6 -26516042.998 7
  20146705.310    -3098822.292 4  -2327088.747 3
  17726461.552   -21846148.214 6 -16808071.548 7
  16264168.888   -43816645.887 7 -34047362.935 9
  18019666.692   -27997419.189 6 -21604826.907 7
 94  1 19 21 46 29.9850000  0  7 27 18 14 28 19 29 22
  20151034.982    -3937112.859 3  -2967737.148 4
  16602116.075   -31776715.466 7 -24665911.019 9
  17501104.927   -34111036.993 6 -26479537.716 7
  20126094.497    -3207168.577 4  -2411514.333 4
  17707473.138   -21945933.090 6 -16885825.950 7
  16256547.052   -43856696.860 7 -34078571.485 9
  18025592.216   -27966285.421 6 -21580566.858 7
 94  1 19 21 46 59.9850000  0  7 27 18 14 28 19 29 22
  20127166.411    -4062493.377 3  -3065436.166 4
  16583934.911   -31872249.776 7 -24740353.307 8
  17510079.411   -34063862.532 6 -26442778.438 7
  20105507.575    -3315335.306 4  -2495800.023 3
  17688530.591   -22045493.178 6 -16963405.202 7
  16248980.325   -43896461.313 7 -34109556.774 9
  18031593.630   -27934746.151 6 -21555990.834 7
 94  1 19 21 47 29.9850000  0  7 27 18 14 28 19 29 22
  20103332.138    -4187770.404 3  -3163054.539 4
  16565801.169   -31967551.724 7 -24814614.542 8
  17519117.739   -34016365.578 6 -26405767.867 7
  20084958.263    -3423315.058 4  -2579940.032 3
  17669623.255   -22144830.965 6 -17040811.229 7
  16241468.357   -43935938.707 7 -34140318.379 9
  18037671.739   -27902802.574 6 -21531099.779 7
 94  1 19 21 47 59.9850000  0  7 27 18 14 28 19 29 22
  20079515.724    -4312941.742 4  -3260590.537 4
  16547709.747   -32062617.411 7 -24888691.674 8
  17528216.755   -33968541.991 6 -26368502.779 7
  20064449.450    -3531110.431 4  -2663936.377 3
  17650765.817   -22243935.584 6 -17118035.568 7
  16234012.075   -43975117.405 7 -34170847.230 9
  18043829.833   -27870454.974 6 -21505893.897 7
 94  1 19 21 48 29.9850000  0  7 27 18 14 28 19 29 22
  20055719.974    -4438007.729 4  -3358044.481 2
  16529661.591   -32157458.723 7 -24962593.971 9
  17537382.380   -33920383.464 6 -26330976.695 7
  20043964.919    -3638725.379 4  -2747792.126 4
  17631951.458   -22342812.613 6 -17195082.552 7
  16226615.060   -44013990.394 7 -34201137.870 9
  18050060.708   -27837698.339 6 -21480369.297 7
 94  1 19 21 48 59.9850000  0  7 27 18 14 28 19 29 22
  20031932.607    -4562974.906 3  -3455421.440 2
  16511658.763   -32252069.643 7 -25036316.746 9
  17546608.419   -33871887.476 6 -26293187.657 7
  20023530.739    -3746131.454 4  -2831485.120 3
  17613174.739   -22441468.866 6 -17271957.519 7
  16219278.661   -44052544.286 7 -34231179.859 9
  18056372.435   -27804538.208 6 -21454530.282 7
 94  1 19 21 49 29.9850000  0  7 27 18 14 28 19 29 22
  20008174.497    -4687844.644 3  -3552722.483 2
  16493696.560   -32346453.401 7 -25109862.512 9
  17555901.403   -33823061.174 6 -26255141.231 7
  20003129.974    -3853328.342 4  -2915015.099 4
  17594446.060   -22539907.888 6 -17348663.201 7
  16212004.317   -44090769.144 7 -34260965.456 9
  18062755.099   -27770992.859 6 -21428391.094 7
 94  1 19 21 49 59.9850000  0  7 27 18 14 28 19 29 22
  19984437.911    -4812588.484 4  -3649925.368 3
  16475783.747   -32440593.140 7 -25183218.137 9
  17565258.989   -33773894.739 6 -26216829.759 7
  19982774.177    -3960315.408 4  -2998381.573 4
  17575756.146   -22638106.928 6 -17425181.887 7
  16204799.130   -44128636.936 7 -34290472.822 9
  18069211.552   -27737061.923 6 -21401951.455 6
 94  1 19 21 50 29.9850000  0  7 27 18 14 28 19 29 22
  19960723.208    -4937209.288 4  -3747032.339 4
  16457917.239   -32534483.143 7 -25256379.149 9
  17574680.067   -33724387.547 6 -26178252.769 7
  19962449.575    -4067078.750 4  -3081573.715 4
  17557114.200   -22736074.016 6 -17501519.822 7
  16197659.880   -44166151.930 7 -34319705.284 9
  18075737.989   -27702763.873 6 -21375225.741 6
 94  1 19 21 50 59.9850000  0  7 27 18 14 28 19 29 22
  19937019.482    -5061728.980 3  -3844060.558 4
  16440094.778   -32628129.401 7 -25329350.243 9
  17584159.052   -33674572.500 6 -26139435.896 7
  19942181.864    -4173633.249 5  -3164603.086 4
  17538514.669   -22833829.005 6 -17577692.484 7
  16190584.317   -44203335.862 7 -34348679.761 9
  18082326.286   -27668141.863 6 -21348247.594 6
 94  1 19 21 51 29.9850000  0  7 27 18 14 28 19 29 22
  19913350.122    -5186131.203 3  -3940997.220 2
  16422325.700   -32721516.385 7 -25402119.310 9
  17593698.810   -33624439.310 6 -26100371.112 7
  19921942.942    -4279975.974 4  -3247467.456 4
  17519954.700   -22931348.816 6 -17653681.896 7
  16183572.607   -44240182.462 7 -34377391.393 9
  18088979.474   -27633178.279 6 -21321003.264 6
 94  1 19 21 51 59.9850000  0  7 27 18 14 28 19 29 22
  19889703.028    -5310426.079 4  -4037850.235 2
  16404603.435   -32814653.194 7 -25474693.428 9
  17603294.380   -33573996.533 6 -26061065.095 7
  19901747.419    -4386106.500 4  -3330166.440 4
  17501439.958   -23028637.565 6 -17729491.258 7
  16176621.177   -44276713.383 7 -34405857.036 9
  18095699.732   -27597870.602 6 -21293490.818 7
 94  1 19 21 52 29.9850000  0  7 27 18 14 28 19 29 22
  19866069.911    -5434605.277 4  -4134613.119 2
  16386930.286   -32907517.521 7 -25547055.236 9
  17612959.903   -33523222.680 6 -26021501.091 7
  19881598.200    -4491985.395 4  -3412669.366 3
  17482975.294   -23125683.692 6 -17805111.572 7
  16169732.153   -44312918.347 7 -34434068.690 9
  18102486.896   -27562200.175 6 -21265695.720 7
 94  1 19 21 52 59.9850000  0  7 27 18 14 28 19 29 22
  19842450.380    -5558699.090 3  -4231309.480 3
  16369306.271   -33000129.879 7 -25619220.693 9
  17622677.052   -33472155.772 6 -25981708.738 7
  19861489.435    -4597641.595 4  -3494998.768 4
  17464552.567   -23222499.773 6 -17880552.621 7
  16162901.122   -44348808.537 7 -34462035.066 9
  18109341.146   -27526180.209 6 -21237628.250 7
 94  1 19 21 53 29.9850000  0  7 27 18 14 28 19 29 22
  19818859.927    -5682704.541 4  -4327936.984 2
  16351731.427   -33092493.855 7 -25691192.609 9
  17632451.466   -33420796.516 6 -25941688.581 7
  19841427.817    -4703067.492 4  -3577148.720 4
  17446170.310   -23319080.733 6 -17955810.460 7
  16156132.028   -44384381.613 7 -34489754.338 9
  18116265.802   -27489792.758 6 -21209274.422 6
 94  1 19 21 53 59.9850000  0  7 27 18 14 28 19 29 22
  19795279.107    -5806613.558 5  -4424489.332 4
  16334201.857   -33184613.709 7 -25762974.299 9
  17642280.411   -33369144.916 6 -25901440.630 7
  19821407.817    -4808262.533 5  -3659118.822 5
  17427834.911   -23415436.684 6 -18030892.986 7
  16149425.044   -44419632.195 7 -34517222.315 9
  18123260.974   -27453035.660 6 -21180632.540 6
 94  1 19 21 54 29.9850000  0  8 27 18 14 28 19 29 22 31
  19771715.005    -5930432.231 4  -4520971.268 5
  16316714.677   -33276496.880 7 -25834571.561 9
  17652162.192   -33317219.245 6 -25860979.112 7
  19801437.661    -4913241.242 5  -3740920.332 4
  17409540.419   -23511590.356 6 -18105817.867 7
  16142778.013   -44454560.177 7 -34544438.921 9
  18130319.052   -27415931.490 6 -21151720.220 6
  20163057.099          -0.98913
 94  1 19 21 54 59.9850000  0  8 27 18 14 28 19 29 22 31
  19748171.021    -6054137.675 4  -4617364.996 4
  16299278.192   -33368125.182 7 -25905970.225 9
  17662095.661   -33265007.040 6 -25820294.319 6
  19781504.646    -5017988.688 5  -3822541.638 4
  17391285.778   -23607524.769 6 -18180571.918 7
  16136195.630   -44489146.635 7 -34571389.401 9
  18137453.325   -27378454.629 6 -21122517.487 6
  20138660.802     -128250.790 3
 94  1 19 21 55 29.9850000  0  8 27 18 14 28 19 29 22 31
  19724656.357    -6177731.816 4  -4713672.016 4
  16281889.224   -33459516.948 7 -25977184.577 9
  17672087.185   -33212511.924 6 -25779389.075 6
  19761611.528    -5122509.670 5  -3903986.506 3
  17373064.224   -23703270.301 6 -18255178.781 7
  16129673.536   -44523419.955 7 -34598095.878 9
  18144653.427   -27340619.584 6 -21093035.668 6
  20114243.989     -256551.834 3        -0.16912
 94  1 19 21 55 59.9850000  0  8 27 18 14 28 19 29 22 31
  19701158.583    -6301206.200 4  -4809885.739 2
  16264546.239   -33550653.932 7 -26048200.394 9
  17682129.763   -33159724.674 6 -25738256.199 6
  19741769.380    -5226805.055 5  -3985255.565 4
  17354879.372   -23798819.976 6 -18329633.037 7
  16123210.146   -44557384.426 7 -34624561.694 9
  18151918.599   -27302442.156 6 -21063287.053 6
  20089816.614     -384894.685 3   -100007.344 1
 94  1 19 21 56 29.9850000  0  8 27 18 14 28 19 29 22 31
  19677689.185    -6424554.894 4  -4906001.517 2
  16247258.567   -33641504.710 7 -26118993.194 9
  17692233.989   -33106642.094 6 -25696893.184 6
  19721966.630    -5330849.972 5  -4066329.452 4
  17336739.888   -23894136.255 6 -18403905.422 7
  16116807.442   -44591035.603 7 -34650783.390 9
  18159249.286   -27263915.151 6 -21033266.047 7
  20065390.052     -513268.893 3   -200038.942 1
 94  1 19 21 56 59.9850000  0  8 27 18 14 28 19 29 22 31
  19654239.247    -6547797.826 4  -5002034.878 4
  16230023.396   -33732075.438 7 -26189567.774 9
  17702385.575   -33053281.858 6 -25655313.816 6
  19702209.661    -5434660.000 5  -4147220.304 4
  17318644.716   -23989231.033 6 -18478005.211 7
  16110459.935   -44624395.393 7 -34676778.026 9
  18166645.075   -27225050.943 6 -21002982.281 6
  20040946.942     -641692.859 3   -300109.358 1
 94  1 19 21 57 29.9850000  0  8 27 18 14 28 19 29 22 31
  19630808.958    -6670916.490 4  -5097971.391 3
  16212844.958   -33822350.442 7 -26259911.922 9
  17712596.911   -32999636.830 6 -25613512.542 6
  19682500.411    -5538233.500 5  -4227926.858 5
  17300592.724   -24084092.122 6 -18551922.928 7
  16104169.052   -44657452.061 7 -34702536.470 9
  18174102.927   -27185848.477 6 -20972434.934 6
  20016503.239     -770155.176 3   -400209.642 1
 94  1 19 21 57 59.9840000  0  8 27 18 14 28 19 29 22 31
  19607398.672    -6793913.370 4  -5193813.019 5
  16195723.750   -33912322.057 7 -26330019.656 9
  17722854.555   -32945725.183 6 -25571503.508 6
  19662838.492    -5641573.604 5  -4308451.526 5
  17282589.109   -24178702.976 6 -18625645.640 7
  16097939.258   -44690186.279 7 -34728043.662 9
  18181627.336   -27146310.712 6 -20941626.320 6
  19992052.227     -898649.470 3   -500334.887 1
 94  1 19 21 58 29.9840000  0  8 27 18 14 28 19 29 22 31
  19584018.883    -6916799.585 4  -5289568.415 5
  16178658.563   -34002002.644 7 -26399900.616 9
  17733162.156   -32891544.624 6 -25529284.928 6
  19643221.305    -5744669.508 5  -4388785.901 5
  17264629.813   -24273075.524 6 -18699182.668 7
  16091775.367   -44722579.129 7 -34753284.845 9
  18189220.750   -27106412.339 6 -20910536.722 6
  19967590.156    -1027184.039 3   -600491.535 1
 94  1 19 21 58 59.9840000  0  8 27 18 14 28 19 29 22 31
  19560655.274    -7039574.928 4  -5385237.408 4
  16161645.195   -34091407.433 7 -26469566.666 9
  17743525.914   -32837092.958 6 -25486855.094 6
  19623647.945    -5847517.059 5  -4468926.734 5
  17246710.961   -24367241.233 6 -18772558.527 7
  16085677.922   -44754619.789 7 -34778251.599 9
  18196878.445   -27066164.351 6 -20879174.704 6
  19943131.133    -1155746.426 3   -700669.864 2
 94  1 19 21 59 29.9840000  0  8 27 18 14 28 19 29 22 31
  19537312.414    -7162236.918 4  -5480818.088 4
  16144682.133   -34180539.354 7 -26539020.099 9
  17753939.703   -32782369.555 6 -25444213.529 6
  19604129.609    -5950089.895 5  -4548853.525 5
  17228837.594   -24461180.617 6 -18845758.026 7
  16079652.305   -44786285.639 7 -34802926.290 9
  18204604.742   -27025562.057 6 -20847536.614 6
  19918656.156    -1284327.282 3   -800862.571 1
 94  1 19 21 59 59.9840000  0  8 27 18 14 28 19 29 22 31
  19513987.859    -7284801.238 4  -5576322.668 5
  16127769.672   -34269409.690 7 -26608269.689 9
  17764403.484   -32727382.668 6 -25401366.635 6
  19584666.516    -6052372.534 5  -4628554.180 4
  17211005.438   -24554901.429 6 -18918787.202 7
  16073696.859   -44817577.608 7 -34827309.645 9
  18212396.594   -26984621.362 6 -20815634.827 6
  19894187.617    -1412932.118 3   -901073.963 1
 94  1 19 22  0 29.9840000  0  8 27 18 14 28 19 29 22 31
  19490684.727    -7407253.242 4  -5671739.720 5
  16110910.352   -34358005.475 7 -26677305.346 9
  17774921.086   -32672114.386 6 -25358300.488 6
  19565260.969    -6154345.499 5  -4708013.559 5
  17193212.516   -24648399.103 6 -18991642.526 7
  16067814.727   -44848493.252 7 -34851399.753 9
  18220249.180   -26943353.110 6 -20783477.795 6
  19869715.063    -1541540.076 3  -1001287.837 1
 94  1 19 22  0 59.9840000  0  8 27 18 14 28 19 29 22 31
  19467400.844    -7529603.125 4  -5767077.196 5
  16094100.516   -34446346.810 7 -26746142.727 9
  17785485.836   -32616587.552 6 -25315032.867 6
  19545903.797    -6256032.162 5  -4787249.832 5
  17175458.805   -24741681.826 6 -19064330.344 7
  16061999.938   -44879047.749 7 -34875208.456 9
  18228159.016   -26901794.441 6 -20751094.473 6
  19845241.242    -1670156.056 3  -1101507.906 2
 94  1 19 22  1 29.9840000  0  8 27 18 14 28 19 29 22 31
  19444141.219    -7651838.957 5  -5862325.803 5
  16077342.406   -34534418.872 7 -26814770.290 9
  17796104.055   -32560791.738 6 -25271555.650 6
  19526615.649    -6357435.698 5  -4866265.519 5
  17157752.227   -24834724.207 6 -19136830.884 7
  16056255.274   -44909237.052 7 -34898732.596 9
  18236123.734   -26859934.512 6 -20718476.387 6
  19820766.102    -1798769.158 3  -1201725.767 1
 94  1 19 22  1 59.9840000  0  8 27 18 14 28 19 29 22 31
  19420906.914    -7773959.081 5  -5957484.233 5
  16060633.524   -34622220.717 7 -26883187.292 9
  17806776.555   -32504718.591 6 -25227862.323 6
  19507361.984    -6458578.799 5  -4945078.263 4
  17140092.477   -24927536.603 6 -19209152.223 7
  16050574.977   -44939087.868 7 -34921992.986 9
  18244144.133   -26817780.421 6 -20685629.100 6
  19796289.563    -1927371.364 3  -1301935.130 1
 94  1 19 22  2 29.9840000  0  8 27 18 14 28 19 29 22 31
  19397686.234    -7895983.348 5  -6052567.967 5
  16043974.102   -34709755.984 7 -26951396.573 9
  17817494.008   -32448383.553 6 -25183964.936 6
  19488164.414    -6559482.858 5  -5023704.759 5
  17122474.391   -25020133.576 6 -19281305.687 7
  16044956.695   -44968608.976 7 -34944996.449 9
  18252223.641   -26775333.418 6 -20652553.561 6
  19771819.664    -2055973.190 3  -1402144.207 2
 94  1 19 22  2 59.9840000  0  8 27 18 14 28 19 29 22 31
  19374479.524    -8017911.244 5  -6147576.629 3
  16027372.047   -34797007.666 7 -27019384.884 9
  17828262.195   -32391787.929 6 -25139864.492 6
  19469016.578    -6660132.944 5  -5102133.351 5
  17104892.430   -25112502.280 6 -19353281.286 7
  16039402.234   -44997798.971 7 -34967741.908 9
  18260362.399   -26732560.358 6 -20619223.953 6
  19747351.203    -2184570.366 4  -1502349.637 2
 94  1 19 22  3 29.9840000  0  8 27 18 14 28 19 29 22 31
  19351296.484    -8139747.838 5  -6242514.179 4
  16010827.164   -34883958.067 7 -27087138.433 9
  17839085.477   -32334928.668 6 -25095558.611 6
  19449907.750    -6760516.826 5  -5180354.518 5
  17087362.000   -25204639.011 6 -19425076.128 7
  16033908.461   -45026671.076 7 -34990239.658 9
  18268566.227   -26689452.238 6 -20585633.261 6
  19722872.492    -2313163.805 3  -1602552.219 2
 94  1 19 22  3 59.9840000  0  8 27 18 14 28 19 29 22 31
  19328129.750    -8261494.013 5  -6337381.237 5
  15994337.344   -34970601.713 7 -27154652.956 9
  17849951.969   -32277832.224 6 -25051067.912 6
  19430858.922    -6860623.542 5  -5258359.734 4
  17069869.703   -25296556.503 6 -19496700.141 7
  16028475.899   -45055220.578 7 -35012486.027 9
  18276828.844   -26646022.548 6 -20551791.996 6
  19698407.938    -2441760.652 4  -1702757.429 3
 94  1 19 22  4 29.9840000  0  8 27 18 14 28 19 29 22 31
  19304982.836    -8383150.030 5  -6432178.022 5
  15977911.844   -35056930.098 7 -27221921.820 9
  17860860.719   -32220508.953 6 -25006400.468 6
  19411867.555    -6960429.948 5  -5336130.918 5
  17052419.750   -25388252.630 6 -19568151.643 7
  16023106.609   -45083432.647 7 -35034469.465 9
  18285155.555   -26602274.085 6 -20517702.336 6
  19673934.914    -2570358.502 4  -1802963.379 2
 94  1 19 22  4 59.9840000  0  8 27 18 14 28 19 29 22 31
  19281850.781    -8504693.151 5  -6526886.816 5
  15961540.102   -35142950.955 7 -27288951.051 9
  17871808.477   -32162963.601 6 -24961559.975 6
  19392933.539    -7059927.735 5  -5413661.643 5
  17035014.883   -25479723.495 6 -19639427.623 7
  16017801.359   -45111314.805 7 -35056195.825 9
  18293539.070   -26558222.739 6 -20483376.671 6
  19649470.774    -2698948.131 4  -1903162.971 2
 94  1 19 22  5 29.9840000  0  8 27 18 14 28 19 29 22 31
  19258744.367    -8626105.466 5  -6621493.711 5
  15945230.070   -35228668.323 7 -27355743.798 9
  17882803.570   -32105185.773 6 -24916538.338 6
  19374058.055    -7159117.383 5  -5490952.244 5
  17017650.656   -25570968.777 6 -19710527.823 7
  16012563.828   -45138835.399 7 -35077640.455 9
  18301973.938   -26513886.499 6 -20448828.998 6
  19624996.383    -2827515.831 4  -2003345.460 2
 94  1 19 22  5 59.9840000  0  8 27 18 14 28 19 29 22 31
  19235665.578    -8747382.796 5  -6715995.446 4
  15928977.234   -35314079.052 7 -27422297.609 9
  17893842.336   -32047183.084 6 -24871341.480 6
  19355241.531    -7257993.401 5  -5567998.466 5
  17000328.414   -25661993.317 6 -19781456.023 7
  16007401.313   -45165971.156 7 -35098785.202 9
  18310466.414   -26469260.449 6 -20414055.513 6
  19600541.359    -2956042.929 5  -2103496.289 1
 94  1 19 22  6 29.9840000  0  8 27 18 14 28 19 29 22 31
  19212612.875    -8868549.786 5  -6810411.232 4
  15912775.297   -35399210.676 7 -27488633.930 9
  17904920.180   -31988962.895 6 -24825975.142 6
  19336478.367    -7356574.917 5  -5644815.194 5
  16983050.367   -25752808.501 6 -19852221.087 7
  16002304.680   -45192747.610 7 -35119649.979 9
  18319011.016   -26424356.891 6 -20379065.794 6
  19576087.852    -3084538.596 5  -2203622.623 1
 94  1 19 22  6 59.9840000  0  8 27 18 14 28 19 29 22 31
  19189579.422    -8989576.956 5  -6904718.033 5
  15896633.383   -35484040.581 7 -27554735.144 9
  17916040.508   -31930514.106 6 -24780430.668 6
  19317782.274    -7454856.830 5  -5721398.449 4
  16965810.852   -25843406.761 6 -19922817.106 7
  15997282.813   -45219143.822 7 -35140218.477 9
  18327613.859   -26379159.452 6 -20343847.068 6
  19551644.695    -3212986.868 4  -2303712.020 3
 94  1 19 22  7 29.9840000  0  8 27 18 14 28 19 29 22 31
  19166571.180    -9110491.542 5  -6998937.096 5
  15880550.180   -35568563.612 7 -27620597.243 9
  17927205.406   -31871839.209 6 -24734710.007 6
  19299133.625    -7552837.547 5  -5797747.011 5
  16948605.750   -25933789.271 6 -19993245.020 7
  15992329.938   -45245169.061 7 -35160497.896 9
  18336269.961   -26333665.007 6 -20308396.914 6
  19527210.531    -3341391.133 4  -2403767.108 2
 94  1 19 22  7 59.9840000  0  8 27 18 14 28 19 29 22 31
  19143587.828    -9231287.221 5  -7093063.520 5
  15864528.672   -35652763.009 7 -27686207.156 9
  17938415.305   -31812937.526 6 -24688812.641 6
  19280549.828    -7650492.536 5  -5873841.756 4
  16931450.570   -26023945.982 6 -20063496.984 7
  15987441.594   -45270851.924 7 -35180510.533 9
  18344987.336   -26287867.993 6 -20272710.987 6
  19502786.031    -3469743.076 4  -2503781.412 1
 94  1 19 22  8 29.9840000  0  8 27 18 14 28 19 29 22 31
  19120623.484    -9351946.936 5  -7187083.990 5
  15848568.477   -35736637.046 7 -27751563.536 9
  17949671.367   -31753805.494 6 -24642735.776 6
  19262028.617    -7747828.988 5  -5949688.287 5
  16914337.938   -26113872.710 6 -20133569.739 7
  15982618.117   -45296206.452 7 -35200267.321 9
  18353754.227   -26241788.136 6 -20236804.655 6
  19478373.469    -3598045.789 5  -2603757.361 2
 94  1 19 22  8 59.9840000  0  8 27 18 14 28 19 29 22 31
  19097688.836    -9472475.133 5  -7281002.000 5
  15832668.094   -35820186.752 7 -27816667.199 9
  17960963.399   -31694461.396 6 -24596493.662 6
  19243570.774    -7844838.438 5  -6025280.007 5
  16897268.797   -26203570.146 6 -20203463.824 7
  15977857.477   -45321225.932 7 -35219763.032 9
  18362574.547   -26195436.076 6 -20200686.228 6
  19453967.195    -3726302.762 5  -2703697.640 2
 94  1 19 22  9 29.9840000  0  8 27 18 14 28 19 29 22 31
  19074771.391    -9592903.139 5  -7374841.938 5
  15816826.461   -35903435.857 7 -27881536.625 9
  17972291.742   -31634918.445 6 -24550096.604 6
  19225172.531    -7941516.958 5  -6100613.853 5
  16880243.133   -26293039.520 6 -20273180.206 7
  15973157.016   -45345922.689 7 -35239007.279 9
  18371443.391   -26148833.935 6 -20164372.938 6
  19429567.211    -3854511.849 4  -2803600.598 1
 94  1 19 22  9 59.9840000  0  8 27 18 14 28 19 29 22 31
  19051877.219    -9713220.814 5  -7468595.886 5
  15801042.289   -35986390.074 7 -27946176.265 9
  17983659.711   -31575182.943 6 -24503549.505 6
  19206834.024    -8037874.993 5  -6175697.985 5
  16863257.750   -26382298.236 6 -20342732.422 7
  15968523.328   -45370278.260 7 -35257985.659 9
  18380356.297   -26101990.181 6 -20127871.381 6
  19405176.375    -3982672.437 4  -2903465.794 2
 94  1 19 22 10 29.9840000  0  8 27 18 14 28 19 29 22 31
  19028998.000    -9833433.395 5  -7562267.957 5
  15785309.406   -36069051.559 7 -28010587.807 9
  17995065.281   -31515255.707 6 -24456853.003 6
  19188556.727    -8133922.117 5  -6250539.845 5
  16846314.563   -26471351.158 7 -20412124.281 8
  15963958.086   -45394259.565 7 -35276672.403 9
  18389321.844   -26054881.917 6 -20091163.715 6
  19380799.852    -4110782.774 5  -3003291.816 2
 94  1 19 22 10 59.9840000  0  8 27 18 14 28 19 29 22 31
  19006137.805    -9953564.432 5  -7655876.508 4
  15769634.055   -36151424.499 7 -28074774.500 9
  18006503.039   -31455128.337 5 -24410000.563 6
  19170344.672    -8229646.027 5  -6325129.865 5
  16829407.953   -26560199.895 6 -20481357.042 7
  15959464.836   -45417871.725 7 -35295071.504 9
  18398339.461   -26007489.893 6 -20054234.921 6
  19356431.883    -4238848.609 4  -3103083.176 2
 94  1 19 22 11 29.9840000  0  8 27 18 14 28 19 29 22 31
  18983295.930   -10073596.644 5  -7749408.053 4
  15754016.664   -36233494.850 7 -28138725.419 8
  18017991.742   -31394777.097 6 -24362973.671 5
  19152184.820    -8325061.843 5  -6399479.810 5
  16812536.172   -26648855.681 7 -20550439.438 7
  15955040.102   -45441128.470 7 -35313193.652 8
  18407412.930   -25959807.268 6 -20017079.702 5
  19332065.016    -4366861.966 4  -3202833.671 1
 94  1 19 22 11 59.9840000  0  8 27 18 14 28 19 29 22 31
  18960477.195   -10193510.754 5  -7842847.561 4
  15738465.180   -36315234.302 7 -28202418.491 8
  18029518.133   -31334199.722 5 -24315770.568 5
  19134088.547    -8420164.332 5  -6473585.642 4
  16795701.211   -26737312.577 6 -20619366.860 7
  15950683.414   -45464021.001 7 -35331032.007 8
  18416545.195   -25911819.639 6 -19979686.820 5
  19307718.766    -4494826.996 5  -3302546.491 1
 94  1 19 22 12 29.9840000  0  8 27 18 14 28 19 29 22 31
  18937680.500   -10313299.639 5  -7936189.477 5
  15722974.313   -36396619.841 7 -28265835.778 9
  18041092.352   -31273382.287 5 -24268380.406 6
  19116060.492    -8514917.858 5  -6547419.520 5
  16778917.797   -26825532.279 6 -20688109.448 8
  15946398.438   -45486540.183 7 -35348579.429 9
  18425736.563   -25863520.752 6 -19942051.382 6
  19283381.188    -4622733.213 5  -3402213.488 2
 94  1 19 22 12 59.9840000  0  8 27 18 14 28 19 29 22 31
  18914909.258   -10432963.219 5  -8029433.771 5
  15707559.883   -36477642.545 7 -28328970.338 9
  18052709.633   -31212334.205 6 -24220810.528 5
  19098090.149    -8609306.778 5  -6620969.335 5
  16762170.859   -26913509.648 6 -20756663.204 8
  15942182.695   -45508693.606 7 -35365841.848 9
  18434978.195   -25814943.769 6 -19904199.259 6
  19259052.320    -4750571.698 5  -3501827.732 2
 94  1 19 22 13 29.9840000  0  8 27 18 14 28 19 29 22 31
  18892164.516   -10552510.330 5  -8122587.301 5
  15692203.375   -36558318.197 7 -28391834.478 9
  18064362.031   -31151100.842 6 -24173096.272 6
  19080200.703    -8703343.702 5  -6694244.843 5
  16745475.789   -27001266.455 7 -20825045.108 8
  15938036.469   -45530487.010 7 -35382823.734 9
  18444269.602   -25766133.151 6 -19866165.073 6
  19234737.352    -4878357.333 5  -3601400.837 2
 94  1 19 22 13 59.9840000  0  8 27 18 14 28 19 29 22 31
  18869426.406   -10671983.919 5  -8215683.550 5
  15676912.156   -36638685.047 7 -28454457.985 9
  18076036.227   -31089742.349 5 -24125284.507 5
  19062370.875    -8797042.128 5  -6767256.621 5
  16728813.055   -27088827.362 7 -20893274.352 8
  15933954.820   -45551931.078 7 -35399533.411 9
  18453594.602   -25717126.023 6 -19827977.781 6
  19210423.164    -5006124.259 5  -3700959.362 3
 94  1 19 22 14 29.9840000  0  8 27 18 14 28 19 29 22 31
  18846710.524   -10791348.057 5  -8308694.514 5
  15661681.024   -36718731.678 7 -28516831.972 9
  18087741.149   -31028230.191 5 -24077353.016 6
  19044606.055    -8890386.265 5  -6839992.326 5
  16712188.617   -27176173.289 7 -20961336.077 8
  15929942.820   -45573009.606 7 -35415958.255 9
  18462962.133   -25667897.563 6 -19789618.031 5
  19186119.203    -5133828.739 5  -3800469.232 2
 94  1 19 22 14 59.9840000  0  8 27 18 14 28 19 29 22 31
  18824016.320   -10910609.019 5  -8401625.066 5
  15646505.781   -36798477.476 7 -28578971.545 9
  18099473.492   -30966581.318 6 -24029314.984 5
  19026908.438    -8983410.907 5  -6912479.059 5
  16695601.063   -27263339.350 7 -21029257.664 8
  15925996.078   -45593752.919 7 -35432121.889 9
  18472371.445   -25618455.692 6 -19751091.973 6
  19161828.820    -5261474.824 5  -3899933.627 2
 94  1 19 22 15 29.9830000  0  8 27 18 14 28 19 29 22 31
  18801348.839   -11029738.624 5  -8494453.242 5
  15631391.105   -36877901.163 7 -28640860.124 9
  18111234.691   -30904771.646 5 -23981151.655 5
  19009265.862    -9076102.985 5  -6984706.663 5
  16679056.136   -27350297.552 7 -21097017.281 8
  15922119.901   -45614130.602 7 -35448000.614 9
  18481827.058   -25568762.151 6 -19712369.811 5
  19137557.526    -5389028.055 5  -3999325.667 3
 94  1 19 22 15 59.9830000  0  8 27 18 14 28 19 29 22 31
  18778703.839   -11148746.502 5  -8587186.580 5
  15616336.776   -36957008.622 7 -28702502.286 9
  18123031.487   -30842786.664 5 -23932851.732 5
  18991692.128    -9168474.266 5  -7056684.278 5
  16662547.745   -27437050.984 7 -21164617.337 8
  15918310.901   -45634138.367 7 -35463591.097 9
  18491333.198   -25518808.601 6 -19673445.052 5
  19113301.261    -5516487.969 5  -4098645.002 4
 94  1 19 22 16 29.9830000  0  8 27 18 14 28 19 29 22 31
  18756081.964   -11267617.687 5  -8679813.429 5
  15601345.128   -37035790.269 7 -28763890.575 9
  18134864.308   -30780606.237 5 -23884399.512 5
  18974179.636    -9260510.721 5  -7128400.985 5
  16646079.823   -27523580.934 7 -21232043.245 8
  15914574.737   -45653777.639 7 -35478894.437 9
  18500890.292   -25468594.374 6 -19634317.161 5
  19089073.847    -5643826.338 5  -4197869.618 4
 94  1 19 22 16 59.9830000  0  8 27 18 14 28 19 29 22 31
  18733482.808   -11386377.197 5  -8772353.254 5
  15586418.316   -37114239.082 7 -28825019.509 9
  18146731.323   -30718244.804 5 -23835806.238 5
  18956727.237    -9352192.719 5  -7199841.479 5
  16629657.386   -27609881.153 7 -21299290.157 8
  15910909.339   -45673030.272 7 -35493896.504 9
  18510492.816   -25418131.628 6 -19594995.614 6
  19064860.253    -5771051.428 5  -4297006.005 3
 94  1 19 22 17 29.9830000  0  8 27 18 14 28 19 29 22 31
  18710904.144   -11505024.025 5  -8864805.232 5
  15571555.511   -37192349.504 7 -28885884.759 9
  18158631.620   -30655702.147 5 -23787071.757 5
  18939355.784    -9443499.088 5  -7270989.262 5
  16613280.362   -27695934.737 7 -21366344.889 8
  15907325.644   -45691868.678 7 -35508575.799 9
  18520139.175   -25367433.517 6 -19555490.669 5
  19040675.526    -5898152.009 5  -4396045.318 4
 94  1 19 22 17 59.9830000  0  8 27 18 14 28 19 29 22 31
  18688349.308   -11623559.115 5  -8957170.153 5
  15556754.081   -37270119.826 7 -28946485.007 9
  18170566.097   -30592990.767 5 -23738205.810 5
  18922049.409    -9534425.086 5  -7341840.644 5
  16596953.276   -27781751.506 7 -21433215.093 8
  15903816.605   -45710314.922 7 -35522949.507 9
  18529829.253   -25316512.717 6 -19515812.196 5
  19016509.901    -6025133.768 5  -4494992.063 3
 94  1 19 22 18 29.9830000  0  8 27 18 14 28 19 29 22 31
  18665810.636   -11741996.085 5  -9049458.639 5
  15542019.151   -37347541.808 7 -29006813.816 9
  18182528.378   -30530120.326 5 -23689215.924 5
  18904818.245    -9624977.728 5  -7412401.094 5
  16580666.323   -27867343.266 7 -21499909.950 8
  15900374.886   -45728393.361 7 -35537036.617 9
  18539560.472   -25265376.101 6 -19475965.559 5
  18992368.191    -6152007.041 5  -4593854.287 4
 94  1 19 22 18 59.9830000  0  8 27 18 14 28 19 29 22 31
  18643289.691   -11860335.629 5  -9141671.226 5
  15527358.761   -37424602.541 7 -29066861.134 9
  18194521.987   -30467092.902 5 -23640103.718 5
  18887656.792    -9715155.033 5  -7482669.070 5
  16564417.464   -27952717.491 7 -21566435.318 8
  15897005.761   -45746101.443 7 -35550835.144 9
  18549331.566   -25214023.373 6 -19435950.521 5
  18968244.753    -6278776.715 5  -4692635.775 4
 94  1 19 22 19 29.9830000  0  8 27 18 14 28 19 29 22 31
  18620794.308   -11978558.158 5  -9233792.606 5
  15512761.292   -37501298.172 7 -29126623.959 9
  18206549.136   -30403898.207 5 -23590861.173 5
  18870566.776    -9804961.297 5  -7552647.927 5
  16548214.980   -28037884.223 7 -21632798.990 8
  15893704.417   -45763451.606 7 -35564354.766 9
  18559147.526   -25162444.289 6 -19395759.100 6
  18944137.417    -6405435.522 5  -4791330.865 4
 94  1 19 22 19 59.9830000  0  8 27 18 14 28 19 29 22 31
  18598314.519   -12096678.532 5  -9325834.385 5
  15498237.620   -37577638.384 7 -29186109.832 9
  18218601.355   -30340553.251 5 -23541501.536 5
  18853544.050    -9894417.489 5  -7622354.004 5
  16532038.769   -28122866.272 7 -21699018.753 8
  15890463.487   -45780478.255 7 -35577622.306 9
  18569003.956   -25110641.945 6 -19355393.718 6
  18920053.722    -6532011.466 5  -4889961.389 4
 94  1 19 22 20 29.9830000  0  8 27 18 14 28 19 29 22 31
  18575861.245   -12214685.124 5  -9417787.530 5
  15483776.073   -37653618.395 7 -29245315.029 9
  18230684.894   -30277042.746 5 -23492012.912 5
  18836593.198    -9983502.753 5  -7691771.054 5
  16515907.925   -28207647.326 7 -21765081.878 8
  15887289.612   -45797160.539 7 -35590621.502 9
  18578905.659   -25058618.609 5 -19314856.132 5
  18895989.253    -6658486.336 5  -4988513.144 4
 94  1 19 22 20 59.9830000  0  8 27 18 14 28 19 29 22 31
  18553430.003   -12332558.413 5  -9509636.787 5
  15469384.386   -37729241.859 7 -29304242.400 9
  18242803.441   -30213374.145 5 -23442401.091 5
  18819715.401   -10072197.626 5  -7760883.894 5
  16499817.597   -28292211.199 7 -21830975.804 8
  15884185.120   -45813471.966 7 -35603331.721 9
  18588846.909   -25006368.775 5 -19274142.060 5
  18871942.347    -6784841.952 5  -5086971.972 3
 94  1 19 22 21 29.9830000  0  8 27 18 14 28 19 29 22 31
  18531026.792   -12450289.308 5  -9601375.084 5
  15455062.159   -37804503.066 7 -29362887.489 9
  18254947.144   -30149552.322 5 -23392669.884 5
  18802909.816   -10160495.946 5  -7829687.737 5
  16483767.566   -28376554.654 7 -21896697.954 8
  15881153.066   -45829412.537 7 -35615752.957 9
  18598834.823   -24953888.188 5 -19233248.177 5
  18847923.089    -6911063.270 5  -5185326.168 3
 94  1 19 22 21 59.9830000  0  8 27 18 14 28 19 29 22 31
  18508646.808   -12567892.351 5  -9693013.776 5
  15440808.378   -37879408.497 7 -29421255.359 9
  18267122.394   -30085593.357 5 -23342831.804 5
  18786185.206   -10248395.615 5  -7898180.951 5
  16467758.753   -28460672.669 7 -21962244.429 8
  15878189.175   -45844984.662 7 -35627887.097 9
  18608862.386   -24901198.336 6 -19192191.232 5
  18823929.941    -7037147.592 5  -5283573.632 2
 94  1 19 22 22 29.9830000  0  8 27 18 14 28 19 29 22 31
  18486296.237   -12685348.406 5  -9784537.923 5
  15426624.839   -37953946.771 7 -29479337.126 9
  18279321.042   -30021490.466 5 -23292881.577 5
  18769540.714   -10335872.662 5  -7966344.855 5
  16451798.308   -28544546.517 7 -22027600.665 8
  15875301.909   -45860157.893 7 -35639710.401 9
  18618930.097   -24848282.867 6 -19150958.464 5
  18799969.698    -7163057.758 5  -5381685.360 2
 94  1 19 22 22 59.9830000  0  8 27 18 14 28 19 29 22 31
  18463970.151   -12802669.051 5  -9875956.549 5
  15412509.050   -38028130.307 7 -29537142.477 9
  18291543.378   -29957252.010 5 -23242825.723 5
  18752966.144   -10422951.344 5  -8034198.360 5
  16435879.636   -28628201.914 7 -22092786.664 8
  15872488.526   -45874938.514 7 -35651227.782 9
  18629042.034   -24795144.082 6 -19109551.689 5
  18776041.378    -7288803.587 5  -5479669.059 4
 94  1 19 22 23 29.9830000  0  8 27 18 14 28 19 29 22 31
  18441666.800   -12919862.280 5  -9967275.892 5
  15398461.683   -38101961.338 7 -29594673.151 9
  18303793.066   -29892884.580 5 -23192669.364 5
  18736470.441   -10509651.296 5  -8101756.731 5
  16419996.019   -28711657.490 7 -22157816.978 8
  15869746.394   -45889347.991 7 -35662455.953 9
  18639191.542   -24741807.630 5 -19067990.894 5
  18752139.034    -7414404.211 5  -5577539.628 3
 94  1 19 22 23 59.9830000  0  8 27 18 14 28 19 29 22 31
  18419391.550   -13036933.148 5 -10058499.918 5
  15384474.472   -38175450.122 7 -29651937.142 9
  18316069.276   -29828397.696 5 -23142419.935 5
  18720044.761   -10595977.980 5  -8169024.250 5
  16404154.980   -28794915.128 7 -22222693.031 8
  15867075.698   -45903382.271 7 -35673391.771 9
  18649376.167   -24688287.739 5 -19026287.158 5
  18728261.066    -7539886.306 5  -5675317.834 4
 94  1 19 22 24 29.9830000  0  8 27 18 14 28 19 29 22 31
  18397133.878   -13153891.089 5 -10149635.944 5
  15370552.956   -38248610.890 7 -29708945.532 9
  18328358.112   -29763803.215 5 -23092086.646 5
  18703679.761   -10681941.963 5  -8236009.163 5
  16388344.855   -28877994.877 7 -22287430.490 8
  15864475.284   -45917043.656 7 -35684037.024 9
  18659596.034   -24634587.626 5 -18984442.987 5
  18704402.855    -7665265.533 5  -5773015.898 4
 94  1 19 22 24 59.9830000  0  8 27 18 14 28 19 29 22 31
  18374900.425   -13270733.247 5 -10240681.731 6
  15356699.698   -38321414.803 7 -29765675.859 9
  18340672.276   -29699086.729 5 -23041658.303 5
  18687399.894   -10767526.343 5  -8302698.252 5
  16372570.925   -28960881.422 7 -22352017.393 8
  15861949.972   -45930321.298 7 -35694383.251 9
  18669846.355   -24580717.628 5 -18942466.444 5
  18680563.753    -7790543.396 5  -5870634.964 3
 94  1 19 22 25 29.9830000  0  8 27 18 14 28 19 29 22 31
  18352690.573   -13387459.442 5 -10331637.149 5
  15342918.214   -38393838.976 7 -29822110.288 9
  18353005.425   -29634253.515 5 -22991139.000 5
  18671194.987   -10852704.190 5  -8369070.575 5
  16356837.628   -29043548.400 7 -22416433.212 8
  15859495.542   -45943214.227 7 -35704429.712 9
  18680133.745   -24526664.859 5 -18900347.484 5
  18656748.784    -7915701.718 5  -5968160.907 3
 94  1 19 22 25 59.9830000  0  8 27 18 14 28 19 29 22 31
  18330495.558   -13504086.504 5 -10422515.322 5
  15329203.253   -38465897.877 7 -29878260.091 9
  18365367.909   -29569295.856 5 -22940522.732 5
  18655062.237   -10937460.470 5  -8435114.391 5
  16341155.941   -29125984.257 7 -22480668.936 8
  15857116.730   -45955717.774 7 -35714172.754 9
  18690455.409   -24472420.241 5 -18858079.031 5
  18632957.776    -8040718.646 5  -6065576.636 4
 94  1 19 22 26 29.9830000  0  8 27 18 14 28 19 29 22 31
  18308317.261   -13620634.109 5 -10513331.614 5
  15315560.776   -38537589.042 7 -29934123.347 9
  18377755.659   -29504209.076 5 -22889805.849 5
  18639014.628   -11021788.943 5  -8500824.857 5
  16325512.284   -29208188.132 7 -22544723.882 8
  15854810.816   -45967839.873 7 -35723618.560 9
  18700813.566   -24417992.020 5 -18815667.502 5
  18609199.144    -8165566.200 5  -6162860.408 4
 94  1 19 22 26 59.9830000  0  8 27 18 14 28 19 29 22 31
  18286154.839   -13737091.924 5 -10604077.923 5
  15301992.683   -38608892.475 7 -29989684.467 9
  18390166.737   -29438988.427 5 -22838984.660 5
  18623049.901   -11105679.451 5  -8566194.045 5
  16309915.339   -29290147.015 7 -22608587.948 8
  15852572.651   -45979593.069 7 -35732776.917 9
  18711204.995   -24363386.294 5 -18773117.644 5
  18585478.097    -8290221.854 5  -6259994.664 4
 94  1 19 22 27 29.9830000  0  8 27 18 14 28 19 29 22 31
  18264011.667   -13853458.298 5 -10694752.982 5
  15288494.230   -38679827.479 7 -30044958.504 9
  18402601.042   -29373645.733 5 -22788068.371 5
  18607171.769   -11189140.803 5  -8631228.823 5
  16294363.972   -29371868.637 7 -22672267.113 8
  15850405.620   -45990989.480 7 -35741657.246 9
  18721631.480   -24308596.350 5 -18730424.253 5
  18561796.862    -8414682.442 5  -6356976.876 5
 94  1 19 22 27 59.9830000  0  8 27 18 14 28 19 29 22 31
  18241884.792   -13969738.652 5 -10785361.005 5
  15275063.237   -38750408.790 7 -30099956.932 9
  18415052.956   -29308198.208 5 -22737070.386 5
  18591366.034   -11272200.616 5  -8695950.721 5
  16278850.331   -29453393.818 7 -22735793.240 8
  15848303.214   -46002036.793 7 -35750265.551 9
  18732085.605   -24253649.436 5 -18687608.553 5
  18538140.534    -8538972.489 5  -6453826.209 4
 94  1 19 22 28 29.9830000  0  8 27 18 14 28 19 29 22 31
  18219779.847   -14085899.815 5 -10875876.186 5
  15261706.472   -38820600.944 7 -30154652.113 9
  18427523.667   -29242656.848 5 -22685999.288 5
  18575638.550   -11354856.286 5  -8760357.695 5
  16263370.667   -29534729.376 7 -22799171.594 8
  15846269.159   -46012722.239 7 -35758591.892 9
  18742575.683   -24198522.641 5 -18644652.689 5
  18514516.659    -8663090.534 5  -6550541.515 5
 94  1 19 22 28 59.9830000  0  8 27 18 14 28 19 29 22 31
  18197700.167   -14201933.386 5 -10966291.950 5
  15248423.448   -38890414.043 7 -30209051.948 9
  18440012.800   -29177049.633 5 -22634876.874 5
  18559978.128   -11437133.483 5  -8824469.763 5
  16247924.550   -29615892.892 7 -22862415.884 8
  15844305.706   -46023048.548 7 -35766638.389 9
  18753100.073   -24143215.238 5 -18601556.099 5
  18490933.433    -8787065.100 5  -6647145.007 5
 94  1 19 22 29 29.9830000  0  8 27 18 14 28 19 29 22 31
  18175644.823   -14317828.678 5 -11056599.944 6
  15235208.659   -38959839.440 7 -30263149.665 9
  18452513.331   -29111358.314 5 -22583688.942 5
  18544394.214   -11519027.163 5  -8888283.001 5
  16232516.683   -29696879.258 7 -22925522.144 8
  15842414.534   -46032978.320 7 -35774375.899 9
  18763664.120   -24087704.033 5 -18558300.712 5
  18467369.855    -8910884.550 5  -6743627.622 4
 94  1 19 22 29 59.9830000  0  8 27 18 14 28 19 29 22 31
  18153617.191   -14433585.726 5 -11146800.184 5
  15222077.284   -39028859.581 7 -30316931.587 9
  18465030.800   -29045579.866 5 -22532433.097 5
  18528884.019   -11600522.900 5  -8951786.152 5
  16217138.894   -29777683.340 7 -22988486.355 8
  15840602.417   -46042500.841 7 -35781796.057 9
  18774267.222   -24031982.579 5 -18514881.465 5
  18443840.456    -9034537.795 5  -6839980.699 4
 94  1 19 22 30 29.9830000  0  8 27 18 14 28 19 29 22 31
  18131615.620   -14549208.906 5 -11236896.142 5
  15209021.089   -39097476.634 7 -30370399.427 9
  18477565.191   -28979716.297 5 -22481110.920 5
  18513453.698   -11681606.280 5  -9014967.993 5
  16201801.730   -29858270.901 7 -23051281.856 8
  15838867.558   -46051618.350 7 -35788900.636 9
  18784913.737   -23976055.103 5 -18471301.702 5
  18420340.925    -9158017.875 5  -6936198.872 4
 94  1 19 22 30 59.9830000  0  8 27 18 14 28 19 29 22 31
  18109636.487   -14664706.779 5 -11326894.485 5
  15196036.698   -39165706.524 7 -30423565.572 8
  18490113.870   -28913750.821 5 -22429709.360 5
  18498101.128   -11762272.742 5  -9077824.977 5
  16186511.386   -29938627.151 7 -23113897.118 8
  15837207.886   -46060339.562 7 -35795696.409 8
  18795587.066   -23919951.074 5 -18427584.355 5
  18396876.808    -9281317.627 5  -7032276.508 4
 94  1 19 22 31 29.9830000  0  8 27 18 14 28 19 29 22 31
  18087684.245   -14780060.758 5 -11416780.683 5
  15183127.651   -39233540.292 7 -30476423.057 8
  18502691.644   -28847663.756 5 -22378213.055 5
  18482842.831   -11842481.517 5
  16171267.105   -30018734.859 7
  15835626.050   -46068659.976 7 -35802179.875 9
  18806300.487   -23863665.009 5 -18383725.168 5
  18373452.480    -9404400.915 5  -7128185.480 5
 94  1 19 22 31 59.9830000  0  8 27 18 14 28 19 29 22 31
  18065759.167   -14895279.882 5 -11506561.771 5
  15170292.925   -39300994.436 7 -30528984.721 8
  18515288.159   -28781479.321 5 -22326640.859 5
  18467661.339   -11922235.279 5  -9202471.111 5
  16156068.831   -30098598.456 7 -23238550.059 8
  15834111.808   -46076605.912 7 -35808371.530 9
  18817040.464   -23807215.532 5 -18339738.622 5
  18350071.534    -9527286.129 5  -7223940.101 5
 94  1 19 22 32 29.9830000  0  8 27 18 14 28 19 29 22 31
  18043859.378   -15010365.223 5 -11596238.649 5
  15157527.292   -39368080.065 7 -30581259.243 8
  18527899.792   -28715196.556 5 -22274992.053 5
  18452572.276   -12001547.050 5  -9264272.492 5
  16140915.612   -30178228.824 7 -23300599.695 8
  15832670.667   -46084184.785 7 -35814277.176 9
  18827811.105   -23750617.476 5 -18295636.321 5
  18326725.276    -9649971.314 5  -7319538.873 5
 94  1 19 22 32 59.9820000  0  8 27 18 14 28 19 29 22 31
  18021985.475   -15125304.695 5 -11685801.829 6
  15144832.936   -39434779.954 7 -30633233.185 8
  18540531.272   -28648801.925 5 -22223256.075 5
  18437566.397   -12080396.311 5  -9325713.468 5
  16125807.639   -30257631.789 7 -23362472.121 8
  15831299.748   -46091386.815 7 -35819889.167 9
  18838612.201   -23693860.590 5 -18251410.246 5
  18303425.131    -9772421.003 5  -7414954.109 4
 94  1 19 22 33 29.9820000  0  8 27 18 14 28 19 29 22 31
  18000136.545   -15240134.001 5 -11775279.172 5
  15132212.139   -39501101.299 7 -30684912.155 9
  18553180.615   -28582320.289 5 -22171452.305 4
  18422651.443   -12158796.356 5  -9386804.410 5
  16110735.498   -30336836.389 7 -23424189.995 8
  15829999.826   -46098220.846 7 -35825214.413 9
  18849437.381   -23636955.016 5 -18207068.316 5
  18280164.639    -9894657.195 5  -7510203.007 5
 94  1 19 22 33 59.9820000  0  8 27 18 14 28 19 29 22 31
  17978307.115   -15354851.046 5 -11864669.060 5
  15119669.139   -39567018.984 7 -30736276.592 8
  18565848.154   -28515746.987 5 -22119577.113 4
  18407814.201   -12236752.719 5  -9447549.625 5
  16095703.209   -30415835.957 7 -23485748.095 8
  15828771.115   -46104671.733 7 -35830241.110 9
  18860298.522   -23579902.361 5 -18162611.782 5
  18256942.795   -10016679.862 5  -7605285.519 5
 94  1 19 22 34 29.9820000  0  8 27 18 14 28 19 29 22 31
  17956493.100   -15469473.356 5 -11953985.124 5
  15107200.311   -39632543.482 7 -30787334.642 8
  18578537.803   -28449097.050 5 -22067642.204 3
  18393060.240   -12314271.124 5  -9507953.570 5
  16080703.459   -30494651.621 7 -23547162.876 9
  15827616.076   -46110745.592 7 -35834974.011 9
  18871174.365   -23522734.378 5 -18118065.364 5
  18233762.568   -10138492.904 5  -7700204.699 5
 94  1 19 22 34 59.9820000  0  8 27 18 14 28 19 29 22 31
  17934698.951   -15583996.742 5 -12043224.086 5
  15094803.881   -39697676.533 7 -30838087.670 8
  18591228.865   -28382389.066 5 -22015662.062 5
  18378394.295   -12391342.851 5  -9568009.427 5
  16065743.022   -30573287.617 7 -23608437.664 9
  15826533.975   -46116436.986 7 -35839408.887 9
  18882075.615   -23465464.512 5 -18073439.586 5
  18210619.795   -10260109.667 5  -7794970.937 5
 94  1 19 22 35 29.9820000  0  8 27 18 14 28 19 29 22 31
  17912928.998   -15698409.631 5 -12132376.938 6
  15082484.186   -39762417.778 7 -30888535.389 8
  18603934.678   -28315627.664 5 -21963640.287 3
  18363812.678   -12467978.312 5  -9627725.336 5
  16050816.123   -30651731.858 7 -23669563.026 8
  15825523.701   -46121740.794 7 -35843541.751 9
  18892993.678   -23408085.031 5 -18028728.381 5
  18187513.420   -10381547.484 5  -7889597.730 4
 94  1 19 22 35 59.9820000  0  8 27 18 14 28 19 29 22 31
  17891180.217   -15812691.253 5 -12221427.503 6
  15070240.186   -39826757.649 7 -30938670.345 8
  18616656.756   -28248799.168 5 -21911566.253 3
  18349315.733   -12544166.159 5  -9687092.451 6
  16035926.826   -30729969.646 7 -23730527.534 8
  15824593.295   -46126630.767 7 -35847352.146 9
  18903939.928   -23350569.018 5 -17983910.785 5
  18164438.193   -10502792.969 5  -7984074.646 5
 94  1 19 22 36 29.9820000  0  8 27 18 14 28 19 29 22 31
  17869460.865   -15926838.753 5 -12310373.581 5
  15058073.053   -39890700.882 7 -30988496.232 8
  18629376.818   -28181915.066 5 -21859448.882 2
  18334902.733   -12619888.444 5  -9746096.783 5
  16021079.615   -30807992.330 7 -23791324.417 9
  15823744.318   -46131104.179 7 -35850837.948 9
  18914911.881   -23292907.972 5 -17938980.167 5
  18141406.686   -10623823.895 5  -8078384.387 5
 94  1 19 22 36 59.9820000  0  8 27 18 14 28 19 29 22 31
  17847760.834   -16040861.315 5 -12399222.287 6
  15045982.022   -39954250.216 7 -31038015.190 8
  18642120.709   -28114986.651 5 -21807296.969 4
  18320585.701   -12695157.700 5  -9804748.095 5
  16006269.295   -30885800.551 7 -23851954.186 8
  15822967.467   -46135178.385 7 -35854012.686 9
  18925910.287   -23235092.443 5 -17893929.190 5
  18118414.756   -10744635.526 5  -8172523.268 5
 94  1 19 22 37 29.9820000  0  8 27 18 14 28 19 29 22 31
  17826084.498   -16154781.456 5 -12487991.157 6
  15033964.053   -40017401.351 7 -31087223.864 8
  18654859.983   -28048013.411 5 -21755110.147 4
  18306345.209   -12769981.094 5  -9863051.983 5
  15991505.850   -30963394.344 7 -23912416.881 9
  15822265.678   -46138862.764 7 -35856883.661 9
  18936945.303   -23177118.353 5 -17848754.659 5
  18095474.514   -10865212.715 5  -8266479.453 5
 94  1 19 22 37 59.9820000  0  8 27 18 14 28 19 29 22 31
  17804422.131   -16268608.904 5 -12576687.827 5
  15022023.436   -40080151.333 7 -31136119.951 8
  18667612.428   -27981008.716 5 -21702898.806 4
  18292193.248   -12844349.566 5  -9921001.391 6
  15976775.303   -31040796.085 7 -23972729.921 9
  15821635.006   -46142173.483 7 -35859463.460 9
  18948000.678   -23119009.820 5 -17803475.369 5
  18072572.287   -10985543.798 5  -8360243.872 5
 94  1 19 22 38 29.9820000  0  8 27 18 14 28 19 29 22 31
  17782781.350   -16382338.758 5 -12665308.466 6
  15010157.498   -40142488.811 7 -31184694.606 8
  18680370.787   -27913965.820 5 -21650657.724 3
  18278129.951   -12918256.496 5  -9978591.155 6
  15962086.951   -31117999.309 7 -24032888.266 9
  15821075.740   -46145124.742 7 -35861763.175 8
  18959079.506   -23060783.503 5 -17758104.289 4
  18049723.529   -11105616.244 5  -8453806.780 5
 94  1 19 22 38 59.9820000  0  8 27 18 14 28 19 29 22 31
  17761158.772   -16495965.909 5 -12753849.043 6
  14998378.686   -40204393.978 7 -31232932.396 8
  18693138.029   -27846858.902 4 -21598366.731 2
  18264152.662   -12991703.369 5 -10035822.447 6
  15947433.170   -31194996.191 7 -24092885.835 8
  15820584.186   -46147707.058 7 -35863775.396 8
  18970182.639   -23002445.205 5 -17712645.959 5
  18026921.920   -11225438.308 5  -8547174.574 5
 94  1 19 22 39 29.9820000  0  8 27 18 14 28 19 29 22 31
  17739558.045   -16609484.799 5 -12842305.296 6
  14986683.123   -40265866.319 7 -31280832.919 8
  18705921.545   -27779686.242 5 -21546024.518 4
  18250262.381   -13064694.705 5 -10092698.776 6
  15932817.936   -31271795.252 7 -24152729.264 8
  15820162.256   -46149918.620 7 -35865498.714 8
  18981306.147   -22944003.204 5 -17667106.830 5
  18004167.733   -11345018.392 5  -8640353.825 5
 94  1 19 22 39 59.9820000  0  8 27 18 14 28 19 29 22 31
  17717979.186   -16722875.462 5 -12930661.615 6
  14975065.311   -40326909.755 7 -31328399.229 8
  18718722.397   -27712442.078 5 -21493626.579 4
  18236460.037   -13137221.224 5 -10149212.911 5
  15918244.279   -31348393.355 7 -24212416.090 9
  15819813.404   -46151751.195 7 -35866926.720 8
  18992449.779   -22885450.413 5 -17621481.347 4
  17981456.811   -11464355.706 5  -8733343.912 5
 94  1 19 22 40 29.9820000  0  8 27 18 14 28 19 29 22 31
  17696424.912   -16836138.097 5 -13018918.164 6
  14963527.772   -40387538.675 7 -31375642.541 8
  18731527.287   -27645127.472 5 -21441173.780 4
  18222747.795   -13209293.237 5 -10205372.889 6
  15903708.467   -31424777.149 7 -24271935.933 8
  15819540.287   -46153185.694 7 -35868044.546 8
  19003617.717   -22826773.233 5 -17575758.933 4
  17958794.459   -11583447.927 5  -8826143.023 5
 94  1 19 22 40 59.9820000  0  8 27 18 14 28 19 29 22 31
  17674899.037   -16949265.743 5 -13107069.549 6
  14952069.998   -40447760.187 7 -31422568.394 8
  18744348.717   -27577754.781 5 -21388675.703 3
  18209121.850   -13280910.078 5 -10261178.188 6
  15889210.108   -31500949.206 7 -24331290.783 8
  15819344.803   -46154217.975 7 -35868848.950 8
  19014808.522   -22767958.786 5 -17529929.569 5
  17936182.709   -11702287.514 5  -8918745.276 5
 94  1 19 22 41 29.9820000  0  8 27 18 14 28 19 29 22 31
  17653396.326   -17062262.104 6 -13195118.623 6
  14940681.389   -40507598.714 7 -31469195.821 8
  18757176.162   -27510358.445 5 -21336159.192 4
  18195575.701   -13352069.904 5 -10316627.382 5
  15874754.787   -31576931.628 7 -24390497.858 8
  15819217.576   -46154870.076 7 -35869357.107 8
  19026022.420   -22709017.859 5 -17484001.644 4
  17913611.998   -11820880.798 5  -9011155.620 5
 94  1 19 22 41 59.9820000  0  8 27 18 14 28 19 29 22 31
  17631918.623   -17175129.460 6 -13283067.182 6
  14929370.076   -40567051.804 7 -31515522.907 8
  18770000.248   -27442953.083 4 -21283635.667 2
  18182120.928   -13422755.439 5 -10371706.998 6
  15860331.014   -31652711.349 7 -24449546.988 9
  15819170.561   -46155128.551 7
  19037264.053   -22649946.917 5 -17437972.419 4
  17891096.264   -11939214.614 5  -9103363.792 5
 94  1 19 22 42 29.9820000  0  8 27 18 14 28 19 29 22 31
  17610464.678   -17287868.757 6 -13370915.942 6
  14918131.170   -40626101.049 7 -31561535.310 8
  18782826.248   -27375558.588 4 -21231120.615 4
  18168768.506   -13492963.563 5 -10426414.595 6
  15845952.287   -31728279.529 7 -24508431.268 8
  15819197.787   -46154997.870 7
  19048526.022   -22590754.385 5 -17391848.442 5
  17868628.592   -12057288.689 5  -9195369.543 5
 94  1 19 22 42 59.9820000  0  8 27 18 14 28 19 29 22 31
  17589034.037   -17400481.559 6 -13458666.137 6
  14906973.608   -40684726.973 7 -31607217.847 8
  18795646.123   -27308187.841 4 -21178624.066 4
  18155497.100   -13562681.882 5 -10480740.518 6
  15831614.154   -31803639.567 7 -24567153.358 8
  15819290.740   -46154491.306 7 -35869062.035 8
  19059810.803   -22531444.489 5 -17345633.007 5
  17846203.725   -12175111.448 5  -9287179.486 5
 94  1 19 22 43 29.9820000  0  8 27 18 14 28 19 29 22 31
  17567626.061   -17512979.389 5 -13546326.781 6
  14895900.350   -40742919.451 7 -31652562.643 8
  18808459.045   -27240840.574 4 -21126145.790 3
  18142323.764   -13631905.658 5 -10534681.093 6
  15817315.803   -31878781.927 7 -24625705.847 9
  15819462.639   -46153602.947 7 -35868369.851 8
  19071123.115   -22472023.799 5 -17299331.250 5
  17823837.803   -12292674.943 5  -9378787.411 5
 94  1 19 22 43 59.9820000  0  8 27 18 14 28 19 29 22 31
  17546239.068   -17625377.970 6 -13633910.036 6
  14884913.342   -40800669.798 7 -31697562.918 8
  18821273.459   -27173518.247 4 -21073686.966 4
  18129240.842   -13700654.313 5 -10588251.430 5
  15803057.170   -31953699.544 7 -24684083.183 8
  15819703.373   -46152331.439 7 -35867379.085 9
  19082446.998   -22412494.220 5 -17252944.616 5
  17801513.186   -12409971.184 5  -9470187.086 5
 94  1 19 22 44 29.9820000  0  8 27 18 14 28 19 29 22 31
  17524871.764   -17737657.279 6 -13721400.355 6
  14874012.568   -40857963.317 7 -31742207.214 8
  18834087.248   -27106203.159 4 -21021233.782 2
  18116247.373   -13768925.998 5 -10641450.097 6
  15788842.264   -32028388.164 7 -24742282.083 8
  15820017.623   -46150665.425 7 -35866080.910 9
  19093795.311   -22352851.318 5 -17206469.692 5
  17779245.139   -12526988.884 5  -9561369.684 5
 94  1 19 22 44 59.9820000  0  8 27 18 14 28 19 29 22 31
  17503525.412   -17849835.891 6 -13808812.251 6
  14863186.014   -40914833.744 7 -31786521.842 8
  18846891.389   -27038888.938 3 -20968781.295 2
  18103348.647   -13836735.712 5 -10694288.797 6
  15774671.139   -32102880.364 7 -24800327.940 9
  15820410.733   -46148623.437 7 -35864489.786 8
  19105166.365   -22293123.247 5 -17159928.397 5
  17757029.201   -12643737.680 5  -9652342.754 5
 94  1 19 22 45 29.9820000  0  8 27 18 14 28 19 29 22 31
  17482200.139   -17961906.069 6 -13896139.601 6
  14852446.943   -40971289.953 7 -31830513.694 8
  18859708.131   -26971558.890 3 -20916316.448 2
  18090529.436   -13904086.247 5 -10746769.703 6
  15760527.436   -32177180.820 7 -24858224.374 8
  15820868.436   -46146202.972 7 -35862603.734 9
  19116548.514   -22233317.602 5 -17113326.648 4
  17734866.131   -12760205.891 5  -9743097.170 5
 94  1 19 22 45 59.9820000  0  8 27 18 14 28 19 29 22 31
  17460895.279   -18073857.009 6 -13983374.072 6
  14841779.264   -41027338.690 7 -31874188.032 8
  18872516.959   -26904217.568 3 -20863842.850 1
  18077802.936   -13970984.100 5 -10798897.869 6
  15746420.475   -32251317.446 7 -24915993.156 8
  15821402.108   -46143411.511 7 -35860428.596 9
  19127937.865   -22173446.547 5 -17066673.925 4
  17712752.904   -12876416.948 5  -9833651.193 5
 94  1 19 22 46 29.9820000  0  8 27 18 14 28 19 29 22 31
  17439620.451   -18185662.433 6 -14070495.129 6
  14831191.842   -41082969.966 7 -31917537.080 8
  18885343.834   -26836837.148 3 -20811338.778 2
  18065166.842   -14037391.863 5 -10850644.150 6
  15732346.311   -32325287.264 7 -24973631.958 8
  15822004.834   -46140232.833 7 -35857951.729 8
  19139343.014   -22113508.102 5 -17019968.686 4
  17690688.115   -12992350.471 5  -9923988.952 5
 94  1 19 22 46 59.9820000  0  8 27 18 14 28 19 29 22 31
  17418369.061   -18297339.400 6 -14157516.116 6
  14820687.154   -41138179.898 7 -31960557.810 8
  18898171.225   -26769417.133 3 -20758803.854 2
  18052619.904   -14103309.841 5 -10902008.788 6
  15718298.365   -32399104.852 7 -25031152.135 8
  15822680.818   -46136685.903 7 -35855187.917 8
  19150763.076   -22053514.592 5 -16973220.548 3
  17668683.029   -13108002.202 5 -10014107.140 5
 94  1 19 22 47 29.9820000  0  8 27 18 14 28 19 29 22 31
  17397142.248   -18408874.329 6 -14244426.400 6
  14810270.795   -41192930.066 7 -32003220.279 8
  18911010.881   -26701957.925 3 -20706238.370 1
  18040168.983   -14168719.877 5 -10952977.638 5
  15704284.998   -32472739.462 7 -25088529.737 9
  15823430.693   -46132738.448 7 -35852112.011 8
  19162192.897   -21993443.878 5 -16926412.232 3
  17646731.834   -13223353.710 5 -10103991.382 5
 94  1 19 22 47 59.9820000  0  8 27 18 14 28 19 29 22 31
  17375943.373   -18520281.663 6 -14331237.259 6
  14799934.608   -41247222.389 7 -32045525.986 8
  18923848.545   -26634473.760 3 -20653653.455 2
  18027822.334   -14233620.647 5 -11003549.652 6
  15690310.662   -32546193.803 7 -25145766.871 9
  15824261.662   -46128376.672 7 -35848713.255 8
  19173636.990   -21933298.998 5 -16879546.136 4
  17624843.139   -13338399.380 6 -10193637.312 5
 94  1 19 22 48 29.9820000  0  8 27 18 14 28 19 29 22 31
  17354765.615   -18631574.798 6 -14417959.159 6
  14789692.053   -41301064.867 7 -32087481.163 8
  18936699.287   -26566973.335 3 -20601055.864 2
  18015567.350   -14298013.092 5 -11053725.572 6
  15676365.576   -32619448.121 7 -25202848.145 9
  15825172.029   -46123600.423 7 -35844991.523 8
  19185096.537   -21873076.984 5 -16832619.936 4
  17603010.803   -13453114.474 5 -10283025.648 5
 94  1 19 22 48 59.9820000  0  7 27 18 28 19 29 22 31
  17333606.717   -18742761.033 6 -14504597.721 6
  14779529.600   -41354459.570 7 -32129087.420 8
  18003407.217   -14361913.068 5 -11103517.762 6
  15662468.326   -32692483.871 7 -25259759.112 9
  15826159.725   -46118414.018 7 -35840950.201 8
  19196571.170   -21812769.668 5 -16785627.272 4
  17581239.998   -13567505.129 5 -10372161.180 5
 94  1 19 22 49 29.9820000  0  8 27 18 14 28 19 29 22 31
  17312469.717   -18853835.649 6 -14591149.348 6
  14769451.303   -41407416.385 7 -32170352.471 8
  18962384.037       67492.431 3
  17991348.498   -14425319.467 5 -11152925.334 6
  15648617.443   -32765277.867 7 -25316481.697 9
  15827225.100   -46112804.088 7 -35836578.864 8
  19208069.709   -21752359.710 4 -16738554.621 4
  17559536.287   -13681563.254 5 -10461037.602 5
 94  1 19 22 49 59.9820000  0  8 27 18 14 28 19 29 22 31
  17291349.397   -18964814.466 6 -14677626.293 6
  14759452.092   -41459966.624 7 -32211300.712 8
  18975216.990      134961.267 3        -0.30312
  17979366.436   -14488261.348 5 -11201970.944 6
  15634808.889   -32837850.367 7 -25373031.690 9
  15828365.022   -46106812.637 7 -35831910.221 8
  19219580.772   -21691858.734 4 -16691411.047 4
  17537894.772   -13795310.741 6 -10549671.972 5
 94  1 19 22 50 29.9810000  0  8 27 18 14 28 19 29 22 31
  17270252.095   -19075689.118 6 -14764022.099 6
  14749531.681   -41512105.128 7 -32251928.117 8
  18988055.157      202393.710 3     52544.297 2
  17967471.275   -14550740.987 5 -11250656.356 6
  15621040.876   -32910192.338 7 -25429402.049 9
  15829572.103   -46100475.717 7 -35826972.392 8
  19231108.853   -21631282.090 4 -16644208.512 4
  17516303.931   -13908753.003 5 -10638068.496 5
 94  1 19 22 50 59.9810000  0  8 27 18 14 28 19 29 22 31
  17249173.001   -19186457.422 6 -14850335.021 6
  14739690.814   -41563820.218 7 -32292225.587 8
  19000880.954      269803.457 3    105071.234 1
  17955680.243   -14612742.329 5 -11298969.071 6
  15607315.985   -32982311.277 7 -25485598.620 9
  15830842.196   -46093794.781 7 -35821766.501 8
  19242649.712   -21570626.441 4 -16596944.432 4
  17494771.923   -14021904.329 5 -10726238.318 5
 94  1 19 22 51 29.9810000  0  8 27 18 14 28 19 29 22 31
  17228117.321   -19297112.653 6 -14936559.840 6
  14729927.017   -41615111.683 7 -32332192.971 8
  19013701.743      337174.822 3    157568.271 1
  17943972.681   -14674265.689 5 -11346909.337 6
  15593635.001   -33054229.565 7 -25541638.830 9
  15832177.829   -46086778.623 7 -35816299.393 8
  19254206.400   -21509907.158 3 -16549630.756 4
  17473290.681   -14134776.102 5 -10814190.305 5
 94  1 19 22 51 59.9810000  0  8 27 18 14 28 19 29 22 31
  17207089.376   -19407623.574 6 -15022672.210 6
  14720256.689   -41665951.868 7 -32371808.699 8
  19026515.650      404514.246 3    210040.396 1
  17932360.689   -14735272.848 5 -11394447.369 6
  15579983.923   -33125941.265 7 -25597518.070 9
  15833579.814   -46079416.574 7 -35810562.753 8
  19265769.462   -21449132.807 3 -16502274.166 3
  17451868.431   -14247355.740 5 -10901914.639 5
 94  1 19 22 52 29.9810000  0  8 27 18 14 28 19 29 22 31
  17186085.876   -19517983.464 6 -15108666.885 6
  14710665.298   -41716340.118 7 -32411072.270 8
  19039320.095      471814.831 3    262482.276 1
  17920858.235   -14795744.654 5 -11441568.242 6
  15566376.110   -33197456.069 7 -25653243.877 9
  15835046.532   -46071697.028 7 -35804547.547 8
  19277346.181   -21388321.317 3 -16454888.654 4
  17430505.470   -14359638.707 5 -10989407.816 5
 94  1 19 22 52 59.9810000  0  8 27 18 14 28 19 29 22 31
  17165115.165   -19628184.384 6 -15194537.691 6
  14701166.860   -41766256.597 7 -32449968.226 8
  19052125.103      539092.625 3    314906.382 1
  17909444.243   -14855672.431 5 -11488265.196 6
  15552808.064   -33268770.581 7 -25708813.610 9
  15836592.946   -46063575.966 7 -35798219.471 8
  19288927.650   -21327444.057 4 -16407451.860 3
  17409196.157   -14471606.663 6 -11076655.515 5
 94  1 19 22 53 29.9810000  0  8 27 18 14 28 19 29 22 31
  17144175.650   -19738232.586 6 -15280289.492 6
  14691756.845   -41815704.108 7 -32488498.757 8
  19064919.548      606337.081 3    367304.481 1
  17898149.368   -14915069.464 5 -11534548.583 6
  15539272.298   -33339889.718 7 -25764231.110 9
  15838217.415   -46055038.465 7 -35791566.894 8
  19300523.001   -21266500.886 3 -16359963.739 3
  17387947.962   -14583253.352 6 -11163652.857 5
 94  1 19 22 53 59.9810000  0  8 27 18 14 28 19 29 22 31
  17123256.821   -19848153.357 6 -15365942.008 6
  14682437.251   -41864690.641 7 -32526670.083 8
  19077711.345      673546.407 3    419675.227 2
  17886946.181   -14973928.116 5 -11580412.457 6
  15525771.298   -33410825.433 7 -25819505.678 9
  15839919.978   -46046090.935 7 -35784594.811 8
  19312133.329   -21205492.265 4 -16312424.586 3
  17366773.876   -14694561.284 6 -11250386.233 5
 94  1 19 22 54 29.9810000  0  8 27 18 14 28 19 29 22 31
  17102358.939   -19957972.300 6 -15451515.166 6
  14673197.860   -41913229.913 7 -32564492.892 8
  19090501.954      740709.502 3    472009.979 1
  17875845.095   -15032275.575 5 -11625877.999 6
  15512311.243   -33481586.993 7 -25874644.532 9
  15841703.079   -46036727.657 7 -35777298.779 8
  19323753.900   -21144412.847 4 -16264830.272 2
  17345655.728   -14805530.012 6 -11336855.297 5
 94  1 19 22 54 59.9810000  0  8 27 18 14 28 19 29 22 31
  17081478.634   -20067703.743 6 -15537020.130 6
  14664048.907   -41961323.896 7 -32601968.720 8
  19103265.462      807830.902 3    524312.162 1
  17864837.118   -15090119.778 5 -11670951.388 6
  15498876.001   -33552165.105 7 -25929640.447 9
  15843562.454   -46026946.304 7 -35769676.971 8
  19335395.071   -21083261.164 4 -16217179.626 2
  17324606.556   -14916142.548 6 -11423046.816 5
 94  1 19 22 55 29.9810000  0  8 27 18 14 28 19 29 22 31
  17060611.782   -20177347.790 6 -15622457.016 6
  14654977.212   -42008988.924 7 -32639110.298 8
  19116029.525      874897.253 2    576571.532 1
  17853925.368   -15147453.550 5 -11715627.041 6
  15485481.876   -33622558.788 7 -25984492.644 9
  15845498.431   -46016781.969 7 -35761756.743 8
  19347040.087   -21022058.056 4 -16169488.934 2
  17303620.415   -15026392.951 6 -11508956.149 6
 94  1 19 22 55 59.9810000  0  8 27 18 14 28 19 29 22 31
  17039768.892   -20286890.593 6 -15707815.017 6
  14645991.775   -42056207.952 7 -32675904.348 8
  19128787.681      941918.367 3    628795.594 2
  17843109.282   -15204270.771 5 -11759900.179 6
  15472127.782   -33692747.244 7 -26039184.924 9
  15847503.860   -46006240.879 7 -35753542.928 8
  19358696.243   -20960808.553 3 -16121762.068 2
  17282713.493   -15136269.326 6 -11594574.029 5
 94  1 19 22 56 29.9810000  0  7 27 18 14 28 19 29 31
  17018944.525   -20396321.674 6
  14637090.571   -42102979.355 7 -32712349.592 8
  19141528.485     1008890.271 2    680981.318 2
  17832396.329   -15260591.599 5 -11803786.513 6
  15458811.493   -33762719.162 7 -26093708.468 9
  15849582.040   -45995317.898 7 -35745031.542 8
  17261877.235   -15245780.897 6
 94  1 19 22 56 59.9810000  0  7 27 18 14 28 19 29 31
  16998141.126   -20505644.485 6 -15878272.528 6
  14628277.525   -42149305.405 7 -32748447.811 8
  19154263.025     1075818.236 2    733132.813 2
  17821774.837   -15316420.093 5 -11847289.212 6
  15445533.962   -33832485.385 7 -26148071.729 9
  15851727.907   -45984037.053 7 -35736241.301 8
  17241107.110   -15354935.049 6 -11764962.774 5
 94  1 19 22 57 29.9810000  0  7 27 18 14 28 19 29 31
  16977362.103   -20614840.976 6 -15963360.693 6
  14619547.454   -42195163.515 7 -32784181.396 8
  19166993.907     1142706.046 3    785252.990 2
  17811244.720   -15371742.887 5 -11890397.873 6
  15432298.587   -33902050.949 7 -26202278.641 9
  15853945.923   -45972393.546 7 -35727168.463 8
  17220402.517   -15463731.870 6 -11849739.463 6
 94  1 19 22 57 59.9810000  0  6 27 18 28 19 29 31
  16956607.228   -20723910.919 6 -16048350.225 6
  14610913.579   -42240549.238 7 -32819546.895 8
  17800814.275   -15426573.541 5 -11933123.028 6
  15419092.993   -33971426.485 7 -26256337.469 9
  15856233.446   -45960367.496 7 -35717797.539 8
  17199766.017   -15572174.269 6 -11934239.984 6
 94  1 19 22 58 29.9810000  0  6 27 18 28 19 29 31
  16935874.079   -20832851.227 6 -16133238.774 6
  14602361.228   -42285484.374 7 -32854561.288 8
  17790471.368   -15480903.779 5 -11975458.266 6
  15405925.376   -34040637.784 7 -26310268.325 9
  15858593.884   -45947966.773 7 -35708134.663 8
  17179198.806   -15680265.932 6 -12018467.202 6
 94  1 19 22 58 59.9810000  0  6 27 18 28 19 29 31
  16915172.025   -20941649.243 6 -16218016.436 6
  14593895.126   -42329964.707 7 -32889221.282 8
  17780227.376   -15534714.545 5 -12017388.728 6
  15392788.087   -34109681.187 7 -26364068.356 9
  15861024.165   -45935193.655 7 -35698181.617 8
  17158691.181   -15788002.198 6 -12102417.495 5
 94  1 19 22 59 29.9810000  0  6 27 18 28 19 29 31
  16894497.314   -21050301.782 6 -16302680.727 6
  14585520.212   -42373987.152 7 -32923524.484 8
  17770091.173   -15587997.812 5 -12058908.141 6
  15379680.306   -34178555.604 7 -26417736.703 9
  15863523.470   -45922051.789 6 -35687941.219 8
  17138256.204   -15895385.949 6 -12186093.095 6
 94  1 19 22 59 59.9810000  0  6 27 18 28 19 29 31
  16873849.407   -21158804.963 6 -16387228.643 6
  14577230.384   -42417561.052 7 -32957478.169 8
  17760052.720   -15640751.249 5 -12100014.705 6
  15366608.368   -34247239.092 7 -26471256.283 9
  15866095.446   -45908536.511 6 -35677409.865 8
  17117889.962   -16002420.401 6 -12269496.515 6
 94  1 19 23  0 29.9810000  0  6 27 18 28 19 29 31
  16853228.712   -21267168.268 6 -16471667.568 6
  14569021.892   -42460674.164 7 -32991072.795 8
  17750116.759   -15692956.207 5 -12140693.875 6
  15353580.392   -34315721.303 7 -26524619.025 9
  15868739.321   -45894651.198 7 -35666590.169 8
  17097587.267   -16109114.121 6 -12352634.439 6
 94  1 19 23  0 59.9810000  0  6 27 18 28 19 29 31
  16832631.775   -21375404.183 6 -16556007.222 6
  14560910.329   -42503310.309 7 -33024295.762 8
  17740291.173   -15744611.654 5 -12180944.857 6
  15340589.165   -34383979.236 7 -26577807.001 9
  15871452.954   -45880386.442 7 -35655474.805 8
  17077353.564   -16215455.614 6 -12435497.896 6
 94  1 19 23  1 29.9810000  0  6 27 18 28 19 29 31
  16812053.860   -21483532.809 6 -16640263.270 6
  14552888.173   -42545473.226 7 -33057149.970 8
  17730563.501   -15795731.653 5 -12220778.605 6
  15327641.095   -34452015.314 7 -26630822.115 9
  15874240.923   -45865737.876 7 -35644060.366 8
  17057187.743   -16321432.143 6 -12518076.961 6
 94  1 19 23  1 59.9810000  0  6 27 18 28 19 29 31
  16791501.306   -21591546.085 6 -16724429.434 6
  14544954.462   -42587170.444 7 -33089641.312 8
  17720932.345   -15846322.851 5 -12260200.302 6
  15314737.720   -34519820.190 7 -26683657.066 9
  15877105.517   -45850684.113 7 -35632330.185 8
  17037095.165   -16427021.432 6 -12600354.280 6
 94  1 19 23  2 29.9810000  0  7 27 18  2 28 19 29 31
  16770967.110   -21699454.699 6 -16808514.036 6
  14537107.095   -42628406.259 7 -33121773.107 8
  19137718.618     -142088.309 3
  17711406.103   -15896389.475 5 -12299213.234 6
  15301873.009   -34587420.486 7 -26736332.600 9
  15880045.642   -45835226.462 7 -35620285.291 8
  17017077.837   -16532200.173 6 -12682311.708 6
 94  1 19 23  2 59.9810000  0  7 27 18  2 28 19 29 31
  16750451.165   -21807261.465 6 -16892519.297 6
  14529341.978   -42669196.698 7 -33153557.861 8
  19110702.025     -284048.825 3        -0.05012
  17701977.150   -15945947.971 5 -12337830.232 6
  15289050.306   -34654830.558 7 -26788859.924 9
  15883066.040   -45819363.073 7 -35607924.236 8
  16997147.150   -16636948.156 6 -12763933.472 6
 94  1 19 23  3 29.9810000  0  7 27 18  2 28 19 29 31
  16729957.353   -21914963.359 6 -16976442.809 6
  14521667.025   -42709540.406 7 -33184994.514 8
  19083709.173     -425896.957 3   -110530.865 1
  17692637.626   -15995012.524 5 -12376062.339 6
  15276251.493   -34722074.006 7 -26841257.402 9
  15886159.298   -45803104.730 7 -35595255.422 8
  16977294.345   -16741280.918 6 -12845231.686 6
 94  1 19 23  3 59.9810000  0  7 27 18  2 28 19 29 31
  16709485.259   -22022538.533 6 -17060267.556 6
  14514077.243   -42749416.755 7 -33216066.987 8
  19056740.345     -567616.351 3   -220961.379 2
  17683400.603   -16043547.564 5 -12413881.830 6
  15263489.798   -34789149.960 7 -26893524.366 9
  15889329.907   -45786450.508 7 -35582278.136 8
  16957518.735   -16845198.500 6 -12926206.370 6
 94  1 19 23  4 29.9810000  0  7 27 18  2 28 19 29 31
  16689035.282   -22129999.415 6 -17144003.261 6
  14506579.868   -42788811.990 7 -33246764.570 8
  19029798.478     -709216.482 3   -331298.959 2
  17674272.181   -16091542.221 5 -12451280.259 6
  15250757.782   -34856060.625 7 -26945662.537 9
  15892570.853   -45769419.728 7 -35569007.433 8
  16937819.454   -16948717.152 6 -13006870.211 6
 94  1 19 23  4 59.9810000  0  7 27 18  2 28 19 29 31
  16668611.142   -22237337.444 6 -17227643.211 6
  14499177.868   -42827712.773 7 -33277076.866 8
  19002871.751     -850699.549 3   -441545.313 2
  17665240.142   -16138996.908 5 -12488257.923 6
  15238059.181   -34922780.712 7 -26997652.206 9
  15895880.314   -45752029.700 7 -35555456.790 8
  16918190.095   -17051851.935 6 -13087234.942 6
 94  1 19 23  5 29.9810000  0  7 27 18  2 28 19 29 31
  16648207.860   -22344554.986 6 -17311189.282 6
  14491864.860   -42866134.815 7 -33307016.113 8
  18975971.345     -992074.605 3   -551707.486 2
  17656315.251   -16185916.309 5 -12524818.479 6
  15225399.400   -34989307.721 7 -27049491.422 9
  15899250.712   -45734300.433 6 -35541641.808 8
  16898633.478   -17154613.742 6 -13167309.027 6
 94  1 19 23  5 59.9810000  0  7 27 18  2 28 19 29 31
  16627825.360   -22451660.183 6 -17394647.795 6
  14484646.196   -42904091.678 7 -33336592.890 8
  18949094.743    -1133319.087 3   -661767.940 2
  17647481.962   -16232298.427 5 -12560960.381 6
  15212777.478   -35055624.180 7 -27101166.570 9
  15902690.368   -45716228.795 6 -35527560.035 8
  16879153.806   -17256990.399 6 -13247082.996 6
 94  1 19 23  6 29.9810000  0  7 27 18  2 28 19 29 31
  16607468.493   -22558632.168 6 -17478002.529 6
  14477509.126   -42941576.093 7 -33365801.522 8
  18922241.939    -1274420.893 3   -771717.209 2
  17638764.470   -16278148.979 5 -12596688.081 6
  15200205.259   -35121703.158 7 -27152656.670 9
  15906198.939   -45697791.073 6 -35513193.004 8
  16859753.087   -17358950.601 6 -13326532.453 6
 94  1 19 23  6 59.9810000  0  7 27 18  2 28 19 29 31
  16587138.931   -22665475.542 6 -17561257.023 6
  14470462.095   -42978608.899 7 -33394658.256 8
  18895415.368    -1415385.415 3   -881559.511 1
  17630131.509   -16323479.501 5 -12632010.545 6
  15187673.134   -35187568.444 7 -27203980.248 9
  15909776.915   -45678993.405 6 -35498545.503 8
  16840429.775   -17460494.233 6 -13405657.320 6
 94  1 19 23  7 29.9810000  0  7 27 18  2 28 19 29 31
  16566829.243   -22772191.444 6 -17644412.211 6
  14463503.353   -43015185.455 7 -33423159.469 8
  18868621.884    -1556181.559 3   -991270.636 1
  17621609.110   -16368278.252 5 -12666918.644 6
  15175176.462   -35253228.637 7 -27255144.023 9
  15913427.423   -45659810.685 6 -35483597.961 8
  16821185.696   -17561620.538 6 -13484456.998 6
 94  1 19 23  7 59.9800000  0  7 27 18  2 28 19 29 31
  16546549.113   -22878778.124 6 -17727466.682 6
  14456633.020   -43051285.368 7 -33451289.265 8
  18841860.254    -1696808.958 3  -1100850.265 1
  17613186.973   -16412543.205 5 -12701410.800 5
  15162718.699   -35318700.681 7 -27306161.177 9
  15917148.402   -45640254.763 6 -35468359.609 8
  16802019.332   -17662333.518 6 -13562934.598 6
 94  1 19 23  8 29.9800000  0  7 27 18  2 28 19 29 31
  16526290.598   -22985233.456 6 -17810418.839 6
  14449854.777   -43086909.917 7 -33479048.649 8
  18815132.442    -1837291.521 3  -1210317.049 1
  17604865.567   -16456264.178 5 -12735479.078 6
  15150290.309   -35384006.469 7 -27357048.789 9
  15920939.621   -45620331.622 6 -35452835.112 8
  16782929.293   -17762648.657 6 -13641102.175 6
 94  1 19 23  8 59.9800000  0  7 27 18  2 28 19 29 31
  16506054.074   -23091566.068 6 -17893275.352 7
  14443170.684   -43122046.811 7 -33506428.051 8
  18788422.738    -1977619.184 3  -1319663.128 2
  17596648.754   -16499440.528 5 -12769122.971 6
  15137892.731   -35449152.563 7 -27407811.959 9
  15924799.949   -45600047.336 6 -35437029.211 8
  16763913.465   -17862574.170 6 -13718966.161 6
 94  1 19 23  9 29.9800000  0  7 27 18  2 28 19 29 31
  16485845.504   -23197769.834 6 -17976031.446 6
  14436578.668   -43156684.873 7 -33533418.740 8
  18761750.832    -2117789.068 3  -1428886.297 1
  17588536.645   -16542065.828 5 -12802337.473 6
  15125529.504   -35514118.645 7 -27458434.856 9
  15928730.926   -45579392.128 6 -35420934.270 8
  16744975.168   -17962103.069 6 -13796521.088 6
 94  1 19 23  9 59.9800000  0  7 27 18  2 28 19 29 31
  16465658.559   -23303853.641 6 -18058694.091 6
  14430075.520   -43190846.488 7 -33560038.177 7
  18735099.301    -2257847.309 3  -1538022.498 2
  17580529.809   -16584153.895 5 -12835133.359 5
  15113201.121   -35578908.593 7 -27508920.510 8
  15932725.707   -45558395.378 6 -35404573.194 7
  16726111.145   -18061231.838 6 -13873764.230 6
 94  1 19 23 10 29.9800000  0  7 27 18  2 28 19 29 31
  16445493.770   -23409819.895 6 -18141265.165 6
  14423664.692   -43224538.603 7 -33586291.787 7
  18708468.184    -2397792.335 3  -1647070.453 1
  17572622.848   -16625708.901 5 -12867513.875 6
  15100910.262   -35643501.569 7 -27559252.697 9
  15936788.715   -45537040.116 6 -35387932.765 7
  16707327.590   -18159946.120 6 -13950684.409 6
 94  1 19 23 10 59.9800000  0  7 27 18  2 28 19 29 31
  16425349.715   -23515676.868 6 -18223751.055 7
  14417345.793   -43257756.247 7 -33612175.664 7
  18681858.707    -2537618.244 3  -1756025.603 1
  17564815.082   -16666744.810 5 -12899489.902 6
  15088657.957   -35707883.834 7 -27609420.675 9
  15940919.754   -45515331.172 6 -35371016.728 7
  16688625.707   -18258221.938 6 -14027262.919 6
 94  1 19 23 11 29.9800000  0  7 27 18  2 28 19 29 31
  16405229.426   -23621415.449 6 -18306144.695 7
  14411109.832   -43290507.906 7 -33637696.427 8
  18655275.637    -2677323.170 3  -1864886.458 2
  17557107.840   -16707248.852 5 -12931051.475 6
  15076448.324   -35772051.790 7 -27659421.648 9
  15945118.996   -45493271.202 6 -35353827.160 7
  16670012.731   -18356036.957 6 -14103482.348 6
 94  1 19 23 11 59.9800000  0  7 27 18  2 28 19 29 31
  16385130.356   -23727034.820 6 -18388445.443 7
  14404967.067   -43322798.212 7 -33662857.700 8
  18628715.160    -2816890.980 3  -1973640.460 1
  17549499.652   -16747232.442 6 -12962207.511 6
  15064272.918   -35836022.994 7 -27709269.326 9
  15949383.043   -45470855.508 6 -35336360.416 7
  16651489.027   -18453380.242 6 -14179334.193 6
 94  1 19 23 12 29.9800000  0  7 27 18  2 28 19 29 31
  16365055.676   -23832530.169 6 -18470649.574 7
  14398909.715   -43354624.289 7 -33687657.241 8
  18602190.949    -2956289.099 3  -2082262.258 2
  17541990.684   -16786689.730 5 -12992953.439 6
  15052135.832   -35899809.952 7 -27758973.432 9
  15953722.145   -45448060.485 6 -35318598.082 7
  16633056.051   -18550247.112 6 -14254814.819 6
 94  1 19 23 12 59.9800000  0  7 27 18  2 28 19 29 31
  16345006.231   -23937883.114 6 -18552742.727 7
  14392944.231   -43385972.450 7 -33712084.377 8
  18575698.762    -3095497.156 4  -2190735.965 3
  17534587.699   -16825595.955 5 -13023269.965 6
  15040033.168   -35963414.224 7 -27808535.183 9
  15958137.082   -45424867.234 6 -35300525.454 7
  16614713.559   -18646641.403 6 -14329927.191 6
 94  1 19 23 13 29.9800000  0  7 27 18  2 28 19 29 31
  16324984.262   -24043092.377 6 -18634723.918 7
  14387070.113   -43416848.391 7 -33736143.552 8
  18549246.371    -3234526.336 4  -2299070.267 1
  17527285.457   -16863949.320 5 -13053155.697 5
  15027958.692   -36026856.389 7 -27857970.617 9
  15962625.793   -45401268.040 6 -35282136.500 7
  16596453.731   -18742597.006 6 -14404697.742 6
 94  1 19 23 13 59.9800000  0  7 27 18  2 28 19 29 31
  16304990.738   -24148160.349 6 -18716595.017 7
  14381285.684   -43447252.196 7 -33759834.825 8
  18522818.902    -3373389.106 4  -2407274.887 2
  17520089.777   -16901756.692 6 -13082615.970 6
  15015916.051   -36090139.787 7 -27907282.335 9
  15967194.645   -45377264.272 6 -35263432.293 7
  16578272.082   -18838134.166 6 -14479142.229 6
 94  1 19 23 14 29.9800000  0  7 27 18  2 28 19 29 31
  16285026.848   -24253079.359 6 -18798350.046 7
  14375592.168   -43477157.863 7 -33783137.941 8
  18496424.684    -3512093.642 4  -2515356.183 3
  17513007.238   -16938984.253 5 -13111624.450 6
  15003913.262   -36153223.810 7 -27956438.692 9
  15971837.996   -45352864.766 6 -35244419.729 7
  16560171.699   -18933249.554 6 -14553258.068 6
 94  1 19 23 14 59.9800000  0  7 27 18  2 28 19 29 31
  16265091.090   -24357848.512 6 -18879988.289 7
  14370001.262   -43506535.682 7 -33806029.748 8
  18470059.895    -3650639.634 4  -2623313.957 3
  17506036.606   -16975622.378 5 -13140173.612 6
  14991951.840   -36216087.973 7 -28005423.731 9
  15976553.762   -45328088.723 6 -35225113.755 7
  16542151.301   -19027934.138 6 -14627038.209 6
 94  1 19 23 15 29.9800000  0  7 27 18  2 28 19 29 31
  16245176.481   -24462489.641 6 -18961526.783 7
  14364510.363   -43535398.790 7 -33828520.483 8
  18443722.777    -3789028.082 4  -2731148.972 4
  17499172.488   -17011690.350 5 -13168278.501 5
  14980028.152   -36278738.309 7 -28054242.153 9
  15981332.895   -45302969.823 6 -35205540.611 7
  16524222.895   -19122173.113 6 -14700471.131 6
 94  1 19 23 15 59.9800000  0  7 27 18  2 28 19 29 31
  16225284.848   -24567011.146 6 -19042972.062 7
  14359115.848   -43563741.018 7 -33850605.333 8
  18417422.817    -3927243.157 4  -2838848.880 4
  17492416.270   -17047185.423 5 -13195936.968 5
  14968151.488   -36341158.273 7 -28102881.068 9
  15986175.777   -45277515.867 6 -35185706.379 7
  16506378.871   -19215933.820 6 -14773531.369 6
 94  1 19 23 16 29.9800000  0  7 27 18  2 28 19 29 31
  16205416.387   -24671431.054 6 -19124338.152 7
  14353822.012   -43591568.672 7 -33872289.219 8
  18391156.262    -4065275.488 4  -2946406.387 3
  17485769.809   -17082126.287 5 -13223163.589 5
  14956312.856   -36403360.174 7 -28151350.060 9
  15991082.660   -45251736.019 6 -35165618.212 7
  16488628.910   -19309211.516 6 -14846215.244 6
 94  1 19 23 16 59.9800000  0  7 27 18  2 28 19 29 31
  16185563.949   -24775754.246 6 -19205628.920 7
  14348618.520   -43618912.389 7 -33893596.014 8
  18364927.363    -4203128.293 4  -3053823.998 4
  17479215.957   -17116548.457 5 -13249986.037 5
  14944512.184   -36465383.504 7 -28199679.905 9
  15996050.981   -45225622.880 6 -35145270.348 7
  16470965.606   -19402005.330 6 -14918522.069 6
 94  1 19 23 17 29.9800000  0  7 27 18  2 28 19 29 31
  16165729.363   -24879984.866 6 -19286847.524 7
  14343501.004   -43645805.685 7 -33914551.830 8
  18338719.988    -4340827.632 5  -3161122.035 5
  17472765.262   -17150466.050 5 -13276415.301 5
  14932738.606   -36527233.257 7 -28247874.495 9
  16001085.020   -45199168.159 6 -35124656.310 7
  16453402.051   -19494324.819 6 -14990459.288 6
 94  1 19 23 17 59.9800000  0  7 27 18  2 28 19 29 31
  16145918.731   -24984092.735 6 -19367970.483 7
  14338471.981   -43672236.982 7 -33935147.645 8
  18312547.434    -4478370.540 4  -3268298.206 4
  17466408.879   -17183868.301 5 -13302442.990 5
  14921008.262   -36588885.627 7 -28295915.278 9
  16006187.871   -45172346.151 6 -35103756.073 7
  16435926.762   -19586161.745 6 -15062020.477 6
 94  1 19 23 18 29.9800000  0  7 27 18  2 28 19 29 31
  16126134.777   -25088062.965 6 -19448986.196 7
  14333528.895   -43698207.521 7 -33955384.428 8
  18286401.434    -4615757.320 4  -3375352.697 5
  17460152.613   -17216756.243 5 -13328069.917 5
  14909313.410   -36650337.286 7 -28343799.660 9
  16011363.793   -45145153.510 6 -35082567.050 7
  16418541.223   -19677526.230 6 -15133213.545 6
 94  1 19 23 18 59.9800000  0  7 27 18  2 28 19 29 31
  16106375.887   -25191886.808 6 -19529887.837 7
  14328676.738   -43723716.630 7 -33975261.654 8
  18260286.918    -4752995.677 4  -3482291.553 3
  17453990.363   -17249122.791 5 -13353290.561 6
  14897662.121   -36711578.059 7 -28391519.719 9
  16016605.160   -45117596.643 6 -35061094.189 7
  16401243.277   -19768419.422 6 -15204039.370 6
 94  1 19 23 19 29.9800000  0  7 27 18  2 28 19 29 31
  16086648.707   -25295557.893 6 -19610670.450 7
  14323911.457   -43748740.093 7 -33994760.458 8
  18234203.285    -4890069.597 4  -3589102.282 2
  17447934.793   -17280954.390 5 -13378094.361 6
  14886053.090   -36772592.436 7 -28439063.364 9
  16021917.504   -45089692.646 6 -35039350.843 7
  16384037.535   -19858844.079 6 -15274500.090 6
 94  1 19 23 19 59.9800000  0  7 27 18  2 28 19 29 31
  16066952.996   -25399068.195 6 -19691327.782 7
  14319249.277   -43773253.808 7 -34013862.054 8
  18208159.543    -5026939.383 5  -3695753.943 3
  17441977.543   -17312244.725 5 -13402476.406 6
  14874477.074   -36833401.445 7 -28486446.991 9
  16027292.137   -45061446.097 6 -35017340.572 7
  16366917.996   -19948791.634 6 -15344589.052 6
 94  1 19 23 20 29.9800000  0  7 27 18  2 28 19 29 31
  16047282.137   -25502433.572 6 -19771872.188 7
  14314681.192   -43797257.986 7 -34032566.607 8
  18182149.567    -5163613.558 4  -3802253.163 3
  17436126.692   -17342988.659 5 -13426432.690 5
  14862941.942   -36894024.478 7 -28533685.687 9
  16032732.809   -45032866.234 6 -34995070.571 7
  16349893.949   -20038269.334 6 -15414311.878 6
 94  1 19 23 20 59.9800000  0  7 27 18  2 28 19 29 31
  16027638.059   -25605660.943 6 -19852309.052 7
  14310208.660   -43820758.234 7 -34050878.486 8
  18156179.567    -5300103.500 5  -3908608.848 3
  17430386.512   -17373178.363 5 -13449957.102 5
  14851438.301   -36954477.422 7 -28580791.861 9
  16038235.371   -45003949.956 6 -34972538.424 7
  16332958.168   -20127271.238 6 -15483663.968 6
 94  1 19 23 21 29.9800000  0  7 27 18  2 28 19 29 31
  16008017.027   -25708760.513 6 -19932646.352 7
  14305829.520   -43843774.483 7 -34068813.229 8
  18130239.285    -5436405.896 5  -4014818.388 3
  17424742.551   -17402811.713 5 -13473047.998 5
  14839963.379   -37014772.007 7 -28627774.636 9
  16043802.559   -44974688.587 6 -34949737.370 7
  16316114.004   -20215790.256 6 -15552639.774 6
 94  1 19 23 21 59.9800000  0  7 27 18  2 28 19 29 31
  15988415.957   -25811762.497 6 -20012907.584 7
  14301534.067   -43866340.277 7 -34086396.970 8
  18104331.348    -5572551.063 5  -4120905.412 2
  17419205.027   -17431903.254 5 -13495716.706 5
  14828520.785   -37074918.446 7 -28674641.972 9
  16049434.043   -44945086.208 6 -34926670.607 6
  16299359.668   -20303836.624 6 -15621247.276 6
 94  1 19 23 22 29.9800000  0  7 27 18  2 28 19 29 31
  15968840.504   -25914653.067 6 -20093082.016 7
  14297325.660   -43888458.914 7 -34103632.274 8
  18078450.129    -5708559.052 5  -4226885.559 3
  17413777.067   -17460445.167 5 -13517957.131 5
  14817106.777   -37134883.940 7 -28721368.318 9
  16055136.145   -44915128.231 6 -34903326.752 6
  16282696.473   -20391398.194 6 -15689477.020 6
 94  1 19 23 22 59.9800000  0  7 27 18  2 28 19 29 31
  15949281.371   -26017421.667 6 -20173161.408 7
  14293202.418   -43910123.300 7 -34120513.614 8
  18052599.402    -5844411.487 5  -4332744.483 3
  17408450.262   -17488442.374 5 -13539773.115 5
  14805733.082   -37194658.505 7 -28767945.888 9
  16060905.285   -44884807.247 6 -34879700.038 7
  16266127.942   -20478465.138 6 -15757321.333 6
 94  1 19 23 23 29.9800000  0  7 27 18  2 28 19 29 31
  15929750.613   -26120061.338 6 -20253140.332 7
  14289171.910   -43931304.501 7 -34137018.448 8
  18026776.402    -5980087.379 4  -4438465.853 2
  17403227.449   -17515899.003 5 -13561167.871 5
  14794399.957   -37254224.660 7 -28814361.058 9
  16066742.910   -44854127.605 6 -34855793.855 6
  16249652.567   -20565033.577 6 -15824777.217 6
 94  1 19 23 23 59.9800000  0  7 27 18  2 28 19 29 31
  15910242.910   -26222574.586 6 -20333020.749 7
  14285237.379   -43951979.960 7 -34153129.198 8
  18000991.020    -6115590.107 4  -4544052.284 3
  17398104.285   -17542820.963 5 -13582145.997 5
  14783100.371   -37313593.346 7 -28860622.356 9
  16072646.020   -44823107.630 6 -34831622.466 7
  16233273.488   -20651119.633 6 -15891857.201 6
 94  1 19 23 24 29.9800000  0  7 27 18  2 28 19 29 31
  15890762.434   -26324947.196 6 -20412791.568 7
  14281404.965   -43972122.616 7 -34168824.774 8
  17975246.402    -6250903.168 5  -4649490.918 4
  17393082.449   -17569198.732 5 -13602700.066 5
  14771840.137   -37372771.923 7 -28906735.523 9
  16078614.371   -44791734.328 6 -34807175.763 6
  16216987.379   -20736709.131 6 -15958550.268 6
 94  1 19 23 24 59.9800000  0  7 27 18  2 28 19 29 31
  15871304.910   -26427192.387 6 -20492463.112 7
  14277673.707   -43991728.004 7 -34184101.704 8
  17949536.871    -6386004.603 5  -4754764.641 3
  17388167.098   -17595022.708 5 -13622822.622 5
  14760613.356   -37431763.896 7 -28952703.271 9
  16084653.035   -44760007.314 6 -34782453.435 6
  16200796.668   -20821791.293 6 -16024848.005 6
 94  1 19 23 25 29.9790000  0  7 27 18  2 28 19 29 31
  15851871.905   -26529317.550 6 -20572041.132 7
  14274040.460   -44010812.978 7 -34198973.111 8
  17923863.187    -6520907.304 5  -4859883.531 4
  17383359.718   -17620293.313 5 -13642513.988 5
  14749424.398   -37490581.794 7 -28998535.390 9
  16090754.280   -44727951.007 6 -34757474.520 6
  16184698.780   -20906362.044 6 -16090747.249 6
 94  1 19 23 25 59.9790000  0  7 27 18  2 28 19 29 31
  15832459.187   -26631321.497 6 -20651524.679 7
  14270502.835   -44029399.349 7 -34213456.003 8
  17898228.538    -6655627.776 5  -4964860.420 5
  17378655.960   -17645009.232 5 -13661773.128 6
  14738260.116   -37549235.708 7 -29044239.725 9
  16096919.257   -44695552.264 6 -34732228.773 6
  16168703.866   -20990421.856 6 -16156248.358 6
 94  1 19 23 26 29.9790000  0  7 27 18  2 28 19 29 31
  15813073.515   -26733198.390 6 -20730909.225 7
  14267058.257   -44047506.212 7 -34227565.252 8
  17872625.679    -6790170.412 5  -5069698.726 4
  17374056.804   -17669178.470 5 -13680606.281 5
  14727130.444   -37607716.667 7 -29089809.295 9
  16103153.882   -44662807.755 6 -34706713.597 6
  16152808.515   -21073956.071 6 -16221339.913 6
 94  1 19 23 26 59.9790000  0  7 27 18  2 28 19 29 31
  15793715.741   -26834933.533 6 -20810183.330 7
  14263701.319   -44065147.358 7 -34241311.603 8
  17847056.249    -6924523.633 5  -5174389.445 4
  17369560.491   -17692804.588 5 -13699016.226 5
  14716040.773   -37666002.043 7 -29135226.453 9
  16109445.944   -44629733.065 6 -34680941.138 6
  16137010.827   -21156967.077 6 -16286023.775 6
 94  1 19 23 27 29.9790000  0  7 27 18  2 28 19 29 31
  15774384.335   -26936518.871 6 -20889340.690 7
  14260432.288   -44082328.540 7 -34254699.543 8
  17821526.304    -7058690.798 5  -5278935.176 4
  17365163.327   -17715903.725 5 -13717015.544 6
  14704984.530   -37724093.740 7 -29180492.690 9
  16115801.968   -44596333.750 6 -34654915.721 6
  16121310.960   -21239470.791 6 -16350312.355 7
 94  1 19 23 27 59.9790000  0  8 27 18  2 28 19 29 16 31
  15755080.304   -27037958.389 6 -20968384.431 7
  14257252.405   -44099039.086 7 -34267720.757 8
  17796033.546    -7192663.780 5  -5383329.608 4
  17360867.116   -17738472.470 5 -13734601.567 5
  14693969.859   -37781981.392 7 -29225599.937 9
  16122220.640   -44562602.819 6 -34628631.912 6
  18663977.312     -111954.106 3
  16105706.968   -21321482.051 6 -16414217.210 7
 94  1 19 23 28 29.9790000  0  8 27 18  2 28 19 29 16 31
  15735801.991   -27139258.932 6 -21047319.876 7
  14254161.632   -44115282.131 7 -34280377.682 8
  17770579.882    -7326431.386 5  -5487563.988 4
  17356674.538   -17760507.599 5 -13751771.781 5
  14682997.304   -37839649.895 7 -29270536.410 9
  16128701.054   -44528549.226 6 -34602096.677 6
  18642757.421     -223503.449 3        -0.00612
  16090195.476   -21402992.648 6 -16477731.929 7
 94  1 19 23 28 59.9790000  0  8 27 18  2 28 19 29 16 31
  15716551.366   -27240431.932 6 -21126155.938 7
  14251158.390   -44131054.660 7 -34292667.967 8
  17745164.046    -7459987.520 5  -5591633.599 4
  17352587.718   -17782005.029 5 -13768523.023 5
  14672063.398   -37897105.306 7 -29315306.832 9
  16135240.546   -44494178.788 6 -34575314.542 6
  18621601.890     -334635.908 3    -86596.651 2
  16074775.905   -21484016.330 6 -16540867.238 6
 94  1 19 23 29 29.9790000  0  8 27 18  2 28 19 29 16 31
  15697319.062   -27341493.165 6 -21204904.903 7
  14248252.171   -44146335.461 7 -34304575.083 8
  17719786.116    -7593335.609 5  -5695541.105 4
  17348596.905   -17802961.565 5 -13784852.772 5
  14661167.554   -37954360.517 7 -29359921.275 9
  16141842.609   -44459481.170 6 -34548277.466 6
  18600533.030     -445352.449 3   -172869.202 1
  16059449.327   -21564552.862 6 -16603622.954 7
 94  1 19 23 29 59.9790000  0  8 27 18  2 28 19 29 16 31
  15678109.101   -27442447.226 6 -21283570.362 7
  14245440.593   -44161116.065 7 -34316092.440 8
  17694448.202    -7726481.003 5  -5799290.672 5
  17344711.624   -17823377.749 5 -13800761.477 5
  14650308.718   -38011420.697 7 -29404383.731 9
  16148507.601   -44424455.452 6 -34520984.722 6
  18579538.874     -555637.896 3   -258805.841 2
  16044221.898   -21644589.289 6 -16665988.976 6
 94  1 19 23 30 29.9790000  0  8 27 18  2 28 19 29 16 31
  15658920.398   -27543279.279 6 -21362140.745 7
  14242722.288   -44175396.134 7 -34327219.779 8
  17669148.546    -7859426.861 5  -5902884.744 5
  17340930.773   -17843270.663 5 -13816262.441 5
  14639486.624   -38068291.357 7 -29448698.515 9
  16155238.484   -44389087.178 6 -34493425.051 6
  18558633.585     -665489.965 3   -344404.815 3
  16029088.296   -21724106.334 6 -16727950.287 6
 94  1 19 23 30 59.9790000  0  8 27 18  2 28 19 29 16 31
  15639754.609   -27643988.691 6 -21440615.564 7
  14240105.093   -44189157.033 7 -34337942.566 8
  17643889.890    -7992178.149 5  -6006327.202 4
  17337242.671   -17862639.169 5 -13831354.772 5
  14628696.952   -38124986.228 7 -29492876.311 9
  16162034.788   -44353375.632 6 -34465597.910 6
  18537823.343     -774933.039 3   -429685.067 3
  16014057.765   -21803099.494 6 -16789503.367 6
 94  1 19 23 31 29.9790000  0  8 27 18  2 28 19 29 16 31
  15620619.835   -27744555.748 6 -21518979.460 7
  14237585.085   -44202398.518 7 -34348260.609 8
  17618665.874    -8124736.156 5  -6109619.064 5
  17333655.241   -17881475.920 5 -13846032.737 5
  14617942.976   -38181500.116 7 -29536913.084 9
  16168896.218   -44317319.550 6 -34437502.295 6
  18517075.140     -883968.509 3   -514647.723 1
  15999130.827   -21881544.321 6 -16850629.168 6
 94  1 19 23 31 59.9790000  0  8 27 18  2 28 19 29 16 31
  15601508.577   -27844970.588 6 -21597224.744 8
  14235159.101   -44215144.955 7 -34358192.903 8
  17593474.312    -8257110.657 5  -6212767.927 4
  17330176.546   -17899777.302 5 -13860293.533 5
  14607221.859   -38237840.953 7 -29580815.016 9
  16175818.312   -44280931.866 6 -34409148.281 6
  18496411.866     -992595.389 3   -599291.958 2
  15984310.984   -21959426.458 6 -16911316.514 6
 94  1 19 23 32 29.9790000  0  8 27 18  2 28 19 29 16 31
  15582432.632   -27945222.740 6 -21675343.249 8
  14232826.359   -44227398.620 7 -34367741.217 8
  17568322.413    -8389288.880 5  -6315763.832 5
  17326794.866   -17917523.345 5 -13874121.592 5
  14596533.624   -38294004.979 7 -29624579.170 9
  16182805.601   -44244224.617 6 -34380545.256 6
  18475812.937    -1100785.935 3   -683596.228 4
  15969596.038   -22036748.885 6 -16971567.723 7
 94  1 19 23 32 59.9790000  0  8 27 18  2 28 19 29 16 31
  15563385.952   -28045305.393 6 -21753329.686 8
  14230588.499   -44239156.443 7 -34376903.171 8
  17543208.960    -8521253.463 5  -6418593.272 4
  17323531.429   -17934684.439 5 -13887493.847 5
  14585883.648   -38349981.206 7 -29668196.990 9
  16189847.452   -44207216.004 6 -34351707.404 6
  18455315.280    -1208499.988 3   -767529.197 2
  15954987.234   -22113513.106 6 -17031383.965 7
 94  1 19 23 33 29.9790000  0  8 27 18  2 28 19 29 16 31
  15544372.429   -28145228.877 6 -21831192.092 8
  14228442.734   -44250435.135 7 -34385691.765 8
  17518138.030    -8653013.994 5  -6521263.697 5
  17320371.765   -17951283.293 5 -13900427.997 5
  14575267.507   -38405767.475 7 -29711666.784 9
  16196945.866   -44169915.990 6 -34322642.485 6
  18434910.710    -1315718.775 3   -851076.249 2
  15940480.523   -22189735.597 6 -17090778.083 7
 94  1 19 23 33 59.9790000  0  8 27 18  2 28 19 29 16 31
  15525383.991   -28245018.764 6 -21908950.395 8
  14226385.280   -44261243.418 7 -34394113.807 8
  17493106.484    -8784568.333 5  -6623773.471 5
  17317319.429   -17967348.992 5 -13912946.693 5
  14564687.429   -38461369.379 7 -29754992.913 9
  16204095.937   -44132337.201 6 -34293360.339 6
  18414591.984    -1422461.787 3   -934252.540 1
  15926075.734   -22265445.081 6 -17149772.449 7
 94  1 19 23 34 29.9790000  0  8 27 18  2 28 19 29 16 31
  15506419.476   -28344681.236 6 -21986609.410 8
  14224418.499   -44271576.457 7 -34402165.528 8
  17468109.530    -8915900.807 5  -6726110.361 5
  17314358.351   -17982882.468 5 -13925050.679 5
  14554147.023   -38516761.301 7 -29798155.434 9
  16211303.038   -44094469.593 6 -34263853.141 6
  18394376.866    -1528727.735 3  -1017057.105 2
  15911765.929   -22340645.584 6 -17208370.206 7
 94  1 19 23 34 59.9790000  0  8 27 18  2 28 19 29 16 31
  15487475.421   -28444227.429 6 -22064177.829 8
  14222543.585   -44281434.958 7 -34409847.481 9
  17443157.007    -9047012.743 5  -6828275.405 5
  17311498.343   -17997901.596 5 -13936753.870 5
  14543645.562   -38571939.507 7 -29841151.415 9
  16218568.991   -44056287.017 6 -34234100.519 6
  18374248.913    -1634548.477 3  -1099514.776 3
  15897556.734   -22415320.279 6 -17266558.236 7
 94  1 19 23 35 29.9790000  0  8 27 18  2 28 19 29 16 31
  15468553.226   -28543664.235 6 -22141661.002 8
  14220759.679   -44290809.296 7 -34417152.168 9
  17418254.765    -9177898.860 5  -6930264.480 5
  17308742.101   -18012413.152 5 -13948061.564 5
  14533189.304   -38626896.387 7 -29883974.939 9
  16225901.351   -44017762.493 6 -34204081.442 6
  18354183.476    -1739956.072 3  -1181650.518 2
  15883446.741   -22489453.146 6 -17324324.075 7
 94  1 19 23 35 59.9790000  0  8 27 18  2 28 19 29 16 31
  15449653.077   -28642980.545 6 -22219050.294 8
  14219067.241   -44299703.276 7 -34424082.550 8
  17393389.616    -9308555.208 5  -7032074.513 5
  17306077.554   -18026401.270 5 -13958961.371 5
  14522769.765   -38681641.845 7 -29926633.721 9
  16233296.429   -43978890.350 6 -34173791.491 6
  18334203.538    -1844962.408 3  -1263473.584 2
  15869448.077   -22563033.131 6 -17381659.091 7
 94  1 19 23 36 29.9790000  0  8 27 18  2 28 19 29 16 31
  15430776.640   -28742182.059 6 -22296350.128 8
  14217465.671   -44308127.427 7 -34430646.828 8
  17368565.632    -9439010.324 5  -7133727.743 5
  17303519.257   -18039849.800 5 -13969440.727 5
  14512387.843   -38736200.333 7 -29969146.805 9
  16240759.468   -43939665.086 6 -34143226.385 6
  18314288.694    -1949567.878 3  -1344984.270 3
  15855551.890   -22636057.817 6 -17438561.410 7
 94  1 19 23 36 59.9790000  0  8 27 18  2 28 19 29 16 31
  15411923.155   -28841250.955 6 -22373546.622 7
  14215955.890   -44316059.647 7 -34436827.783 9
  17343781.241    -9569265.545 5  -7235225.217 5
  17301064.093   -18052752.897 5 -13979495.071 5
  14502041.921   -38790572.691 7 -30011514.855 9
  16248298.421   -43900072.966 6 -34112375.418 6
  18294468.452    -2053767.268 3  -1426178.541 3
  15841762.109   -22708513.257 6 -17495020.150 7
 94  1 19 23 37 29.9790000  0  8 27 18  2 28 19 29 16 31
  15393100.663   -28940168.217 6 -22450624.988 8
  14214538.640   -44323500.918 7 -34442626.177 8
  17319030.468    -9699321.726 5  -7336567.591 5
  17298717.046   -18065100.040 5 -13989116.230 5
  14491729.741   -38844759.385 7 -30053738.237 9
  16255895.179   -43860131.797 6 -34081252.474 6
  18274722.882    -2157533.141 3  -1507035.008 3
  15828083.655   -22780405.493 6 -17551040.038 7
 94  1 19 23 37 59.9790000  0  8 27 18  2 28 19 29 16 31
  15374307.984   -29038921.890 6 -22527575.861 7
  14213216.523   -44330450.447 7 -34448041.405 8
  17294321.398    -9829177.666 5  -7437753.940 5
  17296472.023   -18076885.645 5 -13998299.786 5
  14481455.226   -38898761.490 7 -30095817.782 9
  16263562.069   -43819852.864 6 -34049866.323 6
  18255055.343    -2260842.146 3  -1587535.496 2
  15814507.554   -22851732.244 6 -17606619.281 7
 94  1 19 23 38 29.9790000  0  8 27 18  2 28 19 29 16 31
  15355543.296   -29137524.714 6 -22604409.202 8
  14211987.374   -44336911.190 7 -34453075.761 8
  17269646.405    -9958832.073 5  -7538783.254 5
  17294332.155   -18088132.929 5 -14007063.889 5
  14471213.476   -38952579.027 7 -30137753.512 9
  16271283.538   -43779268.493 6 -34018242.173 6
  18235485.140    -2363697.850 3  -1667682.768 3
  15801038.218   -22922507.980 6 -17661769.159 7
 94  1 19 23 38 59.9790000  0  8 27 18  2 28 19 29 16 31
  15336809.015   -29235984.504 6 -22681131.090 8
  14210850.554   -44342884.418 7 -34457730.227 8
  17245017.460   -10088270.658 5  -7639644.397 5
  17292287.077   -18098876.119 5 -14015435.182 5
  14461005.976   -39006212.983 7 -30179546.190 9
  16279057.812   -43738415.129 6 -33986408.419 6
  18215995.218    -2466091.079 3  -1747469.656 2
  15787676.530   -22992739.884 6 -17716495.278 7
 94  1 19 23 39 29.9790000  0  8 27 18  2 28 19 29 16 31
  15318099.960   -29334302.162 6 -22757742.220 8
  14209807.741   -44348359.584 7 -34461996.588 8
  17220426.312   -10217476.980 5  -7740324.553 5
  17290339.062   -18109109.048 5 -14023408.880 5
  14450835.843   -39059664.960 7 -30221197.066 9
  16286882.819   -43697299.936 6 -33954370.641 6
  18196609.890    -2567994.455 3  -1826874.841 3
  15774415.351   -23062424.409 6 -17770794.870 7
 94  1 19 23 39 59.9790000  0  8 27 18  2 28 19 29 16 31
  15299415.546   -29432488.235 6 -22834250.815 8
  14208862.132   -44353329.347 7 -34465869.133 8
  17195884.515   -10346448.377 5  -7840821.646 5
  17288486.327   -18118832.018 5 -14030985.200 5
  14440696.530   -39112938.680 7 -30262709.046 9
  16294754.499   -43655923.687 6 -33922129.450 6
  18177311.726    -2669419.257 3  -1905907.099 2
  15761260.351   -23131560.976 6 -17824667.480 7
 94  1 19 23 40 29.9790000  0  8 27 18  2 28 19 29 16 31
  15280756.140   -29530548.247 6 -22910661.183 8
  14208012.015   -44357805.941 7 -34469357.390 8
  17171386.484   -10475194.930 5  -7941143.535 5
  17286735.374   -18128045.602 5 -14038164.603 5
  14430591.023   -39166041.770 7 -30304088.065 9
  16302677.944   -43614288.946 6 -33889686.825 6
  18158099.405    -2770374.515 3  -1984573.473 3
  15748205.374   -23200161.166 6 -17878122.133 7
 94  1 19 23 40 59.9790000  0  8 27 18  2 28 19 29 16 31
  15262121.077   -29628476.236 6 -22986968.673 8
  14207254.273   -44361787.084 7 -34472459.587 8
  17146928.374   -10603717.957 5  -8041291.236 5
  17285079.523   -18136731.397 5 -14044932.727 5
  14420517.929   -39218977.451 7 -30345336.636 9
  16310656.749   -43572370.304 6 -33857022.981 6
  18138983.851    -2870857.878 3  -2062872.135 3
  15735256.241   -23268219.053 6 -17931154.217 7
 94  1 19 23 41 29.9790000  0  8 27 18  2 28 19 29 16 31
  15243513.452   -29726250.834 6 -23063156.644 8
  14206590.374   -44365272.110 7 -34475175.190 9
  17122512.679   -10732020.175 5  -8141266.892 5
  17283533.718   -18144859.296 5 -14051266.146 5
  14410481.062   -39271722.985 7 -30386437.034 9
  16318690.390   -43530145.291 6 -33824120.413 6
  18119944.124    -2970873.801 3  -2140806.555 3
  15722405.687   -23335726.176 6 -17983757.137 7
 94  1 19 23 41 59.9790000  0  8 27 18  2 28 19 29 16 31
  15224936.468   -29823876.152 6 -23139228.283 8
  14206018.694   -44368284.502 7 -34477522.510 8
  17098138.671   -10860102.580 5  -8241071.261 5
  17282095.507   -18152431.053 5 -14057166.203 6
  14400481.374   -39324268.455 7 -30427381.543 9
  16326786.726   -43487610.847 6 -33790976.728 6
  18100993.437    -3070451.462 3  -2218399.472 3
  15709667.335   -23402681.031 6 -18035929.716 7
 94  1 19 23 42 29.9790000  0  8 27 18  2 28 19 29 16 31
  15206384.546   -29921358.276 6 -23215188.358 8
  14205533.109   -44370825.190 7 -34479502.266 8
  17073809.538   -10987962.811 5  -8340702.501 5
  17280756.921   -18159458.651 5 -14062642.244 5
  14390524.398   -39376596.779 7 -30468156.843 9
  16334937.046   -43444765.892 6 -33757591.084 6
  18082135.155    -3169578.494 3  -2295641.218 2
  15697034.210   -23469076.679 6 -18087666.552 7
 94  1 19 23 42 59.9780000  0  8 27 18  2 28 19 29 16 31
  15187863.861   -30018697.482 6 -23291037.054 8
  14205144.244   -44372885.575 7 -34481107.764 8
  17049521.002   -11115588.715 5  -8440151.163 5
  17279520.244   -18165953.718 5 -14067703.317 5
  14380608.276   -39428696.800 7 -30508754.244 9
  16343147.143   -43401614.868 6 -33723966.944 6
  18063363.330    -3268233.450 3  -2372515.117 2
  15684506.369   -23534896.519 6 -18138954.717 7
 94  1 19 23 43 29.9780000  0  8 27 18  2 28 19 29 16 31
  15169363.276   -30115914.243 6 -23366790.341 8
  14204839.416   -44374476.213 7 -34482347.227 8
  17025277.565   -11242998.240 5  -8539431.200 5
  17278384.002   -18171934.718 5 -14072363.840 5
  14370738.463   -39480574.838 7 -30549178.668 9
  16351417.674   -43358168.769 6 -33690112.871 6
  18044684.111    -3366417.695 4  -2449022.225 3
  15672087.736   -23600145.551 6 -18189798.083 7
 94  1 19 23 43 59.9780000  0  8 27 18  2 28 19 29 16 31
  15150887.322   -30213001.139 6 -23442442.433 8
  14204629.018   -44375581.544 7 -34483208.533 9
  17001080.791   -11370155.882 5  -8638514.960 5
  17277344.408   -18177411.785 5 -14076631.671 5
  14360907.119   -39532229.468 7 -30589429.004 9
  16359739.901   -43314423.284 6 -33656025.507 6
  18026077.104    -3464105.376 4  -2525142.380 3
  15659786.315   -23664806.431 6 -18240183.151 7
 94  1 19 23 44 29.9780000  0  8 27 18  2 28 19 29 16 31
  15132442.479   -30309935.432 6
  14204512.307   -44376190.255 7 -34483682.852 9
  16976929.432   -11497063.294 5  -8737403.755 5
  17276396.815   -18182388.801 5 -14080509.856 5
  14351118.596   -39583668.217 7 -30629511.124 9
  16368121.885   -43270383.432 6 -33621708.764 6
  18007597.510    -3561256.690 4
  15647591.471   -23728880.639 6 -18290111.067 7
 94  1 19 23 44 59.9780000  0  8 27 18  2 28 19 29 16 31
  15114027.619   -30406706.392 6 -23593381.513 8
  14204490.057   -44376313.017 7
  16952825.135   -11623729.274 5  -8836104.421 5
  17275541.455   -18186870.048 5 -14084001.728 5
  14341367.049   -39634918.233 7 -30669446.179 9
  16376554.533   -43226067.241 6 -33587176.699 5
  17989215.713    -3657882.521 4  -2676137.359 3
  15635507.002   -23792386.817 6 -18339596.366 7
 94  1 19 23 45 29.9780000  0  8 27 18  2 28 19 29 16 31
  15095641.752   -30503322.281 6 -23668666.582 8
  14204557.533   -44375971.329 7
  16928766.197   -11750167.052 5  -8934627.273 5
  17274780.494   -18190863.917 5 -14087113.823 5
  14331645.002   -39686003.578 7 -30709252.919 9
  16385038.315   -43181490.992 6 -33552441.989 6
  17970924.408    -3754021.252 4  -2751050.594 3
  15623529.041   -23855345.516 6 -18388655.058 7
 94  1 19 23 45 59.9780000  0  8 27 18  2 28 19 29 16 31
  15077293.338   -30599742.098 6 -23743798.867 8
  14204712.744   -44375130.012 7 -34482856.704 9
  16904754.986   -11876344.104 5  -9032946.949 5
  17274118.463   -18194334.305 5 -14089818.006 5
  14321961.533   -39736899.062 7 -30748911.718 9
  16393573.658   -43136624.959 6 -33517481.473 5
  17952726.611    -3849649.333 4  -2825565.883 4
  15611653.729   -23917725.686 6 -18437262.941 7
 94  1 19 23 46 29.9780000  0  8 27 18  2 28 19 29 16 31
  15058978.588   -30695990.398 6 -23818797.496 8
  14204965.736   -44373810.950 7 -34481828.869 9
  16880787.291   -12002292.649 5  -9131088.574 5
  17273562.221   -18197276.995 5 -14092110.991 5
  14312308.994   -39787627.103 7 -30788440.036 9
  16402166.986   -43091472.700 6 -33482297.933 5
  17934613.307    -3944802.657 4  -2899711.238 2
  15599890.643   -23979544.516 6 -18485433.427 7
 94  1 19 23 46 59.9780000  0  8 27 18  2 28 19 29 16 31
  15040692.627   -30792088.092 6 -23893678.773 8
  14205306.463   -44372004.974 7 -34480421.619 9
  16856866.104   -12128005.620 5  -9229046.633 5
  17273106.791   -18199677.934 5 -14093981.847 5
  14302689.799   -39838173.161 7 -30827826.548 9
  16410817.486   -43046016.173 6 -33446877.288 5
  17916592.799    -4039501.994 4  -2973502.836 3
  15588237.111   -24040780.258 6 -18533149.546 7
 94  1 19 23 47 29.9780000  0  8 27 18  2 28 19 29 16 31
  15022429.143   -30888055.190 6 -23968458.284 8
  14205741.393   -44369730.314 7 -34478649.161 9
  16832986.143   -12253497.673 5  -9326832.564 5
  17272747.197   -18201544.087 5 -14095435.981 5
  14293104.924   -39888538.210 7 -30867072.018 9
  16419526.471   -43000258.635 6 -33411222.091 5
  17898653.072    -4133760.153 4  -3046950.689 4
  15576698.643   -24101433.339 6 -18580411.653 7
 94  1 19 23 47 59.9780000  0  8 27 18  2 28 19 29 16 31
  15004193.783   -30983884.596 6 -24043130.517 8
  14206266.830   -44366971.864 7 -34476499.722 9
  16809147.986   -12378753.538 5  -9424434.430 5
  17272498.276   -18202872.757 5 -14096471.301 5
  14283560.658   -39938695.595 7 -30906155.668 9
  16428291.252   -42954181.691 5 -33375318.007 5
  17880811.072    -4227540.486 4  -3120026.189 3
  15565267.635   -24161493.069 6 -18627211.408 7
 94  1 19 23 48 29.9780000  0  8 27 18  2 28 19 29 16 31
  14985979.838   -31079600.552 6 -24117714.330 8
  14206878.088   -44363752.753 7 -34473991.329 9
  16785356.393   -12503793.875 5  -9521868.364 5
  17272341.658   -18203691.289 5 -14097109.103 5
  14274054.377   -39988644.756 7 -30945077.065 9
  16437114.408   -42907816.194 5 -33339189.091 5
  17863054.252    -4320849.572 4  -3192734.486 2
  15553950.783   -24220975.301 6 -18673561.158 7
 94  1 19 23 48 59.9780000  0  8 27 18  2 28 19 29 16 31
  14967791.049   -31175178.514 6 -24192190.626 8
  14207581.721   -44360059.779 7 -34471113.688 9
  16761605.565   -12628604.964 5  -9619123.665 5
  17272276.463   -18204006.618 5
  14264593.916   -40038363.207 7 -30983818.690 9
  16445992.791   -42861180.474 5 -33302849.609 5
  17845394.729    -4413659.901 4  -3265054.146 4
  15542741.971   -24279869.300 6 -18719452.552 7
 94  1 19 23 49 29.9780000  0  8 27 18  2 28 19 29 16 31
  14949630.486   -31270618.621 7 -24266559.503 8
  14208371.971   -44355912.173 7 -34467881.791 9
  16737896.643   -12753184.408 5  -9716198.469 5
  17272311.580   -18203848.174 5
  14255174.393   -40087867.896 7 -31022393.745 9
  16454910.658   -42814298.564 5 -33266318.287 5
  17827824.705    -4505980.885 4  -3336992.480 3
  15531639.330   -24338208.676 6 -18764911.776 7
 94  1 19 23 49 59.9780000  0  8 27 18  2 28 19 29 16 31
  14931496.994   -31365906.559 6 -24340809.797 8
  14209252.041   -44351286.553 7 -34464277.422 9
  16714238.002   -12877511.613 5  -9813076.717 5
  17272430.072   -18203211.826 5 -14096735.476 5
  14245795.080   -40137141.942 7 -31060789.080 9
  16463883.729   -42767151.984 5 -33229580.736 5
  17810350.697    -4597801.683 4  -3408541.076 3
  15520650.518   -24395974.223 6 -18809923.851 7
 94  1 19 23 50 29.9780000  0  8 27 18  2 28 19 29 16 31
  14913393.299   -31461042.214 6 -24414941.436 8
  14210219.455   -44346194.108 7 -34460309.285 9
  16690627.705   -13001591.794 5  -9909762.475 5
  17272645.424   -18202087.509 5 -14095859.372 5
  14236461.736   -40186199.645 7 -31099015.835 9
  16472899.963   -42719762.202 5 -33192653.675 5
  17792969.002    -4689140.706 4  -3479714.246 4
  15509766.315   -24453152.369 6 -18854478.209 7
 94  1 19 23 50 59.9780000  0  8 27 18  2 28 19 29 16 31
  14895322.049   -31556013.998 6 -24488945.376 8
  14211278.291   -44340633.887 7 -34455976.646 9
  16667067.276   -13125408.700 5 -10006243.079 6
  17272954.682   -18200471.509 5 -14094600.146 5
  14227165.182   -40235053.088 7 -31137083.427 9
  16481967.854   -42672121.475 5 -33155531.068 5
  17775674.815    -4780008.914 4  -3550520.558 2
  15498996.791   -24509748.242 6 -18898578.855 7
 94  1 19 23 51 29.9780000  0  8 27 18  2 28 19 29 16 31
  14877281.479   -31650814.737 6 -24562816.036 8
  14212427.815   -44334591.340 7 -34451268.175 9
  16643556.354   -13248956.678 5 -10102514.150 5
  17273359.799   -18198345.252 5 -14092943.312 5
  14217907.369   -40283693.994 7 -31174985.413 9
  16491087.408   -42624200.187 5 -33118189.847 5
  17758477.369    -4870396.336 4  -3620952.226 4
  15488343.971   -24565741.977 6 -18942210.299 7
 94  1 19 23 51 59.9780000  0  8 27 18  2 28 19 29 16 31
  14859272.768   -31745454.797 6 -24636561.513 8
  14213669.736   -44328073.553 7 -34446189.389 9
  16620091.096   -13372260.128 5 -10198594.661 6
  17273863.236   -18195693.758 5 -14090877.199 5
  14208691.916   -40332137.171 7 -31212733.330 9
  16500255.322   -42576006.886 5 -33080636.648 5
  17741367.760    -4960292.404 4  -3691001.042 4
  15477802.736   -24621116.192 6 -18985359.000 7
 94  1 19 23 52 29.9780000  0  8 27 18  2 28 19 29 16 31
  14841295.088   -31839919.088 7 -24710170.003 8
  14215000.549   -44321078.244 7 -34440738.502 9
  16596675.346   -13495303.775 5 -10294472.756 6
  17274469.229   -18192500.753 5 -14088389.119 5
  14199508.549   -40380386.904 7 -31250330.510 9
  16509479.369   -42527543.449 5 -33042872.976 5
  17724358.822    -5049675.779 4  -3760650.358 3
  15467384.963   -24675871.496 6 -19028025.424 7
 94  1 19 23 52 59.9780000  0  8 27 18  2 28 19 29 16 31
  14823351.361   -31934213.925 6 -24783646.463 8
  14216424.119   -44313594.516 7 -34434907.032 9
  16573311.002   -13618095.469 5 -10390154.506 6
  17275174.760   -18188785.597 5 -14085494.184 5
  14190361.861   -40428453.367 7 -31287784.880 9
  16518757.338   -42478796.247 5 -33004888.189 5
  17707446.955    -5138547.051 4  -3829900.626 4
  15457079.643   -24730027.404 6 -19070224.790 7
 94  1 19 23 53 29.9780000  0  8 27 18  2 28 19 29 16 31
  14805435.307   -32028365.857 6 -24857011.565 8
  14217938.815   -44305636.769 7 -34428706.193 9
  16549984.018   -13740669.001 5 -10485666.273 6
  17275978.705   -18184566.914 5 -14082206.880 5
  14181246.869   -40476356.592 7 -31325112.059 9
  16528083.963   -42429776.505 5 -32966691.026 5
  17690639.572    -5226910.303 5  -3898755.048 3
  15446885.057   -24783588.045 6 -19111960.310 7
 94  1 19 23 53 59.9780000  0  8 27 18  2 28 19 29 16 31
  14787549.361   -32122351.662 6 -24930247.220 8
  14219545.752   -44297195.150 7 -34422128.310 8
  16526707.447   -13862987.755 5 -10580979.508 6
  17276881.666   -18179817.950 5 -14078506.385 5
  14172164.658   -40524078.708 7 -31362298.108 9
  16537468.369   -42380466.619 5 -32928267.786 5
  17673918.119    -5314742.869 4  -3967195.948 4
  15436814.502   -24836524.419 6 -19153209.391 7
